     2.11           OBSERVATION DATA    G (GPS)             RINEX VERSION / TYPE
teqc 2010Oct21 OPUS Account 20111027 16:50:25UTC            PGM / RUN BY / DATE
F 1525                                                      MARKER NAME
3012                                                        MARKER NUMBER
CSMIDDLETON NGS                                             OBSERVER / AGENCY
4820152812 TRIMBLE R7 2.32                                  REC # / TYPE / VERS
60244996 TRM41249.00 NONE                                   ANT # / TYPE
  -764427.7731 -5542084.5046  3052853.5374                  APPROX POSITION XYZ
        2.0030        0.0000        0.0000                  ANTENNA: DELTA H/E/N
     1     1                                                WAVELENGTH FACT L1/2
     5    L1    L2    C1    P1    P2                        # / TYPES OF OBSERV
    15                                                      LEAP SECONDS
  2011     8    16     0     0   30.0000000     GPS         TIME OF FIRST OBS
                                                            END OF HEADER
 11  8 16  0  0 30.0000000  0  8G10G09G12G04G02G05G17G28
 -10576156.77057  -8138073.69156  21150238.4694                   21150236.3754
   1991490.89557   1611777.06354  22632870.9384                   22632870.5664
  -7453050.93057  -5793006.06655  22365650.6174                   22365648.0164
  -5143871.23058  -3989018.93056  20656961.9534                   20656959.3524
 -11365781.98858  -8848374.14156  20702608.1644                   20702603.5514
  -4604580.96157  -3573154.62954  23299263.1254                   23299263.7544
  13184001.88357  10278043.50455  22442454.9064                   22442452.6484
  31778490.74256  24762323.41453  23907352.7974                   23907354.4224
 11  8 16  0  1  0.0000000  0  8G10G09G12G04G02G05G17G28
 -10582898.88748  -8143327.25046  21148955.7424                   21148953.2894
   2086720.97747   1685982.27044  22650992.3674                   22650992.0594
  -7499895.02347  -5829507.92645  22356736.9224                   22356733.9344
  -5045722.45348  -3912539.38346  20675638.7814                   20675636.7074
 -11352512.23848  -8838034.03946  20705133.2894                   20705128.7704
  -4671483.75447  -3625286.46945  23286531.7584                   23286532.2664
  13264620.61747  10340863.25845  22457795.9534                   22457793.6174
  31914290.20746  24868141.03143  23933196.2194                   23933196.4734
 11  8 16  0  1 30.0000000  0  8G10G09G12G04G02G05G17G28
 -10589044.89148  -8148116.30145  21147785.9924                   21147784.0164
   2182417.35947   1760550.85244  22669203.6804                   22669203.1484
  -7546431.04747  -5865769.73045  22347881.2114                   22347878.6174
  -4947211.07048  -3835777.28146  20694384.8984                   20694382.6684
 -11338826.81248  -8827370.04746  20707737.6334                   20707733.0124
  -4738239.07047  -3677303.38345  23273828.9224                   23273828.9024
  13345411.74647  10403817.35945  22473170.2344                   22473168.0664
  32050374.61346  24974180.67643  23959091.3364                   23959092.2974
 11  8 16  0  2  0.0000000  0  8G10G09G12G04G02G05G17G28
 -10594588.01648  -8152435.57045  21146731.5084                   21146729.2624
   2278581.51647   1835483.91044  22687502.9304                   22687501.9534
  -7592651.50047  -5901785.64145  22339085.5234                   22339083.2304
  -4848334.94148  -3758730.96146  20713200.6564                   20713198.0394
 -11324721.53548  -8816378.89846  20710421.6414                   20710416.7624
  -4804839.69547  -3729199.76645  23261154.6334                   23261155.8874
  13426380.32847  10466909.73045  22488578.0164                   22488575.5864
  32186746.77346  25080444.54342  23985042.1174                   23985043.5394
 11  8 16  0  2 30.0000000  0  8G10G09G12G04G02G05G17G28
 -10599522.80948  -8156280.82045  21145792.1724                   21145790.0474
   2375213.66847   1910781.66844  22705891.0554                   22705890.8134
  -7638550.88747  -5937551.36345  22330351.2584                   22330348.9844
  -4749093.35948  -3681399.87546  20732085.3594                   20732083.1914
 -11310193.96948  -8805058.68746  20713185.9064                   20713180.8714
  -4871279.23447  -3780970.61745  23248511.8364                   23248511.3094
  13507530.18847  10530143.37945  22504020.3284                   22504017.4844
  32323407.69946  25186933.48843  24011048.2424                   24011048.8444
 11  8 16  0  3  0.0000000  0  8G10G09G12G04G02G05G17G28
 -10603849.13348  -8159651.93445  21144968.5864                   21144966.4414
   2472308.66447   1986440.07045  22724367.5474                   22724367.6174
  -7684128.84848  -5973066.62945  22321678.2114                   22321675.2854
  -4649490.66448  -3603787.40246  20751039.3674                   20751037.2624
 -11295246.69948  -8793411.43446  20716030.0634                   20716025.7774
  -4937557.07047  -3832615.49645  23235898.8914                   23235899.6174
  13588859.64147  10593516.95745  22519496.7894                   22519494.4104
  32460353.60246  25293644.43043  24037108.2194                   24037108.5824
 11  8 16  0  3 30.0000000  0  8G10G09G12G04G02G05G17G28
 -10607569.59048  -8162550.94945  21144260.4384                   21144259.0234
   2569858.39847   2062452.82045  22742930.7584                   22742930.2774
  -7729387.32848  -6008332.94545  22313065.5084                   22313062.7894
  -4549533.78948  -3525898.95346  20770060.4694                   20770058.3324
 -11279885.08248  -8781441.30946  20718953.4534                   20718948.8054
  -5003675.07047  -3884135.80945  23223317.1254                   23223317.1844
  13670364.82848  10657027.47345  22535006.8914                   22535004.2274
  32597577.59446  25400572.09843  24063221.9694                   24063222.4534
 11  8 16  0  4  0.0000000  0  8G10G09G12G04G02G05G17G28
 -10610677.12548  -8164972.35945  21143669.0704                   21143666.8874
   2667864.91447   2138821.50045  22761580.5944                   22761580.0664
  -7774318.37148  -6043344.09845  22304515.5554                   22304512.9734
  -4449220.10248  -3447732.44946  20789149.6804                   20789146.8284
 -11264104.53948  -8769144.75446  20721956.4144                   20721951.3324
  -5069624.48447  -3935524.75845  23210767.1884                   23210767.1994
  13752051.53948  10720679.42245  22550550.6484                   22550548.6684
  32735083.13746  25507719.16443  24089387.8674                   24089388.7814
 11  8 16  0  4 30.0000000  0  8G10G09G12G04G02G05G17G28
 -10613172.25448  -8166916.57046  21143194.6804                   21143192.4884
   2766321.91047   2215541.19545  22780316.3054                   22780316.6914
  -7818922.32048  -6078100.38745  22296027.4534                   22296025.2074
  -4348554.98048  -3369292.11346  20808305.4614                   20808303.3914
 -11247908.67248  -8756524.58246  20725038.1174                   20725033.7624
  -5135405.93447  -3986782.84045  23198249.1724                   23198249.4344
  13833917.45747  10784471.03145  22566129.8444                   22566127.3874
  32872865.02046  25615081.57443  24115606.6884                   24115607.7704
 11  8 16  0  5  0.0000000  0  8G10G09G12G04G02G05G17G28
 -10615052.22248  -8168381.44345  21142837.1804                   21142834.4774
   2865227.37647   2292610.36045  22799137.8134                   22799137.6214
  -7863196.25647  -6112599.51945  22287602.9844                   22287599.9024
  -4247540.04048  -3290579.18646  20827527.8984                   20827525.7274
 -11231297.26248  -8743580.59146  20728199.2424                   20728194.7114
  -5201015.49147  -4037906.98045  23185764.2814                   23185763.6764
  13915963.79747  10848403.22745  22581742.4924                   22581740.4184
  33010922.11146  25722658.43543  24141878.0784                   24141879.0044
 11  8 16  0  5 30.0000000  0  8G10G09G12G04G02G05G17G28
 -10616318.42648  -8169368.05545  21142595.5004                   21142593.6134
   2964574.82047   2370023.92245  22818042.7034                   22818042.6724
  -7907140.76647  -6146841.94945  22279239.7584                   22279237.4184
  -4146180.87948  -3211598.04346  20846816.0004                   20846813.5354
 -11214274.47748  -8730316.05146  20731438.5944                   20731434.2194
  -5266453.34447  -4088897.31245  23173311.4534                   23173311.5704
  13998187.96547  10912473.99645  22597389.3364                   22597386.9844
  33149249.00846  25830445.53543  24168201.0634                   24168202.1564
 11  8 16  0  6  0.0000000  0  8G10G09G12G04G02G05G17G28
 -10616970.89848  -8169876.43045  21142471.4534                   21142469.5594
   3064358.53847   2447777.42344  22837031.0634                   22837030.2504
  -7950755.56248  -6180827.46245  22270940.5164                   22270938.2894
  -4044482.13748  -3132352.29346  20866168.5864                   20866166.3164
 -11196843.22648  -8716733.23646  20734755.8444                   20734751.1604
  -5331719.34447  -4139753.74645  23160891.4924                   23160891.5864
  14080588.01647  10976681.78945  22613069.6334                   22613067.5514
  33287841.75446  25938439.77043  24194574.2274                   24194576.2934
 11  8 16  0  6 30.0000000  0  8G10G09G12G04G02G05G17G28
 -10617009.33248  -8169906.33246  21142464.1334                   21142461.8484
   3164573.89547   2525867.28545  22856101.9614                   22856101.4104
  -7994039.37948  -6214555.07845  22262703.7344                   22262701.1294
  -3942447.82048  -3052845.04746  20885585.1804                   20885582.9344
 -11179005.59048  -8702833.75446  20738150.2114                   20738145.7934
  -5396811.52747  -4190474.71145  23148504.3914                   23148504.4184
  14163163.21947  11041026.09045  22628783.7424                   22628780.6884
  33426696.52746  26046638.17643  24220997.7194                   24220998.9144
 11  8 16  0  7  0.0000000  0  8G10G09G12G04G02G05G17G28
 -10616421.17148  -8169447.99446  21142576.4454                   21142574.0704
   3265227.97747   2604298.99244  22875255.4924                   22875255.4264
  -8036979.41047  -6248014.80546  22254532.7114                   22254530.0354
  -3840069.82548  -2973070.00046  20905066.9614                   20905064.2584
 -11160751.49948  -8688609.75946  20741623.8284                   20741619.2774
  -5461716.54347  -4241049.87145  23136153.6024                   23136153.4414
  14245924.62847  11105515.48445  22644532.1804                   22644529.7154
  33565821.95346  26155047.48443  24247473.2114                   24247473.7304
 11  8 16  0  7 30.0000000  0  8G10G09G12G04G02G05G17G28
 -10615204.19948  -8168499.65646  21142808.2274                   21142805.8204
   3366318.40247   2683070.73444  22894492.1644                   22894491.8244
  -8079572.05547  -6281203.84445  22246427.1724                   22246424.7114
  -3737349.79348  -2893028.42646  20924613.6174                   20924611.6094
 -11142081.55548  -8674061.72346  20745176.4384                   20745171.9454
  -5526431.17647  -4291476.66045  23123839.0944                   23123838.8014
  14328873.26647  11170150.75845  22660316.7114                   22660314.1764
  33705216.64146  26263666.61343  24273998.7034                   24274000.0274
 11  8 16  0  8  0.0000000  0  8G10G09G12G04G02G05G17G28
 -10613362.22348  -8167064.31646  21143158.4144                   21143155.9304
   3467836.02347   2762175.31344  22913810.5474                   22913810.3954
  -8121821.23047  -6314125.24645  22238387.2344                   22238384.9454
  -3634296.16848  -2812726.92246  20944224.5474                   20944222.2034
 -11123002.30148  -8659194.74646  20748807.1954                   20748802.5004
  -5590958.38747  -4341757.44545  23111559.6954                   23111559.2624
  14412003.94947  11234927.89145  22676135.5004                   22676133.6174
  33844872.24646  26372488.98843  24300573.4694                   24300575.7584
 11  8 16  0  8 30.0000000  0  8G10G09G12G04G02G05G17G28
 -10610884.62548  -8165133.68746  21143629.8524                   21143627.2584
   3569785.98747   2841616.79144  22933211.1644                   22933210.1134
  -8163715.59047  -6346770.16445  22230415.0084                   22230412.6254
  -3530902.60948  -2732160.52346  20963899.4924                   20963897.3954
 -11103505.77348  -8644002.63746  20752517.2504                   20752512.5824
  -5655286.66147  -4391883.20245  23099317.8284                   23099317.4774
  14495325.93447  11299854.09445  22691991.8364                   22691989.4144
  33984795.89846  26481520.27342  24327200.7894                   24327202.3754
 11  8 16  0  9  0.0000000  0  8G10G09G12G04G02G05G17G28
 -10607776.63348  -8162711.84046  21144221.2734                   21144218.8364
   3672158.26147   2921387.37844  22952691.9144                   22952691.1374
  -8205259.29548  -6379141.86045  22222509.9774                   22222506.7854
  -3427178.55148  -2651336.59646  20983637.7894                   20983634.9884
 -11083599.72848  -8628491.39946  20756305.2114                   20756300.4734
  -5719419.58747  -4441856.74945  23087113.8284                   23087113.2664
  14578832.79947  11364924.32645  22707882.4844                   22707879.9414
  34124978.42246  26590753.21142  24353876.9064                   24353878.8794
 11  8 16  0  9 30.0000000  0  7G10G09G12G04G02G05G17
 -10604037.54348  -8159798.23446  21144932.8914                   21144929.9224
   3774947.82047   3001483.10244  22972251.6954                   22972251.6254
  -8246451.60548  -6411239.72745  22214671.1414                   22214668.1294
  -3323127.70348  -2570258.02046  21003437.4534                   21003435.6214
 -11063286.41048  -8612662.81646  20760170.3754                   20760165.7704
  -5783355.93747  -4491677.10245  23074946.9384                   23074946.9884
  14662523.74647  11430138.02345  22723808.2034                   22723805.5004
 11  8 16  0 10  0.0000000  0  7G10G09G12G04G02G05G17
 -10599662.61748  -8156389.16446  21145765.1804                   21145762.3914
   3878154.99647   3081904.22744  22991892.0634                   22991891.2814
  -8287286.75448  -6443059.28546  22206900.2504                   22206897.5354
  -3218749.55948  -2488924.41446  21023300.1724                   21023297.9414
 -11042563.25048  -8596514.89546  20764114.4774                   20764109.3204
  -5847089.59447  -4541339.52745  23062818.8284                   23062818.6214
  14746402.12147  11495497.77045  22739769.9844                   22739767.6764
 11  8 16  0 10 30.0000000  0  7G10G09G12G04G02G05G17
 -10594654.70748  -8152486.86746  21146718.0474                   21146715.6724
   3981771.55147   3162644.35244  23011609.7194                   23011609.0084
  -8327766.35948  -6474601.80145  22199197.2974                   22199194.3484
  -3114050.91048  -2407341.05946  21043224.1484                   21043221.5664
 -11021435.55548  -8580051.71546  20768134.6724                   20768129.8204
  -5910622.04747  -4590845.15645  23050728.7424                   23050728.5514
  14830464.24247  11561000.66845  22755766.2584                   22755764.5394
 11  8 16  0 11  0.0000000  0  7G10G09G12G04G02G05G17
 -10589008.02748  -8148086.83246  21147792.4224                   21147789.9344
   4085798.01247   3243703.89144  23031404.8054                   23031403.9184
  -8367884.33648  -6505862.52346  22191563.2734                   22191560.1914
  -3009030.10248  -2325506.68046  21063209.1564                   21063206.3834
 -10999900.72348  -8563271.30946  20772232.4144                   20772227.9494
  -5973946.51247  -4640188.73445  23038678.9144                   23038678.2704
  14914714.42647  11626650.12945  22771798.8834                   22771796.9414
 11  8 16  0 11 30.0000000  0  7G10G09G12G04G02G05G17
 -10582718.05948  -8143185.52346  21148989.5234                   21148987.4454
   4190234.37147   3325082.83644  23051278.7424                   23051278.0704
  -8407634.84448  -6536836.92645  22183999.2274                   22183996.0904
  -2903686.40648  -2243420.69546  21083255.0394                   21083252.8674
 -10977956.02048  -8546171.52346  20776408.3444                   20776403.8484
  -6037057.09847  -4689365.66045  23026669.0944                   23026668.3914
  14999156.48047  11692449.09845  22787867.4774                   22787864.9414
 11  8 16  0 12  0.0000000  0  7G10G09G12G04G02G05G17
 -10575768.01648  -8137769.87146  21150312.2034                   21150309.5904
   4295092.15647   3406790.13744  23071232.2664                   23071231.7584
  -8447000.54747  -6567511.46946  22176507.5234                   22176504.8244
  -2798007.41048  -2161073.42246  21103365.1254                   21103362.9184
 -10955587.28148  -8528741.33246  20780664.9384                   20780660.4454
  -6099936.13747  -4738362.16845  23014703.1024                   23014702.6644
  15083805.96547  11758409.70745  22803975.8054                   22803973.5824
 11  8 16  0 12 30.0000000  0  7G10G09G12G04G02G05G17
 -10568169.43448  -8131848.86746  21151758.0784                   21151755.5634
   4400354.31347   3488812.53944  23091262.9844                   23091262.3094
  -8485992.09047  -6597894.46145  22169087.7344                   22169085.0704
  -2692009.14548  -2078477.38746  21123535.9844                   21123533.6374
 -10932809.01248  -8510992.02046  20784999.4144                   20784994.7154
  -6162594.05547  -4787186.37545  23002779.4924                   23002779.2344
  15168649.80947  11824521.76245  22820121.1094                   22820119.1884
 11  8 16  0 13  0.0000000  0  7G10G09G12G04G02G05G17
 -10559926.48848  -8125425.77046  21153326.6334                   21153324.0514
   4506012.44547   3571143.47744  23111369.3284                   23111368.8094
  -8524612.73047  -6627988.43446  22161738.6334                   22161735.9924
  -2585698.98848  -1995638.31246  21143766.0164                   21143763.9184
 -10909627.42648  -8492928.42646  20789410.8834                   20789406.1024
  -6225033.23047  -4835840.11345  22990897.2894                   22990897.6414
  15253683.14847  11890781.48045  22836301.9924                   22836300.5124
 11  8 16  0 13 30.0000000  0  7G10G09G12G04G02G05G17
 -10551027.09848  -8118491.15646  21155020.0164                   21155017.3134
   4612073.25447   3653788.19944  23131552.2584                   23131551.7034
  -8562849.62947  -6657783.39546  22154462.0394                   22154459.5314
  -2479069.57848  -1912550.46146  21164057.1644                   21164054.3794
 -10886033.18048  -8474543.27746  20793900.8444                   20793895.7854
  -6287240.41447  -4884313.09845  22979060.0394                   22979059.4104
  15338916.96947  11957197.41445  22852521.8444                   22852519.9344
 11  8 16  0 14  0.0000000  0  7G10G09G12G04G02G05G17
 -10541481.21948  -8111052.77746  21156836.4694                   21156834.1134
   4718521.98447   3736735.19144  23151808.7504                   23151808.3794
  -8600711.48848  -6687286.11345  22147257.1094                   22147254.6134
  -2372134.20448  -1829224.20146  21184406.0004                   21184403.9694
 -10862038.51648  -8455846.10946  20798466.8754                   20798462.3094
  -6349224.09847  -4932611.93445  22967264.9454                   22967263.9924
  15424340.25047  12023760.98445  22868777.2344                   22868775.6174
 11  8 16  0 14 30.0000000  0  7G10G09G12G04G02G05G17
 -10531289.38748  -8103111.05546  21158775.7664                   21158773.8444
   4825352.86747   3819979.96544  23172137.6884                   23172137.3984
  -8638198.21147  -6716496.52746  22140123.9144                   22140121.4574
  -2264897.83248  -1745663.39846  21204812.2814                   21204810.1564
 -10837646.48448  -8436839.32046  20803108.7664                   20803103.5554
  -6410983.41447  -4980735.94545  22955512.3364                   22955511.5274
  15509951.38347  12090470.93045  22885068.7194                   22885066.5984
 11  8 16  0 15  0.0000000  0  7G10G09G12G04G02G05G17
 -10520443.12948  -8094659.39846  21160840.1334                   21160837.2704
   4932569.77047   3903525.52744  23192540.5474                   23192539.8714
  -8675300.14547  -6745407.09846  22133063.6174                   22133061.0944
  -2157355.73448  -1661864.37946  21225277.0004                   21225275.3484
 -10812851.07048  -8417518.19546  20807826.8834                   20807822.2544
  -6472508.72747  -5028677.62145  22943804.6254                   22943803.9384
  15595757.96547  12157333.17645  22901397.4454                   22901395.1914
 11  8 16  0 15 30.0000000  0  7G10G09G12G04G02G05G17
 -10508942.64848  -8085697.94946  21163028.2734                   21163025.5594
   5040167.08247   3987367.52044  23213016.4384                   23213014.8364
  -8712016.90247  -6774017.53146  22126076.5314                   22126073.6684
  -2049512.15648  -1577830.42646  21245798.9614                   21245796.4384
 -10787655.04748  -8397884.91446  20812621.5164                   20812616.4064
  -6533798.88347  -5076436.05545  22932140.8444                   22932140.6134
  15681758.59847  12224346.64145  22917762.4694                   22917760.8324
 11  8 16  0 16  0.0000000  0  7G10G09G12G04G02G05G17
 -12072201.73848  -9303821.88346  20865550.0864                   20865547.3164
   3572729.68847   2843909.72344  22933771.7194                   22933771.5274
 -10323762.32448  -8029923.03546  21819371.5394                   21819369.0744
  -3516781.37148  -2721157.10246  20966587.1334                   20966584.8794
 -12337473.87148  -9605535.93446  20517700.6724                   20517695.8324
  -8170268.83647  -6351607.30545  22620731.2974                   22620730.6094
  14192541.12947  11063917.43045  22634374.2814                   22634371.7074
 11  8 16  0 16 30.0000000  0  7G10G09G12G04G02G05G17
 -12059381.97748  -9293832.42646  20867989.4534                   20867987.1374
   3681084.99647   2928342.35944  22954391.2194                   22954391.1174
 -10359693.82848  -8057921.58246  21812534.0864                   21812531.5314
  -3408335.15248  -2636653.56246  20987223.4224                   20987221.4024
 -12311472.26248  -9585274.91846  20522648.5864                   20522643.5164
  -8231073.50047  -6398987.44145  22609160.3284                   22609159.8284
  14278938.21147  11131239.80545  22650814.4144                   22650812.9964
 11  8 16  0 17  0.0000000  0  7G10G09G12G04G02G05G17
 -12045907.19048  -9283332.56146  20870553.6954                   20870551.2734
   3789807.50847   3013061.10544  22975080.8674                   22975080.4064
 -10395235.74748  -8085616.56546  21805771.0234                   21805767.9844
  -3299597.75848  -2551923.13646  21007915.7034                   21007913.6054
 -12285076.09448  -9564706.46146  20527671.5004                   20527666.8794
  -8291637.58747  -6446180.11345  22597635.1174                   22597634.3524
  14365527.64147  11198712.07945  22667292.5234                   22667290.1914
 11  8 16  0 17 30.0000000  0  7G10G09G12G04G02G05G17
 -12031779.86348  -9272324.22346  20873241.8754                   20873239.3284
   3898889.82847   3098060.23444  22995838.3594                   22995838.3484
 -10430389.39548  -8113008.98046  21799081.3364                   21799078.7544
  -3190575.60248  -2466970.81246  21028661.9534                   21028659.6294
 -12258290.23048  -9543834.34046  20532768.4454                   20532764.0124
  -8351961.94547  -6493185.98445  22586155.7734                   22586154.7504
  14452306.30947  11266331.80945  22683804.9144                   22683803.3284
 11  8 16  0 18  0.0000000  0  7G10G09G12G04G02G05G17
 -12016996.07048  -9260804.35246  20876055.1954                   20876052.6484
   4008330.83647   3183338.85544  23016664.4924                   23016664.4104
 -10465149.65248  -8140094.86746  21792466.9224                   21792463.7074
  -3081268.49648  -2381796.46146  21049462.4774                   21049459.8984
 -12231112.87148  -9522657.16046  20537940.5084                   20537935.7384
  -8412041.54347  -6540001.12145  22574722.8364                   22574722.1484
  14539276.96547  11334101.12545  22700355.9384                   22700353.7114
 11  8 16  0 18 30.0000000  0  7G10G09G12G04G02G05G17
 -12001542.19148  -9248762.34846  20878995.2974                   20878993.1024
   4118139.89847   3268904.27044  23037560.1414                   23037560.1564
 -10499502.17248  -8166863.03546  21785929.6414                   21785926.5474
  -2971666.03148  -2296391.94946  21070318.8364                   21070316.6954
 -12203532.85548  -9501166.22346  20543188.7894                   20543183.6174
  -8471860.58647  -6586613.23045  22563339.4454                   22563339.3714
  14626452.72347  11402030.26645  22716944.6254                   22716942.4184
 11  8 16  0 19  0.0000000  0  7G10G09G12G04G02G05G17
 -11985427.21148  -9236205.18746  20882062.7274                   20882060.0044
   4228302.78147   3354745.41844  23058523.5634                   23058523.5904
 -10533454.40247  -8193319.27746  21779468.7424                   21779465.9304
  -2861781.31248  -2210767.50846  21091229.6484                   21091226.9734
 -12175561.43048  -9479370.27746  20548511.6954                   20548506.4804
  -8531426.77047  -6633028.31245  22552004.5864                   22552003.6804
  14713823.49247  11470111.37545  22733570.6724                   22733568.3554
 11  8 16  0 19 30.0000000  0  7G10G09G12G04G02G05G17
 -11968651.44948  -9223133.13346  20885254.5004                   20885252.2074
   4338814.65247   3440858.50444  23079553.0634                   23079553.1564
 -10567005.12948  -8219462.66846  21773084.5084                   21773081.2734
  -2751618.07048  -2124926.03546  21112192.7344                   21112190.4454
 -12147201.24248  -9457271.41046  20553908.4454                   20553903.2664
  -8590738.53147  -6679245.14545  22540717.8524                   22540717.4064
  14801388.50047  11538343.80945  22750234.5084                   22750231.9494
 11  8 16  0 20  0.0000000  0  7G10G09G12G04G02G05G17
 -11951214.51248  -9209545.87946  20888572.9614                   20888570.2774
   4449670.98447   3527239.99245  23100648.8134                   23100648.6954
 -10600153.57448  -8245292.59046  21766775.8594                   21766772.9574
  -2641179.78148  -2038870.23846  21133208.4694                   21133206.1054
 -12118453.65248  -9434870.66846  20559378.9064                   20559373.9144
  -8649794.55147  -6725262.69945  22529479.9304                   22529478.9574
  14889147.26247  11606727.25045  22766933.8204                   22766931.1254
 11  8 16  0 20 30.0000000  0  7G10G09G12G04G02G05G17
 -11933112.68748  -9195440.53946  20892017.2734                   20892015.3204
   4560870.88747   3613889.20344  23121809.6954                   23121809.7424
 -10632894.32447  -8270804.81646  21760546.0004                   21760543.4344
  -2530466.17248  -1952599.91046  21154276.6024                   21154274.3594
 -12089317.76648  -9412167.35946  20564923.1564                   20564918.2974
  -8708588.86347  -6771076.33645  22518291.3444                   22518290.1604
  14977103.12547  11675264.24645  22783671.6094                   22783668.8594
 11  8 16  0 21  0.0000000  0  7G10G09G12G04G02G05G17
 -11914341.35548  -9180813.50046  20895589.5634                   20895587.3554
   4672414.49247   3700806.21944  23143035.0784                   23143035.6524
 -10665221.51647  -8295994.81246  21754394.2424                   21754391.2274
  -2419476.08248  -1866114.14146  21175397.2894                   21175395.2074
 -12059791.05948  -9389159.52346  20570541.9384                   20570536.7934
  -8767115.32847  -6816681.25045  22507153.9774                   22507153.3014
  15065259.63747  11743957.58645  22800446.8834                   22800444.9104
 11  8 16  0 21 30.0000000  0  7G10G09G12G04G02G05G17
 -11894902.02348  -9165665.95346  20899288.7814                   20899286.3634
   4784295.69547   3787986.32044  23164325.9384                   23164325.8874
 -10697135.51648  -8320862.82446  21748320.6644                   21748318.4924
  -2308214.57448  -1779416.87146  21196569.6024                   21196567.0944
 -12029877.01248  -9365849.85546  20576234.1644                   20576229.2584
  -8825373.09447  -6862076.78545  22496068.3524                   22496067.3094
  15153614.53147  11812805.52745  22817260.5004                   22817258.4734
 11  8 16  0 22  0.0000000  0  7G10G09G12G04G02G05G17
 -11874797.62548  -9150000.15646  20903114.0164                   20903111.9344
   4896506.76247   3875423.45344  23185678.9384                   23185679.0124
 -10728637.81248  -8345410.02746  21742326.1564                   21742323.3014
  -2196688.04348  -1692513.09046  21217792.5634                   21217790.3914
 -11999580.84848  -9342242.43446  20581999.3054                   20581994.0704
  -8883364.14547  -6907264.49645  22485032.2274                   22485031.3134
  15242164.83447  11881805.72445  22834110.8754                   22834108.8164
 11  8 16  0 22 30.0000000  0  7G10G09G12G04G02G05G17
 -11854028.09448  -9133816.07046  20907066.7114                   20907064.5514
   5009043.52747   3963114.37144  23207094.1024                   23207094.1054
 -10759726.59848  -8369635.02346  21736410.4774                   21736407.3954
  -2084899.46148  -1605405.12146  21239065.3754                   21239063.3674
 -11968904.28548  -9318338.59846  20587837.0234                   20587831.9534
  -8941085.96947  -6952242.42245  22474048.1724                   22474047.0354
  15330910.28147  11950957.99645  22850998.6484                   22850996.1134
 11  8 16  0 23  0.0000000  0  7G10G09G12G04G02G05G17
 -11832584.46148  -9117106.72746  20911147.5084                   20911145.0634
   5121910.30547   4051062.45744  23228572.2424                   23228571.6914
 -10790391.69548  -8393529.87546  21730574.6024                   21730571.4024
  -1972843.28948  -1518088.65246  21260388.6564                   21260386.9024
 -11937840.49648  -9294133.03146  20593748.3054                   20593743.2114
  -8998527.84847  -6997002.21545  22463117.5864                   22463116.2734
  15419858.54747  12020268.29345  22867925.0084                   22867923.0004
 11  8 16  0 23 30.0000000  0  8G10G09G12G04G02G05G25G17
 -11810470.66448  -9099875.17246  20915355.0554                   20915352.8014
   5235098.64347   4139261.09344  23250111.1254                   23250111.3404
 -10820635.77347  -8417096.67246  21724819.4224                   21724816.1804
  -1860526.96948  -1430569.46146  21281761.7894                   21281759.1484
 -11906395.60548  -9269630.50446  20599731.9304                   20599726.8404
  -9055692.43747  -7041545.93445  22452239.0394                   22452238.0514
  -1700387.50056  -1311496.16453  24610392.2974                   24610392.1564
  15509005.32047  12089733.27345  22884889.2114                   22884886.7974
 11  8 16  0 24  0.0000000  0  8G10G09G12G04G02G05G25G17
 -11787690.80948  -9082124.60946  20919690.1094                   20919687.9774
   5348599.37147   4227703.16044  23271709.9694                   23271709.9024
 -10850461.70748  -8440337.62546  21719143.6564                   21719140.5784
  -1747958.39148  -1342853.69546  21303183.0314                   21303180.2584
 -11874576.09848  -9244836.06646  20605787.0864                   20605782.1094
  -9112581.88347  -7085875.25845  22441413.5784                   22441412.6724
  -1763291.18446  -1360512.04743  24598422.1484                   24598422.0944
  15598346.15647  12159349.48445  22901890.4144                   22901888.2274
 11  8 16  0 24 30.0000000  0  8G10G09G12G04G02G05G25G17
 -11764241.40648  -9063852.32046  20924152.0704                   20924149.8954
   5462412.21947   4316388.43444  23293367.2114                   23293366.9104
 -10879864.28947  -8463248.69946  21713548.3054                   21713545.6884
  -1635136.87548  -1254940.84046  21324652.1024                   21324649.8794
 -11842380.16448  -9219748.30546  20611913.8204                   20611908.4414
  -9169190.07047  -7129985.41845  22430641.3444                   22430640.1604
  -1826031.17646  -1409400.26243  24586481.7344                   24586484.3834
  15687883.85247  12229119.10245  22918929.0474                   22918926.5314
 11  8 16  0 25  0.0000000  0  8G10G09G12G04G02G05G25G17
 -11740120.19548  -9045056.55146  20928742.5084                   20928739.9774
   5576534.62147   4405314.90643  23315084.2734                   23315084.1374
 -10908839.91047  -8485827.08246  21708034.9064                   21708031.8714
  -1522063.49648  -1166831.72745  21346169.1644                   21346167.0354
 -11809807.72748  -9194367.16046  20618112.1724                   20618107.4184
  -9225513.14147  -7173873.39845  22419922.7274                   22419922.2704
  -1888603.73846  -1458158.00443  24574575.5784                   24574577.2304
  15777620.86347  12299044.02045  22936005.2504                   22936002.7504
 11  8 16  0 25 30.0000000  0  8G10G09G12G04G02G05G25G17
 -11715324.62948  -9025735.30546  20933461.1564                   20933458.7304
   5690965.09447   4494481.44943  23336859.1954                   23336859.3444
 -10937384.61748  -8508069.68746  21702603.0704                   21702599.5744
  -1408738.82848  -1078526.80546  21367734.5634                   21367732.4064
 -11776858.30948  -9168692.27346  20624381.9774                   20624377.3094
  -9281546.87947  -7217535.93745  22409260.0314                   22409259.3244
  -1951005.03147  -1506782.33243  24562701.3834                   24562702.5394
  15867558.75047  12369125.45345  22953119.0784                   22953117.5434
 11  8 16  0 26  0.0000000  0  8G10G09G12G04G02G05G25G17
 -11689854.82448  -9005888.68446  20938307.3914                   20938305.2234
   5805698.48046   4583884.05144  23358693.0864                   23358692.5474
 -10965496.99648  -8529975.41446  21697253.0944                   21697250.7274
  -1295166.61748   -990029.00046  21389346.7274                   21389344.2814
 -11743534.09848  -9142725.33646  20630723.1884                   20630718.3594
  -9337289.35947  -7260971.52745  22398652.6804                   22398651.7304
  -2013233.85547  -1555272.29344  24550859.1954                   24550860.8554
  15957696.82847  12439362.88345  22970272.7274                   22970270.4924
 11  8 16  0 26 30.0000000  0  8G10G09G12G04G02G05G25G17
 -11663699.72748  -8985508.07046  20943284.6174                   20943282.2774
   5920741.90247   4673528.19944  23380585.2894                   23380584.3984
 -10993164.19948  -8551534.26646  21691988.5314                   21691985.3444
  -1181338.40648   -901331.71945  21411007.1254                   21411004.8554
 -11709825.55948  -9116458.93046  20637137.8754                   20637133.1054
  -9392727.61347  -7304170.05545  22388102.9614                   22388102.4414
  -2075277.37946  -1603617.90643  24539052.9144                   24539053.2034
  16048046.00047  12509764.80545  22987465.2194                   22987463.2384
 11  8 16  0 27  0.0000000  0  8G10G09G12G04G02G05G25G17
 -11636858.35948  -8964592.69546  20948392.7344                   20948390.3444
   6036091.92647   4763411.27744  23402536.0084                   23402535.3984
 -11020383.77347  -8572744.30546  21686808.8134                   21686805.5664
  -1067256.53548   -812436.76245  21432716.1484                   21432714.5274
 -11675734.03548  -9089894.09446  20643625.2194                   20643620.9024
  -9447858.28547  -7347128.91045  22377612.2274                   22377611.2774
  -2137133.01247  -1651817.10543  24527282.1334                   24527282.8714
  16138607.20747  12580331.95745  23004698.4384                   23004696.9534
 11  8 16  0 27 30.0000000  0  8G10G09G12G04G02G05G25G17
 -11609328.10548  -8943140.52546  20953631.5704                   20953628.9414
   6151746.85247   4853531.95344  23424543.8674                   23424544.3874
 -11047151.85948  -8593602.52746  21681715.2424                   21681712.2154
   -952921.21548   -723344.32845  21454473.7894                   21454470.9924
 -11641258.52748  -9063030.04146  20650185.6954                   20650180.9804
  -9502676.53947  -7389844.31645  22367180.2504                   22367179.2624
  -2198796.60946  -1699866.58644  24515547.2814                   24515548.0004
  16229382.50447  12651065.92645  23021973.0784                   23021970.8794
 11  8 16  0 28  0.0000000  0  8G10G09G12G04G02G05G25G17
 -11581116.66848  -8921157.57846  20958999.3134                   20958996.8714
   6267694.98247   4943881.08144  23446607.9694                   23446608.3134
 -11073474.25848  -8614113.46946  21676706.0004                   21676702.7894
   -838343.21948   -634062.79346  21476277.1724                   21476274.9884
 -11606408.73048  -9035874.34046  20656817.2814                   20656812.6334
  -9557188.31647  -7432320.92645  22356806.6484                   22356805.5164
  -2260274.05146  -1747771.00544  24503849.2974                   24503850.0514
  16320364.02747  12721960.61345  23039285.8054                   23039284.1174
 11  8 16  0 28 30.0000000  0  8G10G09G12G04G02G05G25G17
 -11552226.94548  -8898646.08246  20964497.4534                   20964494.9024
   6383929.17246   5034453.10244  23468726.7734                   23468727.2034
 -11099351.87948  -8634277.82046  21671781.4064                   21671778.9694
   -723528.49248   -544596.78946  21498125.5474                   21498123.6054
 -11571189.41048  -9008430.69946  20663519.6414                   20663514.5704
  -9611394.12147  -7474559.10945  22346491.9694                   22346490.7274
  -2321566.60947  -1795531.32844  24492184.8914                   24492186.0474
  16411549.02347  12793013.83645  23056637.7194                   23056635.8094
 11  8 16  0 29  0.0000000  0  8G10G09G12G04G02G05G25G17
 -11522649.29448  -8875598.53646  20970125.5864                   20970123.7664
   6500454.23847   5125251.80144  23490900.9064                   23490901.3324
 -11124773.87247  -8654087.14746  21666943.8444                   21666941.0204
   -608470.52848   -454941.25045  21520020.4534                   21520018.1254
 -11535592.66248  -8980692.96546  20670293.5164                   20670288.4774
  -9665282.55147  -7516549.99045  22336237.2894                   22336235.9104
  -2382663.18746  -1843138.94144  24480558.6564                   24480560.5474
  16502946.33647  12864232.50445  23074029.8914                   23074028.0204
 11  8 16  0 29 30.0000000  0  8G10G09G12G04G02G05G25G17
 -11492388.62948  -8852018.77346  20975884.4534                   20975882.2544
   6617261.11347   5216270.05144  23513128.3284                   23513128.9844
 -11149743.57048  -8673544.02746  21662192.3284                   21662189.3244
   -493177.34448   -365102.42645  21541960.2344                   21541957.7664
 -11499625.73048  -8952666.77046  20677137.4534                   20677132.5664
  -9718856.24247  -7558295.62545  22326042.7344                   22326041.1174
  -2443567.12546  -1890596.47344  24468968.7814                   24468970.7074
  16594550.78947  12935612.59045  23091462.0004                   23091459.6524
 11  8 16  0 30  0.0000000  0  8G10G09G12G04G02G05G25G17
 -11461440.64148  -8827903.44546  20981773.8444                   20981771.0124
   6734350.12147   5307508.14144  23535409.7504                   23535410.2194
 -11174255.16048  -8692643.93746  21657527.7814                   21657524.9804
   -377647.36348   -275079.07445  21563944.9384                   21563942.8984
 -11463285.86748  -8924349.98046  20684052.6644                   20684048.1524
  -9772108.69547  -7599790.93745  22315908.8204                   22315907.5594
  -2504272.18446  -1937899.02743  24457417.1174                   24457418.6684
  16686366.59047  13007157.35245  23108933.8364                   23108932.1644
 11  8 16  0 30 30.0000000  0  8G10G09G12G04G02G05G25G17
 -11429817.53948  -8803262.03546  20987791.0944                   20987788.4844
   6851705.19546   5398953.59844  23557741.2664                   23557741.7734
 -11198318.98048  -8711394.94546  21652948.6094                   21652945.8484
   -261895.44148   -184882.78145  21585971.8284                   21585969.1644
 -11426586.60248  -8895753.14146  20691036.4384                   20691031.2504
  -9825049.65247  -7641043.52745  22305834.2974                   22305832.4144
  -2564788.71946  -1985054.69143  24445900.7894                   24445902.1954
  16778381.73047  13078857.44545  23126443.6174                   23126441.7584
 11  8 16  0 31  0.0000000  0  8G10G09G12G04G02G05G25G17
 -11397504.91848  -8778083.35546  20993940.1414                   20993937.4414
   6969336.43847   5490614.25044  23580126.1724                   23580126.2584
 -11221918.56648  -8729784.19946  21648457.5234                   21648454.8404
   -145910.00448    -94504.53545  21608042.6724                   21608040.5554
 -11389515.59448  -8866866.62946  20698091.1724                   20698085.7934
  -9877662.75047  -7682040.64845  22295822.6564                   22295821.1134
  -2625100.25246  -2032050.61943  24434424.5554                   24434425.2464
  16870610.40247  13150723.92645  23143994.2034                   23143992.0514
 11  8 16  0 31 30.0000000  0  8G10G09G12G04G02G05G25G17
 -11364503.41448  -8752367.86746  21000220.3524                   21000217.3874
   7087239.30146   5582486.56344  23602562.4614                   23602562.5634
 -11245052.71548  -8747810.76646  21644055.2814                   21644052.3364
    -29694.39548     -3946.93045  21630158.0164                   21630156.2304
 -11352074.99648  -8837692.11346  20705215.6484                   20705210.9024
  -9929946.13747  -7722780.85245  22285873.1884                   22285871.2304
  -2685205.68747  -2078886.00444  24422986.5704                   24422987.4264
  16963051.62947  13222756.03144  23161585.7274                   23161583.1684
 11  8 16  0 32  0.0000000  0  8G10G09G12G04G02G05G25G17
 -11330821.39548  -8726122.11346  21006629.2504                   21006627.2034
   7205401.24247   5674560.72744  23625047.8364                   23625048.0824
 -11267727.99648  -8765479.78946  21639740.3054                   21639737.2704
     86740.10948     86781.23045  21652314.7034                   21652312.6484
 -11314274.87548  -8808237.46146  20712408.6484                   20712403.6414
  -9981905.94947  -7763268.91445  22275984.9774                   22275983.6334
  -2745111.44547  -2125565.77044  24411586.7814                   24411588.6374
  17055697.26247  13294947.41844  23179215.4064                   23179212.9064
 11  8 16  0 32 30.0000000  0  8G10G09G12G04G02G05G25G17
 -11296450.53548  -8699339.60546  21013170.1804                   21013167.6644
   7323826.53146   5766840.10244  23647583.9384                   23647583.7234
 -11289934.59048  -8782783.60246  21635514.5234                   21635511.5554
    203399.32448    177684.49645  21674514.3524                   21674512.4384
 -11276108.89148  -8778497.71546  20719671.3524                   20719666.3484
 -10033531.32847  -7803496.37545  22266161.1564                   22266159.4104
  -2804807.27347  -2172081.94944  24400226.7274                   24400228.5314
  17148555.69947  13367304.62144  23196885.5234                   23196883.2544
 11  8 16  0 33  0.0000000  0  8G10G09G12G04G02G05G25G17
 -11261395.52748  -8672023.99246  21019840.6334                   21019838.5274
   7442506.37547   5859317.84444  23670167.4534                   23670167.9144
 -11311675.03148  -8799724.17246  21631377.2814                   21631374.6094
    320275.71548    268756.98845  21696754.8754                   21696753.0164
 -11237583.34848  -8748477.79346  20727002.4924                   20726997.3364
 -10084825.02747  -7843465.39846  22256400.5554                   22256398.9534
  -2864295.86347  -2218436.63344  24388906.9224                   24388908.4024
  17241622.08647  13439823.85945  23214595.5164                   23214593.7114
 11  8 16  0 33 30.0000000  0  8G10G09G12G04G02G05G25G17
 -11225652.02748  -8644171.89546  21026642.4224                   21026639.9104
   7561441.30547   5951994.34044  23692798.9534                   23692800.8444
 -11332943.46148  -8816296.94146  21627329.8984                   21627327.2074
    437370.99648    360000.04345  21719037.6334                   21719035.4534
 -11198695.53148  -8718175.58246  20734402.5784                   20734397.8984
 -10135780.14847  -7883170.58646  22246703.4774                   22246702.2234
  -2923571.03947  -2264625.02743  24377627.2894                   24377627.8324
  17334900.51247  13512508.33644  23232345.5314                   23232344.1954
 11  8 16  0 34  0.0000000  0  8G10G09G12G04G02G05G25G17
 -11189223.59848  -8615786.08246  21033574.5554                   21033572.2424
   7680623.91046   6044863.80944  23715479.7114                   23715481.1644
 -11353741.67248  -8832503.31646  21623372.5554                   21623369.3164
    554679.15648    451408.98045  21741360.4534                   21741358.5594
 -11159450.36748  -8687594.91446  20741870.7194                   20741865.7114
 -10186397.70347  -7922612.73046  22237071.2504                   22237070.1024
  -2982634.09447  -2310648.16443  24366388.2584                   24366388.2194
  17428387.68847  13585355.45744  23250135.5554                   23250134.0044
 11  8 16  0 34 30.0000000  0  8G10G09G12G04G02G05G25G17
 -11152106.17248  -8586863.38746  21040637.7584                   21040635.0084
   7800053.97746   6137926.09844  23738206.5394                   23738207.8874
 -11374063.46548  -8848338.46546  21619505.4454                   21619502.2704
    672201.52348    542984.83645  21763724.5864                   21763722.2774
 -11119845.27048  -8656733.77746  20749407.4534                   20749402.3284
 -10236671.42647  -7961786.95746  22227504.3134                   22227503.2234
  -3041478.87147  -2356501.20944  24355189.9144                   24355191.1024
  17522087.98447  13658368.65644  23267966.5864                   23267964.6054
 11  8 16  0 35  0.0000000  0  8G10G09G12G04G02G05G25G17
 -12689721.42247  -9785005.11746  20748039.3914                   20748036.8554
   6344309.12546   5003579.35944  23461187.6094                   23461188.3754
 -12969330.82448 -10091403.91446  21315935.9534                   21315932.9574
   -785483.03548   -592873.27745  21486336.5234                   21486333.8364
 -12655303.75048  -9853194.91846  20457219.6564                   20457214.7424
 -11862023.34447  -9228294.84046  21918210.0084                   21918208.9144
  -4675528.33647  -3629786.43744  24044240.6564                   24044241.5124
  16040581.60547  12503948.07844  22986045.0004                   22986043.1174
 11  8 16  0 35 30.0000000  0  8G10G09G12G04G02G05G25G17
 -12651228.77347  -9755010.82846  20755364.3914                   20755361.8324
   6464220.30547   5097016.59044  23484006.2584                   23484006.8754
 -12988697.24648 -10106494.60546  21312250.7114                   21312247.3674
   -667542.30148   -500971.42245  21508779.8594                   21508777.4454
 -12614987.05148  -9821779.28546  20464891.3284                   20464886.0434
 -11911604.85947  -9266929.69146  21908775.1024                   21908773.7664
  -4733933.33646  -3675296.72344  24033127.0474                   24033127.7464
  16134705.09447  12577291.04344  23003956.4144                   23003954.4574
 11  8 16  0 36  0.0000000  0  8G10G09G12G04G02G05G25G17
 -12612050.51247  -9724482.28946  20762819.6724                   20762817.1374
   6584364.08647   5190635.05144  23506868.7114                   23506869.4454
 -13007584.71948 -10121212.10246  21308656.9144                   21308653.4064
   -549398.10248   -408911.02745  21531261.6564                   21531259.5594
 -12574318.61748  -9790089.57446  20472630.1564                   20472625.2274
 -11960838.25847  -9305293.27346  21899406.0634                   21899404.5434
  -4792117.14546  -3720634.66844  24022053.9454                   24022055.0474
  16229038.66447  12650797.69144  23021907.6024                   23021905.5784
 11  8 16  0 36 30.0000000  0  8G10G09G12G04G02G05G25G17
 -12572185.61347  -9693418.70746  20770405.1484                   20770403.1724
   6704738.01646   5284432.83644  23529774.9144                   23529775.6094
 -13025990.17248 -10135554.00046  21305154.5554                   21305150.8484
   -431051.65248   -316693.03545  21553782.1484                   21553780.2974
 -12533298.50048  -9758125.84046  20480436.0314                   20480430.7384
 -12009720.11747  -9343382.93746  21890104.6414                   21890102.7304
  -4850076.26646  -3765797.53144  24011024.7504                   24011025.7664
  16323583.57447  12724469.02344  23039898.6724                   23039897.0904
 11  8 16  0 37  0.0000000  0  8G10G09G12G04G02G05G25G17
 -12531630.75048  -9661817.48446  20778122.5864                   20778120.2034
   6825341.71147   5378409.69544  23552726.2424                   23552726.5864
 -13043908.73048 -10149516.49246  21301744.6334                   21301741.1644
   -312502.14548   -224316.82045  21576341.6884                   21576339.3794
 -12491925.32048  -9725886.98846  20488308.9144                   20488303.7774
 -12058244.51247  -9381194.05946  21880870.4384                   21880868.7464
  -4907805.33247  -3810781.14544  24000039.2344                   24000039.7934
  16418343.00447  12798307.53145  23057930.9454                   23057928.7034
 11  8 16  0 37 30.0000000  0  8G10G09G12G04G02G05G25G17
 -12490389.84848  -9629681.68746  20785970.6024                   20785968.3164
   6946167.37147   5472559.48444  23575718.0864                   23575718.4964
 -13061342.11348 -10163100.93446  21298426.8204                   21298423.8874
   -193755.84448   -131787.24645  21598938.3754                   21598936.3914
 -12450204.22748  -9693377.01246  20496248.3284                   20496243.5634
 -12106412.82447  -9418727.71546  21871704.4924                   21871702.4104
  -4965305.98447  -3855586.79344  23989097.4064                   23989098.2974
  16513313.39147  12872310.41445  23076002.8134                   23076001.1294
 11  8 16  0 38  0.0000000  0  8G10G09G12G04G02G05G25G17
 -12448459.83248  -9597008.93446  20793949.3524                   20793947.2894
   7067214.46947   5566881.82843  23598752.4224                   23598752.8714
 -13078285.05548 -10176303.21146  21295202.7814                   21295199.6604
    -74811.94948    -39103.71145  21621572.8834                   21621570.5634
 -12408133.29348  -9660594.46146  20504254.2194                   20504248.6724
 -12154219.20748  -9455979.35246  21862606.8524                   21862605.2934
  -5022572.72746  -3900210.18444  23978199.9454                   23978200.4924
  16608498.60247  12946480.67245  23094116.2894                   23094114.3324
 11  8 16  0 38 30.0000000  0  8G10G09G12G04G02G05G25G17
 -12405844.26648  -9563801.95346  20802059.0084                   20802056.5744
   7188475.52747   5661370.88744  23621827.3524                   23621828.9024
 -13094739.20348 -10189124.61346  21292071.5474                   21292068.8444
     44323.91448     53729.41045  21644243.0394                   21644241.3834
 -12365717.99648  -9627543.55946  20512325.4224                   20512320.4414
 -12201664.96947  -9492949.98846  21853578.3674                   21853576.4304
  -5079606.86346  -3944652.27044  23967345.4454                   23967347.8094
  16703894.83247  13020815.39845  23112269.8134                   23112267.5354
 11  8 16  0 39  0.0000000  0  8G10G09G12G04G02G05G25G17
 -12362544.23448  -9530061.65646  20810298.7974                   20810296.0474
   7309946.11347   5756023.21943  23644943.1174                   23644944.0044
 -13110703.67548 -10201564.44246  21289033.9844                   21289030.7934
    163648.43448    146709.54245  21666950.1954                   21666948.0124
 -12322960.68448  -9594226.17146  20520461.7974                   20520456.9304
 -12248748.37847  -9529638.26646  21844618.5314                   21844616.7074
  -5136406.92647  -3988911.99744  23956538.1254                   23956538.8404
  16799501.40647  13095313.99645  23130463.0634                   23130461.4734
 11  8 16  0 39 30.0000000  0  8G10G09G12G04G02G05G25G17
 -12318561.30148  -9495789.21146  20818668.3054                   20818665.6764
   7431621.23047   5850834.87144  23668097.8054                   23668098.1334
 -13126177.50448 -10213621.94146  21286089.1414                   21286085.6644
    283158.00448    239833.86745  21689691.8444                   21689690.1724
 -12279863.85948  -9560644.21546  20528663.0394                   20528657.8054
 -12295468.03147  -9566043.10246  21835727.9844                   21835726.5824
  -5192971.81647  -4032988.50444  23945773.2894                   23945774.8054
  16895317.44547  13169975.84044  23148696.0634                   23148694.4064
 11  8 16  0 40  0.0000000  0  8G10G09G12G04G02G05G25G17
 -12273890.36748  -9460980.66446  20827169.0864                   20827166.8834
   7553501.92647   5945806.76244  23691290.1024                   23691291.0314
 -13141154.12548 -10225292.01646  21283238.8054                   21283236.0784
    402855.07048    333104.29345  21712469.5634                   21712467.8594
 -12236424.00448  -9526794.96146  20536929.1254                   20536924.6524
 -12341816.65647  -9602158.82446  21826908.3444                   21826906.2814
  -5249294.62547  -4076876.37544  23935055.9774                   23935056.5084
  16991347.67247  13244804.59444  23166969.9774                   23166968.1954
 11  8 16  0 40 30.0000000  0  8G10G09G12G04G02G05G25G17
 -12228537.48848  -9425640.73846  20835799.4454                   20835797.0434
   7675579.11346   6040931.73044  23714521.5084                   23714521.8204
 -13155637.13348 -10236577.46546  21280482.8914                   21280480.1724
    522731.87147    426514.77045  21735281.6414                   21735279.3524
 -12192648.11348  -9492683.87546  20545259.6414                   20545254.9614
 -12387797.28147  -9637987.80146  21818158.0234                   21818156.4344
  -5305378.52747  -4120578.09844  23924383.7504                   23924384.0044
  17087587.10547  13319796.35944  23185283.6024                   23185282.3984
 11  8 16  0 41  0.0000000  0  8G10G09G12G04G02G05G25G17
 -12182493.47347  -9389762.25046  20844560.7274                   20844558.5594
   7797858.24646   6136214.09044  23737790.4144                   23737790.6994
 -13169615.04348 -10247469.31646  21277822.9844                   21277819.8594
    642795.52748    520070.85245  21758128.7504                   21758126.7304
 -12148528.66448  -9458305.06646  20553655.4454                   20553649.8204
 -12433397.91047  -9673520.66046  21809480.7664                   21809479.0314
  -5361211.80147  -4164084.52344  23913758.5004                   23913759.6914
  17184045.30347  13394958.56844  23203638.8984                   23203637.6134
 11  8 16  0 41 30.0000000  0  8G10G09G12G04G02G05G25G17
 -12135756.14848  -9353343.53946  20853455.1884                   20853452.3444
   7920337.78146   6231652.60944  23761096.9694                   23761098.3984
 -13183083.91347 -10257964.52146  21275259.7734                   21275257.0394
    763046.13248    613772.59645  21781011.3674                   21781010.2034
 -12104064.89848  -9423657.97346  20562116.3834                   20562111.2894
 -12478613.78947  -9708753.71946  21800876.6564                   21800874.6644
  -5416789.99647  -4207392.16944  23903182.2194                   23903183.5594
  17280724.41347  13470292.92544  23222036.4454                   23222034.9064
 11  8 16  0 42  0.0000000  0  8G10G09G12G04G02G05G25G17
 -12088337.68748  -9316394.07446  20862478.4064                   20862475.7274
   8043002.34047   6327235.29344  23784439.5634                   23784439.8164
 -13196053.56648 -10268070.70746  21272792.1334                   21272789.0274
    883469.52048    707608.98445  21803927.1094                   21803925.2734
 -12059269.71948  -9388752.61746  20570640.5784                   20570635.5784
 -12523454.31247  -9743694.30546  21792343.2584                   21792341.2304
  -5472122.39847  -4250508.28144  23892653.3914                   23892654.5554
  17377613.03147  13545790.53544  23240474.2274                   23240471.7704
 11  8 16  0 42 30.0000000  0  8G10G09G12G04G02G05G25G17
 -12040232.47348  -9278909.48046  20871632.4844                   20871630.3244
   8165854.23446   6422963.94544  23807818.1804                   23807818.0554
 -13208515.88348 -10277781.58246  21270420.5084                   21270417.4494
   1004069.00848    801582.59445  21826876.7974                   21826874.6644
 -12014138.89848  -9353585.72346  20579228.7114                   20579223.3914
 -12567911.11347  -9778335.88346  21783883.4694                   21783881.5474
  -5527200.98047  -4293426.62144  23882172.2814                   23882172.8364
  17474716.96947  13621455.92244  23258951.5784                   23258950.6374
 11  8 16  0 43  0.0000000  0  8G10G09G12G04G02G05G25G17
 -11991441.80948  -9240890.76246  20880916.9844                   20880914.1604
   8288888.98446   6518835.10943  23831229.1414                   23831231.0984
 -13220470.37947 -10287096.73846  21268145.1954                   21268142.6524
   1124841.95748    895691.37145  21849859.0474                   21849857.0634
 -11968674.57448  -9318158.96946  20587880.0554                   20587875.0124
 -12611982.44147  -9812677.08246  21775497.0004                   21775494.7274
  -5582024.19147  -4336145.94544  23871739.2974                   23871740.1804
  17572035.92247  13697288.84444  23277471.6024                   23277469.6294
 11  8 16  0 43 30.0000000  0  8G10G09G12G04G02G05G25G17
 -11941965.09047  -9202337.46546  20890332.2114                   20890329.6374
   8412104.00846   6614846.72343  23854676.3524                   23854677.8134
 -13231913.82848 -10296013.68046  21265967.6644                   21265964.4614
   1245787.28948    989934.45745  21872873.9694                   21872872.4694
 -11922877.14848  -9282472.66046  20596595.4454                   20596589.6174
 -12655664.73047  -9846715.14546  21767184.4224                   21767182.0664
  -5636588.49247  -4378663.54344  23861356.9774                   23861356.8594
  17669571.25847  13773290.39844  23296031.9614                   23296029.7664
 11  8 16  0 44  0.0000000  0  8G10G09G12G04G02G05G25G17
 -11891808.91048  -9163254.71546  20899876.4534                   20899874.0744
   8535489.10046   6710990.86443  23878156.3834                   23878157.3444
 -13242850.77748 -10304535.95346  21263886.5634                   21263883.6564
   1366896.10248   1084304.93845  21895920.9534                   21895919.1024
 -11876754.71548  -9246533.08646  20605371.8754                   20605367.0744
 -12698962.14547  -9880453.30546  21758945.3284                   21758943.5354
  -5690898.12547  -4420982.68744  23851022.0704                   23851021.6994
  17767316.64847  13849455.61744  23314632.3524                   23314630.3984
 11  8 16  0 44 30.0000000  0  8G10G09G12G04G02G05G25G17
 -11840967.32848  -9123637.88346  20909551.4774                   20909548.6214
   8659047.14146   6807269.76644  23901668.5394                   23901670.3444
 -13253272.86348 -10312657.04746  21261903.4924                   21261900.1954
   1488172.85248   1178806.28145  21918998.8524                   21918997.2664
 -11830301.97748  -9210336.12946  20614211.6804                   20614206.7274
 -12741865.43448  -9913884.35946  21750780.7034                   21750778.7384
  -5744944.15247  -4463096.38744  23840736.7424                   23840737.2274
  17865278.54747  13925789.56344  23333273.5634                   23333271.9064
 11  8 16  0 45  0.0000000  0  8G10G09G12G04G02G05G25G17
 -11789437.23848  -9083484.56246  20919357.2344                   20919354.1954
   8782777.44547   6903682.89544  23925213.6884                   23925215.3404
 -13263174.75848 -10320372.77346  21260019.1564                   21260015.8914
   1609618.44548   1273439.18845  21942109.5164                   21942107.3484
 -11783517.03148  -9173880.30946  20623114.4844                   20623109.3134
 -12784368.77048  -9947003.75446  21742692.6254                   21742690.2074
  -5798720.98047  -4505000.34444  23830503.2584                   23830504.7154
  17963460.52047  14002294.96944  23351956.9534                   23351955.4964
 11  8 16  0 45 30.0000000  0  8G10G09G12G04G02G05G25G17
 -11737228.18748  -9042802.15646  20929292.0394                   20929289.7234
   8906668.14147   7000221.00844  23948790.0164                   23948791.2934
 -13272563.84048 -10327688.91846  21258232.4304                   21258229.1094
   1731222.13748   1368195.29745  21965249.7344                   21965247.6604
 -11736410.53948  -9137173.93446  20632078.5944                   20632073.3094
 -12826478.36748  -9979816.34046  21734679.2274                   21734676.9574
  -5852235.04347  -4546699.52344  23820319.3524                   23820320.8794
  18061854.65647  14078965.71144  23370681.2664                   23370678.5554
 11  8 16  0 46  0.0000000  0  8G10G09G12G04G02G05G25G17
 -11684335.12148  -9001586.77346  20939357.5314                   20939354.7774
   9030720.66847   7096885.24244  23972397.1884                   23972397.4884
 -13281432.68447 -10334599.68746  21256544.7424                   21256541.6174
   1852987.23447   1463077.16045  21988420.9224                   21988419.0864
 -11688978.66048  -9100214.01646  20641104.8984                   20641099.9494
 -12868186.73847 -10012316.28946  21726742.4924                   21726740.1804
  -5905478.53547  -4588187.90244  23810188.2114                   23810188.8714
  18160465.78147  14155805.55544  23389445.8444                   23389443.8134
 11  8 16  0 46 30.0000000  0  8G10G09G12G04G02G05G25G17
 -11630757.85248  -8959838.24246  20949552.7584                   20949550.5704
   9154932.02347   7193673.23844  23996033.5004                   23996034.1724
 -13289778.44148 -10341102.86346  21254956.7194                   21254953.5824
   1974912.08648   1558083.51645  22011622.5634                   22011620.6454
 -11641221.69148  -9063000.78546  20650192.2344                   20650187.9144
 -12909490.43448 -10044500.91046  21718882.6644                   21718880.6454
  -5958448.39547  -4629463.03944  23800108.4614                   23800108.7544
  18259294.90647  14232815.25044  23408252.2584                   23408250.3324
 11  8 16  0 47  0.0000000  0  8G10G09G12G04G02G05G25G17
 -11576493.32848  -8917554.18046  20959879.2974                   20959876.6174
   9279301.93047   7290584.76244  24019699.9064                   24019701.1134
 -13297596.48847 -10347194.82846  21253468.8594                   21253465.5864
   2096998.02348   1653215.39145  22034854.1954                   22034852.8754
 -11593137.85548  -9025532.85946  20659342.2664                   20659337.5124
 -12950383.74648 -10076365.75446  21711100.5004                   21711098.3634
  -6011138.87947  -4670520.49244  23790081.5554                   23790082.4654
  18358345.71147  14309997.68044  23427100.7894                   23427099.9224
 11  8 16  0 47 30.0000000  0  8G10G09G12G04G02G05G25G17
 -11521541.46148  -8874734.52046  20970336.3594                   20970333.6174
   9403827.84847   7387617.85944  24043396.6254                   24043397.8444
 -13304883.78148 -10352873.20746  21252081.9924                   21252079.0354
   2219244.01648   1748471.97745  22058117.2034                   22058115.1994
 -11544727.69548  -8987810.63346  20668554.3984                   20668549.6024
 -12990863.22748 -10107908.12946  21703397.8134                   21703395.6994
  -6063546.70747  -4711357.68444  23780108.4844                   23780109.1604
  18457619.35247  14387353.79344  23445992.7034                   23445990.4654
 11  8 16  0 48  0.0000000  0  8G10G09G12G04G02G05G25G17
 -11465909.40248  -8831384.84046  20980922.5164                   20980920.1134
   9528499.54746   7484764.54343  24067120.8674                   24067122.1644
 -13311645.28548 -10358141.90646  21250795.0084                   21250792.2114
   2341641.12948   1843846.31645  22081408.8054                   22081406.9144
 -11495999.52748  -8949840.62146  20677827.3134                   20677822.7814
 -13030933.28948 -10139131.48446  21695772.6954                   21695770.1134
  -6115676.20747  -4751978.01644  23770188.5004                   23770189.0124
  18557109.39547  14464878.49244  23464925.0634                   23464922.6024
 11  8 16  0 48 30.0000000  0  8G10G09G12G04G02G05G25G17
 -11409598.30948  -8787506.03946  20991638.1024                   20991635.8524
   9653312.81346   7582021.59043  24090872.2664                   24090872.4774
 -13317879.79348 -10362999.95346  21249608.7894                   21249605.9304
   2464186.87548   1939336.48845  22104728.2344                   22104726.9024
 -11446955.10548  -8911624.17246  20687160.1414                   20687154.8594
 -13070591.89148 -10170034.21946  21688225.8364                   21688223.8834
  -6167525.32447  -4792379.84444  23760321.9614                   23760322.0164
  18656815.55147  14542571.59844  23483898.0474                   23483896.6954
 11  8 16  0 49  0.0000000  0  8G10G09G12G04G02G05G25G17
 -11352607.72348  -8743097.78146  21002483.0004                   21002480.8054
   9778265.15247   7679387.01643  24114650.2424                   24114649.8524
 -13323584.19948 -10367444.92246  21248523.4924                   21248520.0824
   2586880.21948   2034941.66845  22128076.1644                   22128074.1024
 -11397594.84848  -8873161.61346  20696553.2274                   20696547.7734
 -13109835.43748 -10200613.53146  21680758.0394                   21680755.6604
  -6219090.72347  -4832560.60244  23750509.7664                   23750509.8364
  18756738.90247  14620433.98044  23502912.4064                   23502910.8134
 11  8 16  0 49 30.0000000  0  8G10G09G12G04G02G05G25G17
 -11294942.64848  -8698163.93046  21013456.1804                   21013453.6684
   9903348.72747   7776854.71143  24138453.1644                   24138452.5004
 -13328760.95348 -10371478.74646  21247538.4304                   21247535.5864
   2709714.68448   2130656.80545  22151451.0234                   22151448.8524
 -11347924.46548  -8834457.40646  20706005.2424                   20705999.8284
 -13148665.69148 -10230870.80146  21673369.0704                   21673366.3444
  -6270374.24247  -4872521.72344  23740750.1804                   23740750.9494
  18856875.64147  14698462.60544  23521968.8054                   23521966.7194
 11  8 16  0 50  0.0000000  0  8G10G09G12G04G02G05G25G17
 -11236592.03548  -8652695.90246  21024560.0474                   21024557.7624
  10028571.79347   7874431.07843  24162281.5944                   24162282.2624
 -13333396.44548 -10375090.80546  21246656.1414                   21246652.8244
   2832700.06648   2226489.54745  22174854.3674                   22174851.9574
 -11297933.71948  -8795503.55946  20715517.7424                   20715512.4844
 -13187068.46948 -10260794.97346  21666060.8364                   21666058.4064
  -6321361.66047  -4912252.12544  23731047.5394                   23731048.4384
  18957237.57447  14776666.72344  23541066.2504                   23541064.8914
 11  8 16  0 50 30.0000000  0  8G10G09G12G04G02G05G25G17
 -11177570.05548  -8606704.71946  21035791.2664                   21035788.5944
  10153917.14847   7972102.73443  24186134.5084                   24186135.4384
 -13337503.10248 -10378290.78146  21245874.9534                   21245871.4384
   2955820.86747   2322427.81345  22198283.2114                   22198281.4454
 -11247637.49648  -8756311.67246  20725088.9844                   20725083.7584
 -13225054.86348 -10290394.68046  21658832.1724                   21658829.8834
  -6372064.12947  -4951760.46944  23721398.9694                   23721400.1374
  19057811.27047  14855035.85244  23560205.2664                   23560203.3754
 11  8 16  0 51  0.0000000  0  8G10G09G12G04G02G05G25G17
 -11117869.23048  -8560184.57846  21047152.5474                   21047149.7814
  10279389.78147   8069873.54544  24210011.0314                   24210012.0864
 -13341070.33248 -10381070.42646  21245195.8674                   21245192.8484
   3079083.49247   2418476.59445  22221739.4064                   22221737.7704
 -11197028.96148  -8716876.43746  20734719.6564                   20734714.5124
 -13262613.96148 -10319661.43746  21651684.7734                   21651682.7814
  -6422470.79347  -4991038.33244  23711807.0234                   23711807.6094
  19158605.52947  14933576.84444  23579385.8674                   23579383.9144
 11  8 16  0 51 30.0000000  0  8G10G09G12G04G02G05G25G17
 -11057491.86348  -8513137.26246  21058641.5004                   21058639.4924
  10404984.48446   8167739.45744  24233911.2114                   24233912.2234
 -13344098.28948 -10383429.84846  21244619.7504                   21244616.4804
   3202484.35247   2514633.09045  22245221.4454                   22245219.8634
 -11146110.87148  -8677199.98846  20744408.7974                   20744403.3634
 -13299745.29747 -10348594.86746  21644618.9064                   21644617.1454
  -6472580.88747  -5030085.09844  23702271.0634                   23702272.2464
  19259618.70747  15012288.41444  23598607.7344                   23598606.3834
 11  8 16  0 52  0.0000000  0  8G10G09G12G04G02G05G25G17
 -10996438.03948  -8465562.83646  21070259.7274                   21070257.1414
  10530698.24646   8265698.15643  24257833.0394                   24257835.2704
 -13346584.31648 -10385366.99646  21244146.3594                   21244143.4534
   3326021.91447   2610896.10945  22268729.7034                   22268727.9024
 -11094884.45748  -8637283.29346  20754157.1024                   20754151.7074
 -13336445.44148 -10377192.30946  21637635.0234                   21637633.2854
  -6522391.43047  -5068898.45344  23692793.0554                   23692793.6214
  19360851.78146  15091171.32844  23617871.3284                   23617870.0984
 11  8 16  0 52 30.0000000  0  8G10G09G12G04G02G05G25G17
 -10934706.69148  -8417460.46946  21082007.0944                   21082004.5084
  10656529.48846   8363748.34843  24281778.0004                   24281780.3984
 -13348524.97748 -10386879.18746  21243777.5634                   21243774.3634
   3449696.17647   2707265.62945  22292264.6804                   22292263.0204
 -11043349.02048  -8597125.80146  20763963.7194                   20763958.6374
 -13372710.34848 -10405450.60546  21630734.2814                   21630731.7344
  -6571897.97747  -5107474.94544  23683371.9304                   23683372.1334
  19462306.75046  15170227.14144  23637177.9064                   23637176.2114
 11  8 16  0 53  0.0000000  0  8G10G09G12G04G02G05G25G17
 -10872301.64848  -8368833.15246  21093882.0394                   21093879.5514
  10782471.39846   8461884.78543  24305743.7034                   24305746.0124
 -13349921.94948 -10387967.71146  21243511.4144                   21243508.4384
   3573501.93447   2803737.63345  22315824.1254                   22315822.7584
 -10991509.15248  -8556731.07846  20773828.0634                   20773823.7424
 -13408541.04748 -10433370.55946  21623915.7344                   21623913.4574
  -6621101.36747  -5145815.20744  23674008.9844                   23674008.8094
  19563980.66047  15249453.55944  23656525.8444                   23656524.5984
 11  8 16  0 53 30.0000000  0  8G10G09G12G04G02G05G25G17
 -12384639.32448  -9547278.07446  20806093.7194                   20806091.2154
   9333107.61346   7332510.24643  24029939.8054                   24029941.1884
 -14926190.71548 -11616229.06646  20943557.5634                   20943554.3674
   2122024.17247   1672715.98445  22039617.2664                   22039615.4534
 -12514781.99248  -9743696.92246  20483959.0944                   20483954.3594
 -15019353.30548 -11688548.87146  21317388.3674                   21317385.8524
  -8245418.05947  -6411516.50044  23364912.1024                   23364912.0634
  18090459.73447  14101255.42244  23376124.2424                   23376122.6094
 11  8 16  0 54  0.0000000  0  8G10G09G12G04G02G05G25G17
 -12320883.55448  -9497598.24146  20818226.3204                   20818223.2704
   9459267.39546   7430816.48043  24053946.8834                   24053948.4344
 -14926488.28748 -11616460.92446  20943500.5084                   20943497.6644
   2246093.75247   1769393.54345  22063226.9694                   22063225.2974
 -12462330.99648  -9702826.00546  20493940.6484                   20493935.3404
 -15054301.08748 -11715780.84246  21310738.0314                   21310735.6914
  -8294000.96247  -6449373.26144  23355666.0234                   23355666.6054
  18192578.91747  14180828.80544  23395556.7734                   23395555.4414
 11  8 16  0 54 30.0000000  0  8G10G09G12G04G02G05G25G17
 -12256456.45348  -9447395.28546  20830486.5784                   20830483.4964
   9585528.03346   7529201.28344  24077973.6484                   24077975.7774
 -14926236.25848 -11616264.52046  20943548.8524                   20943545.5084
   2370289.88347   1866169.73045  22086860.6724                   22086858.5394
 -12409579.40248  -9661720.86346  20503978.3134                   20503973.7274
 -15088806.78948 -11742668.34046  21304171.7584                   21304169.2734
  -8342272.89547  -6486987.70344  23346480.3524                   23346481.6334
  18294917.97747  14260573.52044  23415031.1414                   23415030.3324
 11  8 16  0 55  0.0000000  0  8G10G09G12G04G02G05G25G17
 -12191357.56648  -9396668.87146  20842873.8834                   20842871.5434
   9711887.32847   7627662.96144  24102019.4924                   24102020.9384
 -14925431.90248 -11615637.73046  20943702.0394                   20943698.8204
   2494611.74647   1963043.89845  22110518.1564                   22110516.4184
 -12356527.33248  -9620381.57446  20514074.2504                   20514069.0594
 -15122866.50048 -11769208.31646  21297690.2194                   21297687.7854
  -8390229.85247  -6524356.72744  23337354.7584                   23337355.0314
  18397478.37147  14340490.68044  23434548.3914                   23434546.3094
 11  8 16  0 55 30.0000000  0  8G10G09G12G04G02G05G25G17
 -12125585.56248  -9345417.94946  20855389.9614                   20855387.7704
   9838343.89247   7726200.45044  24126083.5944                   24126084.9964
 -14924071.44148 -11614577.61346  20943960.4694                   20943957.0274
   2619059.63347   2060016.25845  22134200.0234                   22134198.0664
 -12303174.05548  -9578807.58246  20524226.7894                   20524221.5474
 -15156475.84048 -11795397.34846  21291294.3914                   21291292.2464
  -8437867.25047  -6561476.74244  23328288.8204                   23328290.0004
  18500262.98847  14420582.56644  23454107.3594                   23454105.0944
 11  8 16  0 56  0.0000000  0  8G10G09G12G04G02G05G25G17
 -12059141.91048  -9293643.65646  20868033.7664                   20868031.2934
   9964894.00447   7824810.82444  24150165.6884                   24150166.0744
 -14922153.73448 -11613083.27046  20944325.8594                   20944322.4534
   2743631.16047   2157084.95745  22157904.8674                   22157903.5314
 -12249521.41448  -9537000.31646  20534436.7814                   20534431.8204
 -15189632.96948 -11821234.00846  21284984.9454                   21284982.2854
  -8485183.03547  -6598346.13744  23319285.7664                   23319286.1334
  18603271.46947  14500848.89144  23473709.3524                   23473707.0044
 11  8 16  0 56 30.0000000  0  8G10G09G12G04G02G05G25G17
 -11992027.84048  -9241346.97346  20880805.7274                   20880802.9184
  10091534.48047   7923491.61344  24174264.2424                   24174265.1524
 -14919676.61348 -11611153.02346  20944797.1414                   20944793.9344
   2868324.68747   2254248.73045  22181633.2974                   22181632.1294
 -12195570.44548  -9494960.59046  20544703.3284                   20544698.1294
 -15222334.98048 -11846716.04346  21278761.5234                   21278759.4064
  -8532174.51247  -6634962.82045  23310343.3984                   23310344.2504
  18706503.94547  14581289.76644  23493353.4844                   23493351.7384
 11  8 16  0 57  0.0000000  0  8G10G09G12G04G02G05G25G17
 -11924244.54748  -9188528.80946  20893704.1804                   20893701.7504
  10218261.27046   8022239.69544  24198379.3134                   24198381.0784
 -14916638.82848 -11608785.89846  20945375.1564                   20945371.8914
   2993138.18747   2351505.98845  22205384.7504                   22205382.8554
 -12141323.22748  -9452690.02346  20555025.8594                   20555020.9344
 -15254580.31648 -11871842.20746  21272625.9844                   21272623.3554
  -8578839.85247  -6671325.34844  23301463.1564                   23301463.7034
  18809960.32047  14661905.11344  23513040.3834                   23513039.1334
 11  8 16  0 57 30.0000000  0  8G10G09G12G04G02G05G25G17
 -11855789.38748  -9135187.11346  20906730.2194                   20906727.8714
  10345074.98446   8121055.45744  24222511.1024                   24222512.9844
 -14913036.15248 -11605978.59846  20946060.4844                   20946057.5704
   3118073.21547   2448857.94545  22229159.0554                   22229157.2814
 -12086777.30148  -9410186.69946  20565405.5084                   20565400.7664
 -15286362.79748 -11896607.70746  21266577.6024                   21266575.3714
  -8625172.67247  -6707428.75844  23292646.7034                   23292646.8794
  18913644.19546  14742697.69544  23532770.5784                   23532769.4264
 11  8 16  0 58  0.0000000  0  8G10G09G12G04G02G05G25G17
 -11786671.14548  -9081328.72746  20919883.4534                   20919880.7344
  10471964.12146   8219930.00443  24246658.0474                   24246659.2934
 -14908874.27048 -11602735.53546  20946852.6954                   20946848.8954
   3243120.30947   2546297.23045  22252954.8524                   22252952.8284
 -12031941.89148  -9367457.79746  20575840.4064                   20575835.4694
 -15317687.80548 -11921016.73446  21260616.6334                   21260614.1524
  -8671178.29747  -6743277.23844  23283892.0084                   23283892.1564
  19017548.23846  14823661.85944  23552542.7194                   23552541.4804
 11  8 16  0 58 30.0000000  0  8G10G09G12G04G02G05G25G17
 -11716877.43448  -9026944.00446  20933164.8594                   20933162.1134
  10598938.75846   8318871.14843  24270820.5784                   24270821.6484
 -14904137.87148 -11599044.81646  20947754.0084                   20947750.5594
   3368291.04747   2643832.87545  22276773.6804                   22276771.9534
 -11976804.77348  -9324493.80546  20586332.7274                   20586327.7814
 -15348539.89848 -11945057.27346  21254745.5164                   21254743.3054
  -8716840.93747  -6778858.48444  23275202.1334                   23275202.2664
  19121686.10946  14904808.25044  23572360.1334                   23572358.9774
 11  8 16  0 59  0.0000000  0  8G10G09G12G04G02G05G25G17
 -11646419.25848  -8972041.51646  20946572.2344                   20946569.6884
  10725986.05546   8417868.92643  24294996.7424                   24294998.5044
 -14898834.95348 -11594912.65246  20948762.9774                   20948759.6024
   3493573.95747   2741455.92245  22300614.3444                   22300612.4454
 -11921377.16848  -9281303.46546  20596880.2194                   20596875.1954
 -15378926.21948 -11968734.85946  21248963.4454                   21248960.6764
  -8762167.66847  -6814177.95345  23266576.8364                   23266577.4734
  19226048.18447  14986129.32044  23592220.2344                   23592217.8284
 11  8 16  0 59 30.0000000  0  8G10G09G12G04G02G05G25G17
 -11575299.94948  -8916623.85246  20960105.7034                   20960103.1994
  10853100.01546   8516918.66943  24319185.0164                   24319187.5474
 -14892966.66448 -11590339.94146  20949879.7424                   20949876.0554
   3618964.91447   2839163.16445  22324475.4384                   22324473.7504
 -11865662.82848  -9237889.68046  20607482.6724                   20607477.6414
 -15408847.00048 -11992049.68046  21243269.5164                   21243266.8444
  -8807158.32047  -6849235.53145  23258015.5784                   23258015.9774
  19330632.52047  15067623.58644  23612121.4224                   23612120.2814
 11  8 16  1  0  0.0000000  0  8G10G09G12G04G02G05G25G17
 -11503513.79748  -8860686.57846  20973766.1484                   20973763.5354
  10980284.34446   8616023.19543  24343388.4774                   24343389.5664
 -14886524.98448 -11585320.43046  20951105.5234                   20951102.1214
   3744469.21547   2936958.73445  22348358.1644                   22348356.4104
 -11809656.33648  -9194248.25446  20618140.0004                   20618134.8134
 -15438292.97348 -12014994.53146  21237666.2114                   21237663.7854
  -8851803.63747  -6884024.05144  23249519.3524                   23249520.0944
  19435445.86747  15149296.31344  23632067.2734                   23632065.0904
 11  8 16  1  0 30.0000000  0  8G10G09G12G04G02G05G25G17
 -11431067.71147  -8804235.06646  20987551.9454                   20987549.5164
  11107529.83246   8715175.40643  24367602.8834                   24367604.2774
 -14879513.82848 -11579857.16446  20952439.6024                   20952436.2814
   3870079.15647   3034836.61345  22372260.5784                   22372259.3404
 -11753364.48048  -9150384.46546  20628852.1644                   20628847.0434
 -15467267.37148 -12037571.92246  21232152.1884                   21232150.3554
  -8896106.80547  -6918545.94544  23241088.7814                   23241089.2504
  19540482.71146  15231143.20344  23652054.3754                   23652052.6134
 11  8 16  1  1  0.0000000  0  8G10G09G12G04G02G05G25G17
 -11357959.39548  -8747267.52746  21001464.8284                   21001462.2304
  11234836.89147   8814375.59843  24391828.1414                   24391830.0634
 -14871927.71148 -11573945.88746  20953883.2504                   20953879.9264
   3995796.83247   3132798.43445  22396184.7974                   22396182.8324
 -11696785.30148  -9106296.77746  20639618.6094                   20639613.7974
 -15495764.71148 -12059777.58246  21226729.2274                   21226726.7664
  -8940061.53947  -6952796.35244  23232724.8364                   23232724.6214
  19645747.03546  15313167.33244  23672084.7344                   23672083.5164
 11  8 16  1  1 30.0000000  0  8G10G09G12G04G02G05G25G17
 -11284190.75848  -8689785.45345  21015502.2274                   21015499.2464
  11362201.52746   8913620.66843  24416065.1414                   24416066.8204
 -14863766.28148 -11567586.30946  20955436.2584                   20955432.9184
   4121619.77747   3230842.30145  22420127.7814                   22420126.1054
 -11639920.94948  -9061986.88346  20650439.5944                   20650434.6804
 -15523782.90248 -12081609.87546  21221397.9224                   21221395.3594
  -8983666.13747  -6986773.94544  23224426.7114                   23224426.6804
  19751238.33246  15395368.35244  23692160.6174                   23692157.9884
 11  8 16  1  2  0.0000000  0  8G10G09G12G04G02G05G25G17
 -11209758.77748  -8631786.48846  21029666.1884                   21029663.4844
  11489624.70346   9012911.32443  24440313.2274                   24440314.1094
 -14855023.75048 -11560773.93046  20957100.0704                   20957096.6724
   4247550.52347   3328970.17245  22444091.1724                   22444089.6174
 -11582768.27748  -9017452.32846  20661315.1094                   20661310.8714
 -15551315.68048 -12103063.93446  21216158.2584                   21216155.9144
  -9026913.89847  -7020473.44544  23216196.7504                   23216197.3754
  19856961.07847  15477749.70744  23712279.1724                   23712276.8014
 11  8 16  1  2 30.0000000  0  8G10G09G12G04G02G05G25G17
 -11134672.96148  -8573278.03546  21043954.6564                   21043951.7974
  11617094.81646   9112238.62143  24464569.5634                   24464570.8444
 -14845706.87948 -11553514.00846  20958872.7664                   20958869.4804
   4373578.99247   3427174.17245  22468073.7424                   22468071.8284
 -11525336.93048  -8972700.61746  20672244.3134                   20672239.2154
 -15578369.18448 -12124144.52346  21211010.2974                   21211007.9104
  -9069810.56247  -7053899.37944  23208034.2504                   23208034.7704
  19962906.86347  15560304.85244  23732439.6174                   23732437.5904
 11  8 16  1  3  0.0000000  0  8G10G09G12G04G02G05G25G17
 -11058934.03448  -8514260.66745  21058366.7894                   21058363.8164
  11744608.98246   9211600.20743  24488835.9224                   24488836.9264
 -14835813.88448 -11545805.16346  20960755.0084                   20960751.9264
   4499704.17647   3525453.54445  22492075.0864                   22492073.3014
 -11467627.88548  -8927732.51546  20683225.8834                   20683221.1844
 -15604940.59848 -12144849.46146  21205953.6884                   21205951.1254
  -9112353.07447  -7087049.37145  23199938.7424                   23199939.0084
  20069076.53547  15643034.45744  23752643.0084                   23752641.2544
 11  8 16  1  3 30.0000000  0  8G10G09G12G04G02G05G25G17
 -10982546.12547  -8454737.60546  21072902.9064                   21072900.2974
  11872161.39846   9310991.55943  24513107.5944                   24513109.2974
 -14825345.75448 -11537648.17246  20962747.3054                   20962743.9734
   4625921.88747   3623805.00845  22516092.9844                   22516091.8594
 -11409644.89848  -8882550.95346  20694259.7424                   20694254.9414
 -15631030.36748 -12165179.09046  21200989.0004                   21200986.8134
  -9154541.55147  -7119923.46145  23191910.2274                   23191910.6564
  20175467.94947  15725936.86344  23772889.1414                   23772886.6724
 11  8 16  1  4  0.0000000  0  8G10G09G12G04G02G05G25G17
 -10905502.48048  -8394703.57446  21087564.1484                   21087561.3594
  11999756.65646   9410416.31343  24537388.6254                   24537390.6564
 -14814293.20348 -11529035.77046  20964850.5004                   20964847.5634
   4752238.37147   3722233.43745  22540130.5314                   22540129.0164
 -11351381.39148  -8837150.80946  20705346.9844                   20705341.9774
 -15656627.95348 -12185125.19946  21196118.0474                   21196115.4064
  -9196365.31647  -7152513.38745  23183951.1724                   23183952.1294
  20282089.06647  15809018.24644  23793177.6644                   23793175.9454
 11  8 16  1  4 30.0000000  0  8G10G09G12G04G02G05G25G17
 -10827812.54348  -8334165.94146  21102348.1564                   21102345.4924
  12127383.56646   9509865.75843  24561674.6724                   24561676.2384
 -14802662.56648 -11519972.92646  20967063.7664                   20967060.4224
   4878643.90247   3820731.24245  22564184.5314                   22564182.9574
 -11292846.62148  -8791539.30146  20716485.5084                   20716481.0594
 -15681739.53148 -12204692.59846  21191339.1484                   21191336.6294
  -9237830.07847  -7184823.55944  23176061.3444                   23176061.5124
  20388931.85546  15892272.38344  23813508.9224                   23813507.7424
 11  8 16  1  5  0.0000000  0  8G10G09G12G04G02G05G25G17
 -10749473.01248  -8273122.14146  21117254.9304                   21117252.6054
  12255043.68846   9609341.00444  24585968.2734                   24585969.6604
 -14790448.43448 -11510455.40646  20969388.0394                   20969384.7544
   5005141.64547   3919300.91045  22588255.9844                   22588254.3914
 -11234037.44148  -8745713.94946  20727676.5704                   20727671.5984
 -15706357.93448 -12223875.71546  21186654.2114                   21186652.1134
  -9278928.61347  -7216848.36345  23168240.2814                   23168240.4264
  20496001.17246  15975703.01243  23833883.6334                   23833881.6174
 11  8 16  1  5 30.0000000  0  8G10G09G12G04G02G05G25G17
 -10670484.48848  -8211572.62146  21132286.1094                   21132283.5434
  12382734.26647   9708840.02744  24610266.9224                   24610268.1914
 -14777648.62548 -11500481.51246  20971823.7344                   20971820.1684
   5131730.71147   4017941.73044  22612345.1644                   22612343.5474
 -11174954.44148  -8699675.23846  20738919.8914                   20738914.9494
 -15730480.65248 -12242672.58246  21182063.8914                   21182061.6884
  -9319657.74247  -7248585.31245  23160489.8054                   23160489.9344
  20603297.93846  16059310.89144  23854301.8674                   23854299.6994
 11  8 16  1  6  0.0000000  0  8G10G09G12G04G02G05G25G17
 -10590855.88348  -8149524.34046  21147439.2974                   21147436.6644
  12510444.77747   9808354.59844  24634569.2114                   24634571.4804
 -14764268.96548 -11490055.78946  20974369.6484                   20974366.6374
   5258402.10947   4116646.71544  22636450.0394                   22636448.3914
 -11115606.23448  -8653429.86746  20750213.5164                   20750208.2344
 -15754112.64848 -12261087.06246  21177566.6174                   21177564.5084
  -9360022.30147  -7280038.18045  23152808.1724                   23152808.7974
  20710814.79746  16143090.27744  23874761.4384                   23874759.4804
 11  8 16  1  6 30.0000000  0  8G10G09G12G04G02G05G25G17
 -10510583.87548  -8086974.71546  21162714.4614                   21162711.7584
  12638177.05947   9907886.08644  24658875.9844                   24658878.3674
 -14750303.44548 -11479173.55146  20977027.2034                   20977024.0474
   5385159.07447   4215418.36744  22660571.0944                   22660569.5004
 -11055989.43048  -8606975.19146  20761557.9304                   20761553.1214
 -15777247.02048 -12279113.78546  21173164.7664                   21173162.0314
  -9400014.98047  -7311201.25045  23145198.1174                   23145198.4804
  20818557.11346  16227045.35244  23895263.8444                   23895263.0394
 11  8 16  1  7  0.0000000  0  8G10G09G12G04G02G05G25G17
 -10429672.93348  -8023927.21845  21178111.3054                   21178108.6524
  12765924.74647  10007429.59844  24683185.1804                   24683187.9024
 -14735753.50648 -11467835.91546  20979796.0634                   20979792.6094
   5511997.16447   4314253.23445  22684707.4064                   22684705.9454
 -10996108.45348  -8560314.66846  20772953.1414                   20772948.1724
 -15799884.65648 -12296753.44146  21168856.7584                   21168853.9774
  -9439636.09447  -7342074.81245  23137658.1884                   23137658.6954
  20926521.83246  16311173.69044  23915808.7734                   23915807.7664
 11  8 16  1  7 30.0000000  0  8G10G09G12G04G02G05G25G17
 -10348123.39148  -7960382.10546  21193629.5704                   21193626.8794
  12893685.74647  10106983.49644  24707498.2664                   24707500.0704
 -14720617.01648 -11456041.22346  20982676.5314                   20982673.3284
   5638915.65247   4413150.75444  22708859.5864                   22708857.4224
 -10935963.29348  -8513448.28146  20784398.1724                   20784393.1134
 -15822022.48048 -12314003.64546  21164643.6724                   21164641.2504
  -9478882.26647  -7372656.19145  23130190.1174                   23130190.5314
  21034710.08646  16395476.25044  23936396.3754                   23936394.6954
 11  8 16  1  8  0.0000000  0  8G10G09G12G04G02G05G25G17
 -10265937.64348  -7896341.24346  21209269.0084                   21209266.6994
  13021455.99646  10206544.55143  24731811.6174                   24731814.0824
 -14704893.81648 -11443789.35946  20985668.6334                   20985665.0354
   5765912.38347   4512109.24244  22733026.3594                   22733024.2344
 -10875556.22348  -8466377.83046  20795893.3524                   20795888.3284
 -15843658.81848 -12330863.06746  21160526.6334                   21160524.3364
  -9517751.73047  -7402944.02045  23122793.4304                   23122793.7304
  21143121.13346  16479952.39143  23957026.6414                   23957024.9224
 11  8 16  1  8 30.0000000  0  8G10G09G12G04G02G05G25G17
 -10183117.35948  -7831805.94946  21225029.4384                   21225026.6844
  13149232.82446  10306110.76243  24756127.7584                   24756129.1684
 -14688582.07448 -11431078.89546  20988772.2274                   20988768.9024
   5892986.00847   4611127.66044  22757207.8204                   22757205.7814
 -10814888.17248  -8419104.00846  20807438.3914                   20807433.5354
 -15864791.39848 -12347329.95346  21156505.1724                   21156502.7894
  -9556241.66447  -7432936.12945  23115468.8594                   23115469.4494
  21251755.74246  16564602.74643  23977699.3364                   23977698.0124
 11  8 16  1  9  0.0000000  0  8G10G09G12G04G02G05G25G17
 -10099661.82048  -7766775.64845  21240910.3674                   21240907.5904
  13277014.84846  10405681.04343  24780442.9694                   24780445.6134
 -14671678.66848 -11417907.39146  20991989.4534                   20991985.8834
   6020137.03947   4710206.38344  22781403.4304                   22781401.2424
 -10753958.59048  -8371626.39146  20819032.4454                   20819027.5004
 -15885416.44148 -12363401.35946  21152580.4844                   21152578.1294
  -9594347.66847  -7462629.06645  23108217.2664                   23108217.9264
  21360615.68846  16649428.66844  23998414.7814                   23998412.7114
 11  8 16  1  9 30.0000000  0  8G10G09G12G04G02G05G25G17
 -10015574.74248  -7701253.24246  21256911.0864                   21256909.1564
  13404796.90245  10505251.31642  24804758.8364                   24804762.3524
 -14654184.79748 -11404275.78146  20995318.2194                   20995314.7664
   6147361.69547   4809342.48044  22805613.6804                   22805611.3984
 -10692771.18048  -8323947.87946  20830676.0394                   20830671.2704
 -15905534.21548 -12379077.48446  21148752.0314                   21148749.4454
  -9632069.62147  -7492022.72745  23101039.2504                   23101039.9774
  21469698.69146  16734428.42244  24019171.9694                   24019170.2344
 11  8 16  1 10  0.0000000  0  8G10G09G12G04G02G05G25G17
  -9930861.98848  -7635243.28945  21273031.9064                   21273029.4734
  13532571.47345  10604815.72342  24829073.7664                   24829076.9574
 -14636102.90648 -11390185.97746  20998758.7974                   20998755.6254
   6274654.34447   4908531.55944  22829835.6334                   22829834.5904
 -10631331.05948  -8276072.44946  20842367.5944                   20842362.7344
 -15925146.74248 -12394359.91846  21145019.9694                   21145017.5864
  -9669409.04347  -7521118.32845  23093933.7974                   23093933.8984
  21579000.89546  16819599.02044  24039971.4614                   24039969.6724
 11  8 16  1 10 30.0000000  0  8G10G09G12G04G02G05G25G17
  -9845528.93748  -7568749.98846  21289270.0784                   21289267.1134
  13660331.44546  10704368.84842  24853386.2814                   24853389.1914
 -14617436.33648 -11375640.57446  21002311.0634                   21002307.6414
   6402009.82847   5007769.58644  22854071.4694                   22854069.7034
 -10569643.46148  -8228004.18446  20854106.6724                   20854101.5204
 -15944255.44548 -12409249.76246  21141383.4844                   21141380.9804
  -9706367.27347  -7549916.90245  23086900.7504                   23086901.2704
  21688518.71146  16904937.58244  24060811.8444                   24060810.8444
 11  8 16  1 11  0.0000000  0  8G10G09G12G04G02G05G25G17
  -9759573.68048  -7501771.86345  21305626.8444                   21305624.1804
  13788077.62146  10803911.27342  24877694.9534                   24877698.9774
 -14598180.28548 -11360635.83646  21005975.2734                   21005972.1254
   6529430.07447   5107058.09845  22878318.8054                   22878317.0984
 -10507706.14148  -8179741.32846  20865892.8834                   20865888.1214
 -15962855.12948 -12423742.96146  21137844.2584                   21137841.5204
  -9742938.22347  -7578413.70345  23079941.7504                   23079941.5044
  21798255.82447  16990447.03544  24081694.1484                   24081693.6884
 11  8 16  1 11 30.0000000  0  8G10G09G12G04G02G05G25G17
 -11248416.93448  -8661909.44146  21022309.6724                   21022306.8754
  12340389.07446   9675842.06642  24602209.6954                   24602212.3874
 -16153754.62948 -12572771.65646  20709959.4304                   20709956.0124
   5081496.00447   3978797.77345  22602786.0004                   22602784.3754
 -12020940.22348  -9358884.75446  20577933.6484                   20577929.1994
 -17556365.77748 -13665439.52046  20834609.1024                   20834606.4964
 -11354542.46947  -8834209.16845  22773263.3914   22773264.2584   20332793.94947
  15848528.72344                  23802826.3284                   23802825.1214
 11  8 16  1 12  0.0000000  0  8G10G09G12G04G02G05G25G17
 -11161231.52048  -8593972.74646  21038899.9534                   21038897.4614
  12468089.16446   9775348.55942  24626510.1094                   24626512.9384
 -16133324.52048 -12556852.07446  20713847.0554                   20713843.5864
   5209032.75447   4078177.05945  22627055.4694                   22627053.7034
 -11958515.86748  -9310242.38346  20589812.9384                   20589807.7194
 -17573949.63348 -13679141.16846  20831263.0704                   20831260.4184
 -11390340.15647  -8862103.43045  22766451.6334   22766451.2194   20442961.00847
  15934373.18444                  23823790.4774                   23823788.8874
 11  8 16  1 12 30.0000000  0  8G10G09G12G04G02G05G25G17
 -11073430.70348  -8525556.51845  21055608.6564                   21055605.3524
  12595764.39746   9874835.68643  24650806.6174                   24650809.1214
 -16112303.30148 -12540471.87946  20717847.4694                   20717843.7774
   5336628.42647   4177602.24844  22651336.0634                   22651334.4734
 -11895847.46148  -9261409.85246  20601737.7734                   20601733.6094
 -17591019.97348 -13692442.68046  20828014.1334                   20828011.8754
 -11425744.67747  -8889691.32545  22759714.3754   22759714.1054   20553346.06247
  16020387.50644                  23844795.7974                   23844794.7584
 11  8 16  1 13  0.0000000  0  8G10G09G12G04G02G05G25G17
 -10985016.54348  -8456662.35546  21072432.8674                   21072430.1644
  12723411.23046   9974300.60543  24675097.2664                   24675098.8754
 -16090689.96148 -12523630.29746  20721960.3134                   20721956.4614
   5464281.20347   4277071.94945  22675627.1564                   22675625.9024
 -11832936.24248  -9212388.11346  20613709.9534                   20613704.7234
 -17607575.07448 -13705342.70346  20824864.1484                   20824861.4924
 -11460754.10947  -8916971.34445  22753051.9924   22753051.9224   20663948.80147
  16106571.50044                  23865843.3524                   23865840.9734
 11  8 16  1 13 30.0000000  0  8G10G09G12G04G02G05G25G17
 -10895988.14148  -8387289.55946  21089374.1724                   21089371.5234
  12851029.65646  10073743.41043  24699381.3754                   24699384.4304
 -16068480.60248 -12506324.28546  20726186.2034                   20726182.6994
   5591992.33247   4376587.12544  22699930.2814                   22699928.7234
 -11769780.83648  -9163176.09046  20625728.0944                   20625723.1484
 -17623610.29348 -13717837.63346  20821812.7894                   20821809.9884
 -11495363.08647  -8943939.34445  22746466.0634   22746466.0864   20774772.04746
  16192927.37143                  23886932.4144                   23886930.3794
 11  8 16  1 14  0.0000000  0  8G10G09G12G04G02G05G25G17
 -10806357.35248  -8317447.37945  21106430.5704                   21106427.4494
  12978606.56646  10173153.85243  24723658.8524                   24723660.6414
 -16045684.46148 -12488561.03946  20730524.2974                   20730521.1174
   5719750.71847   4476139.10044  22724241.4064                   22724240.4574
 -11706392.27748  -9113782.40646  20637790.4844                   20637785.7854
 -17639133.72748 -13729933.75446  20818858.7584                   20818856.2234
 -11529579.06647  -8970601.10545  22739955.3054   22739955.6254   20885805.80946
  16279447.23043                  23908060.5164                   23908059.2934
 11  8 16  1 14 30.0000000  0  8G10G09G12G04G02G05G25G17
 -10716116.74648  -8247130.01246  21123602.5864                   21123600.1484
  13106148.23746  10272536.83743  24747930.1884                   24747931.4654
 -16022291.40648 -12470332.67246  20734975.9144                   20734971.9184
   5847564.26747   4575734.06544  22748564.0474                   22748562.1454
 -11642762.98048  -9064201.12146  20649898.7274                   20649893.9494
 -17654134.09448 -13741622.29746  20816004.5634                   20816001.3874
 -11563390.47347  -8996947.60945  22733520.3984   22733521.0594   20997059.49646
  16366138.44943                  23929231.5634                   23929230.2344
 11  8 16  1 15  0.0000000  0  8G10G09G12G04G02G05G25G17
 -10625274.57847  -8176343.89846  21140889.4844                   21140886.8164
  13233644.99646  10371884.81643  24772191.5864                   24772193.5944
 -15998306.91448 -12451643.44546  20739540.0004                   20739536.7584
   5975424.56347   4675365.47344  22772895.4694                   22772893.4384
 -11578900.68748  -9014438.28546  20662051.2504                   20662046.5984
 -17668616.11748 -13752906.93746  20813248.1564                   20813246.1374
 -11596801.29747  -9022981.98445  22727163.1644   22727163.2584   21108526.43046
  16452995.82043                  23950444.0784                   23950441.1374
 11  8 16  1 15 30.0000000  0  7G10G12G04G02G05G25G17
 -10533840.14848  -8105096.27345  21158288.7114                   21158286.2974
 -15973737.34048 -12432498.30146  20744215.4304                   20744211.8244
   6103323.26247   4775026.79344  22797233.7194                   22797231.2974
 -11514813.82448  -8964500.44946  20674246.5164                   20674241.8364
 -17682585.30148 -13763791.95746  20810589.8984                   20810587.1914
 -11629816.53947  -9048708.12145  22720880.1954   22720880.1024   21220199.49246
  16540013.84843                  23971694.4224                   23971692.3444
 11  8 16  1 16  0.0000000  0  7G10G12G04G02G05G25G17
 -10441806.28948  -8033381.56645  21175802.0634                   21175799.5664
 -15948572.87548 -12412889.60546  20749004.0314                   20749000.7194
   6231268.00847   4874724.01244  22821580.4924                   22821578.6134
 -11450494.74648  -8914381.67246  20686486.0234                   20686481.2584
 -17696031.00048 -13774269.07446  20808031.2344                   20808028.9184
 -11662424.79748  -9074117.11745  22714675.1414   22714674.7154   21332087.81346
  16627199.59043                  23992984.6174                   23992983.7814
 11  8 16  1 16 30.0000000  0  7G10G12G04G02G05G25G17
 -10349173.34048  -7961200.03546  21193429.5084                   21193426.8134
 -15922810.97748 -12392815.39146  20753906.2034                   20753903.1524
   6359258.93847   4974457.20344  22845936.3984                   22845934.5634
 -11385943.63348  -8864082.09846  20698769.6414                   20698765.0824
 -17708949.76648 -13784335.59046  20805573.2664                   20805570.6094
 -11694622.14847  -9099205.93045  22708548.2734   22708548.2854   21444192.68846
  16714554.02743                  24014318.0164                   24014316.6564
 11  8 16  1 17  0.0000000  0  7G10G12G04G02G05G25G17
 -10255945.85948  -7888555.23845  21211170.3134                   21211167.7344
 -15896453.37148 -12372276.98446  20758921.8444                   20758918.5664
   6487292.26247   5074223.43044  22870300.6094                   22870298.4454
 -11321163.43748  -8813604.00446  20711096.8984                   20711091.9654
 -17721342.12948 -13793991.91846  20803214.8134                   20803212.3524
 -11726408.55547  -9123974.50445  22702499.2734   22702498.9924   21556511.89146
  16802075.54343                  24035692.2114                   24035690.5514
 11  8 16  1 17 30.0000000  0  7G10G12G04G02G05G25G17
 -10162115.68448  -7815440.80545  21229025.5864                   21229022.8364
 -15869489.04748 -12351265.80546  20764053.0164                   20764049.9844
   6615376.68047   5174029.48444  22894673.6644                   22894672.3444
 -11256145.46148  -8762940.63746  20723469.1564                   20723464.7234
 -17733196.13348 -13803228.74246  20800958.8754                   20800955.8634
 -11757771.41047  -9148413.05945  22696531.5554   22696531.1334   21669055.44146
  16889771.86343                  24057107.5164                   24057105.5904
 11  8 16  1 18  0.0000000  0  7G10G12G04G02G05G25G17
 -10067698.53148  -7741868.98046  21246992.4774                   21246989.9774
 -15841931.21948 -12329792.15646  20769297.3834                   20769293.8834
   6743496.92847   5273863.43344  22919054.7114                   22919052.5314
 -11190905.24648  -8712104.09046  20735884.1024                   20735879.6294
 -17744524.09448 -13812055.67646  20798803.3984                   20798800.6804
 -11788722.34047  -9172530.63745  22690641.5864   22690641.9384   21781809.52046
  16977632.21943                  24078564.7664                   24078562.8284
 11  8 16  1 18 30.0000000  0  7G10G12G04G02G05G25G17
  -9972682.85248  -7667830.77046  21265073.5084                   21265070.8874
 -15813765.35948 -12307844.71946  20774657.2664                   20774653.5824
   6871665.46147   5373735.02044  22943443.5864                   22943442.6564
 -11125430.28548  -8661084.63746  20748343.5554                   20748338.7464
 -17755310.43448 -13820460.56246  20796750.9064                   20796748.2274
 -11819245.26247  -9196314.70345  22684832.9304   22684833.4224   21894787.67646
  17065667.17643                  24100063.8284                   24100061.2854
 11  8 16  1 19  0.0000000  0  7G10G12G04G02G05G25G17
  -9877086.76248  -7593340.30545  21283264.6724                   21283262.2664
 -15785006.75048 -12285435.39546  20780129.3674                   20780126.2854
   6999864.95747   5473630.72344  22967840.0164                   22967838.1524
 -11059737.80548  -8609895.68046  20760844.5394                   20760839.8284
 -17765569.18748 -13828454.34846  20794798.1724                   20794795.7074
 -11849353.93047  -9219775.96545  22679103.2894   22679103.9804   22007973.77746
  17153864.15644                  24121602.7584                   24121600.2154
 11  8 16  1 19 30.0000000  0  7G10G12G04G02G05G25G17
  -9780902.75048  -7518391.69945  21301567.9064                   21301565.4694
 -15755644.93048 -12262556.03946  20785717.0554                   20785713.8324
   7128103.75347   5573557.06744  22992242.3444                   22992240.5984
 -10993819.26648  -8558530.57446  20773388.5634                   20773383.3284
 -17775289.83648 -13836028.82046  20792948.6724                   20792945.8524
 -11879036.21948  -9242904.96545  22673454.8444   22673455.2194   22121377.75046
  17242230.93844                  24143182.6884                   24143181.0394
 11  8 16  1 20  0.0000000  0  7G10G12G04G02G05G25G17
  -9684141.54347  -7442993.34445  21319980.7584                   21319978.0904
 -15725688.30548 -12239213.19546  20791417.1564                   20791414.1454
   7256371.84047   5673506.21944  23016650.8134                   23016649.3444
 -10927685.07448  -8506997.42646  20785973.2734                   20785968.5594
 -17784479.13748 -13843189.26646  20791200.2584                   20791197.4144
 -11908298.66048  -9265706.84045  22667887.0314   22667886.6724   22234990.52346
  17330760.37144                  24164801.9534                   24164800.3834
 11  8 16  1 20 30.0000000  0  7G10G12G04G02G05G25G17
  -9586798.19648  -7367141.36545  21338504.4614                   21338502.2274
 -15695129.02748 -12215400.75846  20797232.6174                   20797229.5514
   7384674.65647   5773482.44544  23041066.2814                   23041064.1374
 -10861329.36748  -8455291.66446  20798600.3204                   20798595.5124
 -17793128.49248 -13849928.96946  20789553.7974                   20789551.4384
 -11937132.04348  -9288174.38745  22662400.2344   22662399.9734   22348818.89547
  17419457.80544                  24186462.9534                   24186461.5984
 11  8 16  1 21  0.0000000  0  7G10G12G04G02G05G25G17
  -9488882.83648  -7290843.66445  21357137.0864                   21357134.7234
 -15663974.48048 -12191124.46146  20803161.2344                   20803157.5594
   7513003.14147   5873478.67644  23065486.3524                   23065484.9804
 -10794761.20748  -8403420.35546  20811268.1174                   20811262.8674
 -17801243.93448 -13856252.64546  20788009.6484                   20788006.8284
 -11965541.80548  -9310311.83245  22656993.7664   22656993.5434   22462855.00447
  17508317.13744                  24208163.8364                   24208161.7194
 11  8 16  1 21 30.0000000  0  7G10G12G04G02G05G25G17
  -9390397.48848  -7214101.83245  21375878.5634                   21375876.0124
 -15632223.58648 -12166383.48046  20809203.1564                   20809199.9024
   7641356.14847   5973493.99644  23089911.3364                   23089909.5944
 -10727982.19148  -8351384.75046  20823975.3594                   20823970.5554
 -17808823.96148 -13862159.10546  20786567.0234                   20786564.1054
 -11993525.58648  -9332117.34445  22651668.8754   22651668.6804   22577098.72747
  17597338.22744                  24229903.6484                   24229900.8984
 11  8 16  1 22  0.0000000  0  7G10G12G04G02G05G25G17
  -9291340.00448  -7136914.16445  21394728.5084                   21394725.7894
 -15599871.20748 -12141173.81646  20815359.4304                   20815356.3674
   7769737.19547   6073531.18444  23114341.2344                   23114339.1134
 -10660988.34448  -8299181.73846  20836723.9694                   20836718.8094
 -17815862.46548 -13867643.60946  20785227.5164                   20785224.7584
 -12021076.43748  -9353585.50045  22646426.6414   22646425.8594   22691554.96547
  17686524.93844                  24251683.3204                   24251680.9774
 11  8 16  1 22 30.0000000  0  7G10G12G04G02G05G25G17
  -9191717.50448  -7059286.22745  21413685.9844                   21413683.4774
 -15566922.15248 -12115499.20346  20821629.3284                   20821626.0514
   7898139.65647   6173585.03544  23138775.4614                   23138774.0274
 -10593786.24248  -8246816.44546  20849512.2584                   20849507.3674
 -17822362.73848 -13872708.70746  20783990.6804                   20783988.1994
 -12048197.10948  -9374718.46945  22641264.8134   22641265.2344   22806218.50046
  17775873.18044                  24273503.5554                   24273500.8364
 11  8 16  1 23  0.0000000  0  7G10G12G04G02G05G25G17
  -9091530.86748  -6981218.71545  21432751.2734                   21432748.5084
 -15533374.58248 -12089358.22346  20828013.5634                   20828009.8054
   8026563.53947   6273655.60244  23163213.7974                   23163212.4224
 -10526375.90648  -8194288.89546  20862339.5704                   20862335.0704
 -17828322.01248 -13877352.24646  20782856.5554                   20782853.8674
 -12074884.18047  -9395513.55145  22636186.3134   22636186.3634   22921090.19547
  17865383.62544                  24295362.6334                   24295361.0124
 11  8 16  1 23 30.0000000  0  7G10G12G04G02G05G25G17
  -8990783.55948  -6902714.30545  21451922.4454                   21451919.9064
 -15499229.21548 -12062751.41846  20834510.9694                   20834507.4454
   8155006.40247   6373740.95344  23187655.8834                   23187654.0004
 -10458759.83248  -8141601.02746  20875206.4384                   20875201.6954
 -17833740.32048 -13881574.26646  20781825.4454                   20781822.5704
 -12101136.67647  -9415970.01245  22631190.7344   22631190.4454   23036168.85946
  17955055.34443                  24317260.9534                   24317259.3914
 11  8 16  1 24  0.0000000  0  7G10G12G04G02G05G25G17
  -8889480.03147  -6823776.47745  21471200.2034                   21471197.5084
 -15464487.78948 -12035680.16046  20841122.6414                   20841118.9884
   8283465.06647   6473838.62544  23212100.6254                   23212098.5744
 -10390941.40648  -8088755.47746  20888112.0314                   20888107.4144
 -17838618.19948 -13885375.16046  20780896.7114                   20780894.3984
 -12126954.38347  -9436087.68045  22626277.7034   22626277.8634   23151452.33646
  18044886.64143                  24339198.7114                   24339197.3094
 11  8 16  1 24 30.0000000  0  7G10G12G04G02G05G25G17
  -8787622.93448  -6744407.30145  21490582.5864                   21490580.0234
 -15429150.00048 -12008144.19946  20847846.9224                   20847843.4774
   8411937.82047   6573947.26244  23236548.2274                   23236546.1844
 -10322922.14848  -8035753.44546  20901055.4224                   20901050.6724
 -17842954.43748 -13888754.00446  20780072.0554                   20780069.2464
 -12152335.30947  -9455864.98045  22621447.9144   22621448.1804   23266940.00846
  18134877.03543                  24361175.1254                   24361173.6564
 11  8 16  1 25  0.0000000  0  8G10G29G12G04G02G05G25G17
  -8685214.71948  -6664608.68045  21510070.1174                   21510067.5664
  -6341079.88756  -4933582.96952  24742306.2194                   24742304.5314
 -15393215.75848 -11980143.46546  20854684.6484                   20854681.2974
   8540423.12146   6674065.67244  23260997.6564                   23260996.0824
 -10254703.66448  -7982596.17246  20914037.2194                   20914032.6214
 -17846747.85548 -13891709.87146  20779350.1804                   20779347.2624
 -12177277.69147  -9475300.57045  22616701.8754   22616701.9144   23382631.28546
  18225026.14543                  24383190.4774                   24383188.4224
 11  8 16  1 25 30.0000000  0  8G10G29G12G04G02G05G25G17
  -8582256.79348  -6584381.71545  21529662.7344                   21529659.8134
  -6374570.55146  -4959679.51242  24735934.1954                   24735931.7304
 -15356683.61748 -11951676.83246  20861636.6254                   20861633.1564
   8668921.13747   6774193.99244  23285450.0784                   23285447.9774
 -10186286.21148  -7929283.85246  20927056.8444                   20927051.5634
 -17849996.01248 -13894240.85946  20778732.0704                   20778729.1374
 -12201778.05147  -9494391.72345  22612039.2584   22612039.1604   23498527.49246
  18315334.96143                  24405244.1484                   24405243.5864
 11  8 16  1 26  0.0000000  0  8G10G29G12G04G02G05G25G17
  -8478751.12948  -6503727.94545  21549358.8204                   21549356.3594
  -6408118.37146  -4985820.61342  24729548.8594                   24729547.3554
 -15319552.87148 -11922743.77046  20868702.7424                   20868699.0004
   8797430.53147   6874331.18044  23309904.8984                   23309903.0434
 -10117670.44148  -7875817.00046  20940113.7274                   20940108.6414
 -17852696.91848 -13896345.41446  20778217.9454                   20778215.2234
 -12225834.02747  -9513136.60245  22607461.5634   22607461.4414   23614628.71145
  18405803.41042                  24427336.0234                   24427337.2034
 11  8 16  1 26 30.0000000  0  8G10G29G12G04G02G05G25G17
  -8374708.14548  -6422655.47745  21569158.1804                   21569154.9774
  -6441731.32446  -5012012.39843  24723152.6564                   24723151.0984
 -15281831.41448 -11893350.41446  20875880.4384                   20875877.0004
   8925942.08247   6974470.05544  23334360.0944                   23334358.3834
 -10048866.04748  -7822203.16846  20953207.0314                   20953201.8634
 -17854857.93048 -13898029.27046  20777806.4924                   20777803.8404
 -12249451.61747  -9531539.89545  22602967.0004   22602966.9804   23730926.10245
  18496424.74242                  24449468.9694                   24449466.9264
 11  8 16  1 27  0.0000000  0  8G10G29G12G04G02G05G25G17
  -8270131.84448  -6341167.44545  21589058.0234                   21589055.5274
  -6475410.19146  -5038255.61343  24716743.6094                   24716742.4414
 -15243520.80548 -11863497.97346  20883170.8914                   20883167.2504
   9054453.02047   7074608.46944  23358814.1414                   23358813.2114
  -9979876.16848  -7768444.80546  20966335.6334                   20966330.0514
 -17856479.28948 -13899292.62546  20777498.2034                   20777495.1564
 -12272630.26247  -9549601.13745  22598556.5554   22598556.6994   23847418.00446
  18587197.80142                  24471636.7034                   24471635.6564
 11  8 16  1 27 30.0000000  0  8G10G29G12G04G02G05G25G17
  -8165018.68448  -6259261.07845  21609060.6174                   21609057.3094
  -6509148.49646  -5064545.10543  24710322.9924                   24710321.5004
 -15204614.27348 -11833181.17646  20890574.0164                   20890571.0004
   9182968.44547   7174750.36544  23383270.0704                   23383268.3874
  -9910695.28948  -7714537.61746  20979499.5784                   20979494.5984
 -17857553.05148 -13900129.28547  20777293.7504                   20777290.9774
 -12295361.60547  -9567313.82445  22594230.9144   22594230.7544   23964110.64546
  18678127.23042                  24493841.6804                   24493840.8984
 11  8 16  1 28  0.0000000  0  8G10G29G12G04G02G05G25G17
  -8059364.60548  -6176933.21545  21629165.3444                   21629162.8554
  -6542939.65246  -5090875.75843  24703892.2814                   24703891.5864
 -15165105.00448 -11802394.71946  20898092.7894                   20898089.4384
   9311493.48447   7274899.75044  23407727.8284                   23407726.1024
  -9841318.60248  -7660477.84046  20992701.7194                   20992696.6454
 -17858071.93048 -13900533.55947  20777194.9064                   20777191.8554
 -12317637.14147  -9584671.33645  22589991.9224   22589991.6484   24081010.21546
  18769217.84442                  24516086.7504                   24516086.0164
 11  8 16  1 28 30.0000000  0  8G10G29G12G04G02G05G25G17
  -9528603.11348  -7321794.37145  21349578.6724                   21349576.4534
  -8152219.24646  -6344859.70343  24397656.8914                   24397655.6524
 -16700426.41048 -12998749.04346  20605930.8054                   20605927.3014
   7864596.59847   6147447.63744  23132392.5634                   23132390.7584
 -11347179.81248  -8833876.17646  20706145.8594                   20706141.4224
 -19433469.28548 -15128115.87546  20477406.7424                   20477403.7854
 -13914890.04747 -10829283.95745  22286044.5084   22286044.3484   22622685.72346
  17632861.17242                  24238577.8594                   24238576.0434
 11  8 16  1 29  0.0000000  0  8G10G29G12G04G02G05G25G17
  -9421888.97748  -7238640.49245  21369885.5314                   21369883.0164
  -8186129.63346  -6371283.23843  24391203.7424                   24391202.8984
 -16659725.77348 -12967034.24246  20613675.6334                   20613672.4534
   7993122.64147   6247597.81644  23156850.0234                   23156848.8164
 -11277429.78948  -8779525.49646  20719418.9924                   20719414.3164
 -19432889.03948 -15127663.68746  20477517.3364                   20477514.4064
 -13936262.10947 -10845937.45745  22281977.6884   22281977.3444   22739983.65246
  17724262.20343                  24260898.7584                   24260897.1174
 11  8 16  1 29 30.0000000  0  8G10G29G12G04G02G05G25G17
  -9314638.87948  -7155068.98045  21390294.7974                   21390292.2464
  -8220089.30947  -6397745.20343  24384741.4224                   24384740.9574
 -16618420.25848 -12934848.10546  20621536.1334                   20621532.7304
   8121657.22747   6347754.62944  23181309.3444                   23181308.2034
 -11207485.25848  -8725023.26246  20732728.6884                   20732724.2274
 -19431747.73848 -15126774.32446  20477734.6804                   20477731.5944
 -13957169.63847 -10862228.99945  22277999.3594   22277999.0204   22857489.76246
  17815825.46543                  24283259.0554                   24283256.5234
 11  8 16  1 30  0.0000000  0  8G10G29G12G04G02G05G25G17
  -9206862.43047  -7071087.32845  21410804.2194                   21410801.3834
  -8254105.12547  -6424250.94943  24378268.5164                   24378268.0554
 -16576516.26648 -12902195.62546  20629509.8984                   20629506.9804
   8250192.12147   6447911.68844  23205768.3914                   23205767.0004
 -11137354.72748  -8670376.07846  20746074.0704                   20746069.4964
 -19430051.28148 -15125452.37547  20478057.0234                   20478054.7704
 -13977617.85247 -10878162.62145  22274108.0704   22274108.0084   22975196.97746
  17907545.35243                  24305658.7974                   24305656.5474
 11  8 16  1 30 30.0000000  0  8G10G29G12G04G02G05G25G17
  -9098558.14148  -6986694.35945  21431413.6724                   21431410.8134
  -8288172.67647  -6450797.05544  24371785.5164                   24371785.0944
 -16534009.64548 -12869073.55946  20637598.8914                   20637595.5124
   8378730.05547   6548071.10244  23230228.7814                   23230227.5084
 -11067035.05548  -8615581.51646  20759455.9694                   20759450.8284
 -19427794.32448 -15123693.66046  20478486.5234                   20478483.6844
 -13997600.32047 -10893733.33645  22270305.2034   22270305.1994   23093109.05147
  17999424.89843                  24328096.7194                   24328094.5514
 11  8 16  1 31  0.0000000  0  8G10G29G12G04G02G05G25G17
  -8989732.53648  -6901895.17945  21452122.7274                   21452119.9454
  -8322295.56647  -6477386.23844  24365291.4614                   24365291.7384
 -16490904.37548 -12835485.02346  20645801.4694                   20645798.2974
   8507265.65247   6648228.71144  23254688.5784                   23254687.1994
 -10996531.79248  -8560643.89246  20772871.7194                   20772867.3134
 -19424980.03348 -15121500.66147  20479022.3524                   20479019.0044
 -14017119.21147 -10908942.82445  22266591.0634   22266591.1644   23211221.59846
  18091460.71343                  24350572.9224                   24350570.5864
 11  8 16  1 31 30.0000000  0  8G10G29G12G04G02G05G25G17
  -8880383.72747  -6816688.30145  21472930.7344                   21472928.1094
  -8356468.46946  -6504014.40244  24358789.1954                   24358788.2384
 -16447195.55148 -12801426.18046  20654119.0784                   20654115.4574
   8635802.97346   6748387.65644  23279147.7194                   23279146.4964
 -10925841.35948  -8505560.42646  20786324.1024                   20786319.2854
 -19421602.51248 -15118868.78546  20479665.0004                   20479661.6994
 -14036167.74647 -10923785.78545  22262966.3834   22262966.1564   23329539.15246
  18183656.22743                  24373087.4694                   24373085.6374
 11  8 16  1 32  0.0000000  0  8G10G29G12G04G02G05G25G17
  -8770521.65647  -6731081.48845  21493837.0164                   21493834.1524
  -8390698.71146  -6530687.24644  24352276.1254                   24352274.8954
 -16402890.59048 -12766902.82046  20662549.5474                   20662546.4264
   8764333.11347   6848541.02044  23303606.8204                   23303605.2344
 -10854972.68448  -8450338.06646  20799809.7274                   20799804.4614
 -19417668.35548 -15115803.17647  20480413.7734                   20480410.9574
 -14054751.50847 -10938266.60245  22259429.8444   22259429.5234   23448053.80946
  18276005.28543                  24395639.5704                   24395637.7464
 11  8 16  1 32 30.0000000  0  8G10G29G12G04G02G05G25G17
  -8660145.78147  -6645074.31245  21514840.9144                   21514838.0864
  -8424982.94146  -6557402.15643  24345751.5084                   24345750.3524
 -16357986.77048 -12731912.81246  20671094.8674                   20671091.3404
   8892858.02746   6948690.29344  23328063.8284                   23328062.5434
 -10783923.69148  -8394975.19546  20813329.7504                   20813324.8244
 -19413173.22348 -15112300.43447  20481268.9304                   20481266.1954
 -14072865.39547 -10952381.27345  22255982.9774   22255982.6844   23566768.42646
  18368510.27043                  24418230.2114                   24418228.0124
 11  8 16  1 33  0.0000000  0  8G10G29G12G04G02G05G25G17
  -8549261.50048  -6558670.97345  21535941.2974                   21535938.5704
  -8459323.18046  -6584160.66844  24339216.6644                   24339215.9574
 -16312486.99248 -12696458.41546  20679753.3364                   20679749.8204
   9021374.16146   7048832.75043  23352519.4064                   23352518.1054
 -10712698.51248  -8339475.04246  20826883.6724                   20826878.7894
 -19408118.84448 -15108361.91647  20482230.6334                   20482227.6524
 -14090510.05547 -10966130.32845  22252624.9064   22252625.3284   23685679.83646
  18461168.49143                  24440858.7974                   24440856.2074
 11  8 16  1 33 30.0000000  0  7G10G29G12G04G02G05G25
  -8437868.71147  -6471871.39145  21557138.8914                   21557136.0164
  -8493715.93746  -6610960.12544  24332671.1644                   24332671.3204
 -16266387.52348 -12660536.73446  20688525.5004                   20688522.1914
   9149882.93446   7148969.46544  23376974.2194                   23376973.0864
 -10641295.35948  -8283836.19946  20840471.0634                   20840466.2814
 -19402501.42248 -15103984.66447  20483299.6954                   20483296.5314
 -14107680.76647 -10979510.05945  22249357.7814   22249357.6604
 11  8 16  1 34  0.0000000  0  7G10G29G12G04G02G05G25
  -8325977.27048  -6384683.25045  21578430.8834                   21578428.1174
  -8528168.52046  -6637806.22743  24326115.9774                   24326114.8984
 -16219697.18748 -12624154.63346  20697410.3754                   20697406.8484
   9278375.82846   7249093.78143  23401426.3284                   23401424.2974
 -10569723.20748  -8228065.67246  20854090.8984                   20854086.0904
 -19396327.39848 -15099173.70347  20484474.6484                   20484471.2734
 -14124383.02747 -10992524.78945  22246179.0554   22246179.0514
 11  8 16  1 34 30.0000000  0  7G10G29G12G04G02G05G25
  -8213580.68848  -6297101.49245  21599819.3444                   21599816.2154
  -8562671.13746  -6664691.30943  24319549.4694                   24319548.8284
 -16172406.41048 -12587304.66846  20706409.5314                   20706406.0784
   9406861.14546   7349212.21544  23425875.4064                   23425873.8914
 -10497973.77748  -8172157.00846  20867744.3524                   20867739.5474
 -19389586.25048 -15093920.81647  20485757.0634                   20485754.3284
 -14140605.53547 -11005165.64545  22243091.9144   22243091.7894
 11  8 16  1 35  0.0000000  0  7G10G29G12G04G02G05G25
  -8100673.87548  -6209122.16045  21621304.8284                   21621302.0594
  -8597215.83246  -6691609.23443  24312977.0394                   24312974.5394
 -16124507.60548 -12549980.91046  20715524.0944                   20715521.1644
   9535345.54246   7449329.94644  23450325.3754                   23450324.1024
 -10426040.64848  -8116105.20746  20881432.9304                   20881428.2034
 -19382269.68748 -15088219.55547  20487149.6804                   20487146.6684
 -14156338.69147 -11017425.21545  22240098.3754   22240098.0354
 11  8 16  1 35 30.0000000  0  7G10G29G12G04G02G05G25
  -7987261.82048  -6120749.13345  21642886.2034                   21642883.3244
  -8631804.00846  -6718561.02343  24306394.2114                   24306392.6914
 -16076002.70748 -12512184.86746  20724754.3594                   20724750.9964
   9663825.84847   7549444.46544  23474774.6414                   23474772.9614
 -10353926.90248  -8059912.65246  20895155.6254                   20895150.6914
 -19374379.03548 -15082070.96147  20488650.9064                   20488648.1644
 -14171582.73447 -11029303.65645  22237196.9844   22237197.0274
 11  8 16  1 36  0.0000000  0  7G10G29G12G04G02G05G25
  -7873356.58648  -6031991.79745  21664561.5864                   21664558.8404
  -8666444.69546  -6745553.74243  24299803.0474                   24299800.4024
 -16026901.38348 -12473924.09046  20734098.3364                   20734095.0434
   9792291.23447   7649547.37144  23499220.5234                   23499218.9184
 -10281643.69948  -8003588.05546  20908910.5474                   20908905.8914
 -19365922.99248 -15075481.79747  20490259.9844                   20490257.6054
 -14186345.39547 -11040806.99245  22234387.8364   22234387.6724
 11  8 16  1 36 30.0000000  0  7G10G29G12G04G02G05G25
  -7758957.29747  -5942849.49245  21686331.6564                   21686328.6484
  -8701133.60546  -6772584.00443  24293201.3754                   24293200.0354
 -15977200.88748 -12435196.42246  20743555.7974                   20743552.3834
   9920744.58247   7749640.89544  23523664.6564                   23523662.3834
 -10209188.28548  -7947129.26646  20922698.5474                   20922693.4964
 -19356896.64848 -15068448.24247  20491977.4144                   20491974.6564
 -14200620.95748 -11051930.77045  22231671.4614   22231671.3244
 11  8 16  1 37  0.0000000  0  7G10G29G12G04G02G05G25
  -7644072.79748  -5853329.10245  21708192.4614                   21708190.4104
  -8735876.64846  -6799656.45343  24286589.8054                   24286589.0704
 -15926907.00848 -12396006.38746  20753126.2274                   20753123.1564
  10049178.78547   7849719.50844  23548104.6174                   23548102.6604
 -10136567.86748  -7890541.91046  20936517.5474                   20936512.6724
 -19347305.48448 -15060974.57047  20493802.7664                   20493799.7464
 -14214413.70348 -11062678.33245  22229046.8134   22229046.5704
 11  8 16  1 37 30.0000000  0  7G10G29G12G04G02G05G25
  -7528699.42248  -5763427.76645  21730147.9614                   21730145.3754
  -8770667.10947  -6826765.85544  24279969.2894                   24279968.2424
 -15876014.07448 -12356349.54346  20762810.8054                   20762807.4104
  10177598.79347   7949787.03944  23572542.3674                   23572541.0204
 -10063777.64148  -7833822.23046  20950369.0554                   20950363.9534
 -19337142.53148 -15053055.34447  20495736.6644                   20495733.9064
 -14227715.62148 -11073043.42645  22226515.6094   22226515.0744
 11  8 16  1 38  0.0000000  0  7G10G29G12G04G02G05G25
  -7412846.34047  -5673152.64145  21752193.5554                   21752191.1094
  -8805510.30147  -6853916.32044  24273338.5474                   24273338.0824
 -15824528.43748 -12316230.85946  20772608.5084                   20772604.7544
  10305997.72346   8049838.17644  23596976.0704                   23596973.8594
  -9990824.83248  -7776975.85946  20964251.5004                   20964246.3954
 -19326412.97748 -15044694.61346  20497778.5634                   20497775.5164
 -14240530.89848 -11083029.31645  22224076.5704   22224076.7154
 11  8 16  1 38 30.0000000  0  7G10G29G12G04G02G05G25
  -7296510.05947  -5582500.99245  21774331.9694                   21774329.1884
  -8840400.06647  -6881103.09444  24266699.9844                   24266698.0124
 -15772444.34848 -12275645.85246  20782519.5234                   20782516.2894
  10434380.19947   8149876.47344  23621406.1484                   23621404.6294
  -9917704.94148  -7719999.31246  20978165.8524                   20978160.8754
 -19315110.05148 -15035887.10247  20499929.4534                   20499926.6174
 -14252851.98848 -11092630.12945  22221732.0314   22221732.0314
 11  8 16  1 39  0.0000000  0  7G10G29G12G04G02G05G25
  -7179695.82447  -5491476.91045  21796560.8524                   21796558.3554
  -8875338.09046  -6908327.49243  24260050.6564                   24260049.4654
 -15719764.93748 -12234596.96146  20792544.3984                   20792540.8834
  10562743.18447   8249899.59844  23645832.3524                   23645830.9884
  -9844421.21948  -7662895.08246  20992111.1334                   20992105.9304
 -19303235.68448 -15026634.30947  20502189.0944                   20502186.1954
 -14264679.28148 -11101846.17645  22219481.8834   22219480.8714
 11  8 16  1 39 30.0000000  0  7G10G29G12G04G02G05G25
  -7062407.15647  -5400083.13745  21818880.2034                   21818877.2974
  -8910324.58646  -6935589.61343  24253393.0704                   24253392.2734
 -15666490.92648 -12193084.73846  20802681.9064                   20802678.4144
  10691084.87947   8349906.11344  23670255.3054                   23670253.7274
  -9770975.60248  -7605664.71146  21006087.4224                   21006082.2974
 -19290789.72348 -15016936.12147  20504557.1024                   20504554.4264
 -14276011.68448 -11110676.59045  22217324.7114   22217324.5084
 11  8 16  1 40  0.0000000  0  7G10G29G12G04G02G05G25
  -6944642.00047  -5308318.06645  21841290.1644                   21841287.4494
  -8945353.73046  -6962885.01243  24246726.9534                   24246725.2974
 -15612617.56648 -12151105.48846  20812933.5784                   20812930.1214
  10819409.46147   8449899.31643  23694674.5864                   23694673.0634
  -9697364.22348  -7548305.17646  21020095.0394                   21020090.2854
 -19277766.50048 -15006788.11747  20507035.3594                   20507032.3984
 -14286842.34848 -11119116.03945  22215264.1644   22215263.4224
 11  8 16  1 40 30.0000000  0  7G10G29G12G04G02G05G25
  -6826412.77347  -5216191.38345  21863788.6884                   21863785.4494
  -8980434.87146  -6990220.89544  24240050.7344                   24240050.1174
 -15558155.24248 -12108667.30146  20823297.5944                   20823294.3794
  10947706.01247   8549870.66843  23719088.0234                   23719086.8204
  -9623598.05948  -7490825.03146  21034132.1024                   21034127.0204
 -19264175.06248 -14996197.34847  20509622.0704                   20509619.0704
 -14297179.41848 -11127170.85546  22213297.1254   22213296.1094
 11  8 16  1 41  0.0000000  0  7G10G29G12G04G02G05G25
  -6707715.32447  -5123699.85545  21886375.7114                   21886373.0784
  -9015560.30947  -7017591.28544  24233368.1564                   24233366.0664
 -15503097.44548 -12065765.11746  20833774.8054                   20833771.4344
  11075980.71546   8649824.99643  23743499.0944                   23743496.8834
  -9549671.16848  -7433219.65246  21048199.9844                   21048195.1294
 -19250007.43748 -14985157.60547  20512317.9064                   20512314.6214
 -14307013.98048 -11134834.12546  22211425.7194   22211424.7344
 11  8 16  1 41 30.0000000  0  7G10G29G12G04G02G05G25
  -6588559.53547  -5030851.17645  21909050.3984                   21909047.5314
  -9050736.38347  -7045001.14544  24226673.5394                   24226672.6484
 -15447451.46948 -12022404.60546  20844363.4844                   20844360.2074
  11204225.63746   8749756.13343  23767902.2974                   23767900.7814
  -9475591.40248  -7375495.13746  21062296.8364                   21062291.9224
 -19235270.26248 -14973674.05147  20515122.1724                   20515118.6254
 -14316351.23848 -11142109.89546  22209648.4534   22209648.2424
 11  8 16  1 42  0.0000000  0  7G10G29G12G04G02G05G25
  -6468938.40648  -4937639.91445  21931813.3914                   21931811.1214
  -9085952.69946  -7072442.34444  24219972.0474                   24219971.0474
 -15391207.68748 -11978578.27346  20855066.7344                   20855063.3984
  11332449.96146   8849671.19143  23792302.8984                   23792301.0204
  -9401350.07848  -7317644.73446  21076424.5704                   21076419.7274
 -19219952.86348 -14961738.38747  20518036.9384                   20518033.7424
 -14325179.54348 -11148989.05146  22207968.6094   22207968.3954
 11  8 16  1 42 30.0000000  0  7G10G29G12G04G02G05G25
  -6348861.97747  -4844073.85945  21954663.4454                   21954660.6804
  -9121216.30246  -7099920.41844  24213261.5704                   24213260.3954
 -15334374.75448 -11934292.86746  20865881.5704                   20865878.2274
  11460644.84446   8949563.33543  23816697.4534                   23816696.0704
  -9326956.07048  -7259675.35546  21090581.3284                   21090576.2624
 -19204062.74648 -14949356.44947  20521060.5394                   20521057.7194
 -14333504.90648 -11155476.30146  22206384.4224   22206384.1484
 11  8 16  1 43  0.0000000  0  7G10G29G12G04G02G05G25
  -6228326.99247  -4750150.48445  21977600.2274                   21977597.3444
  -9156520.42646  -7127430.03543  24206542.8054                   24206542.0164
 -15276946.98048 -11889543.93746  20876809.5634                   20876806.3754
  11588815.66447   9049436.69143  23841088.0944                   23841085.8754
  -9252404.56648  -7201583.25846  21104768.1174                   21104762.7234
 -19187592.84448 -14936522.72347  20524194.7814                   20524191.4224
 -14341319.54748 -11161565.59846  22204897.0784   22204897.0664
 11  8 16  1 43 30.0000000  0  7G10G29G12G04G02G05G25
  -6107345.25847  -4655879.00045  22000622.4694                   22000620.0314
  -9191873.48046  -7154977.77343  24199815.3284                   24199814.3524
 -15218933.87948 -11844338.91446  20887848.8674                   20887845.8404
  11716952.51647   9149283.61743  23865471.3914                   23865469.8134
  -9177705.50448  -7143376.18746  21118982.9064                   21118977.2934
 -19170551.68048 -14923243.86347  20527437.5474                   20527434.2664
 -14348630.73048 -11167262.58646  22203506.0394   22203505.3484
 11  8 16  1 44  0.0000000  0  7G10G29G12G04G02G05G25
  -5985914.62948  -4561257.71945  22023729.5234                   22023726.9734
  -9227269.18046  -7182558.76644  24193080.2194                   24193078.8444
 -15160330.78548 -11798674.14846  20899000.7664                   20898997.7304
  11845060.08647   9249107.72343  23889849.3444                   23889847.7934
  -9102854.54348  -7085050.73846  21133226.5314                   21133221.3404
 -19152933.31248 -14909515.23047  20530790.2114                   20530786.8634
 -14355431.37148 -11172561.75846  22202211.7814   22202210.4884
 11  8 16  1 44 30.0000000  0  7G10G29G12G04G02G05G25
  -5864032.12547  -4466284.34045  22046923.5784                   22046920.6294
  -9262701.22746  -7210168.07044  24186337.1254                   24186336.2464
 -15101132.41448 -11752545.53946  20910265.7274                   20910262.8834
  11973143.16047   9348912.72743  23914222.4384                   23914221.1024
  -9027846.87548  -7026603.18046  21147499.7114                   21147494.4494
 -19134731.18048 -14895331.72347  20534253.9534                   20534251.0474
 -14361714.03948 -11177457.30546  22201016.0394   22201015.7114
 11  8 16  1 45  0.0000000  0  7G10G29G12G04G02G05G25
  -5741703.98847  -4370963.70345  22070201.7974                   22070199.1724
  -9298172.24247  -7237807.80944  24179588.1954                   24179586.3834
 -15041342.54348 -11705956.00446  20921643.5234                   20921640.3834
  12101197.12547   9448695.05943  23938590.3594                   23938588.6604
  -8952687.35248  -6968037.31646  21161802.5864                   21161797.4064
 -19115949.13748 -14880696.33247  20537828.0634                   20537824.9614
 -14367480.76648 -11181950.80946  22199918.4614   22199917.9104
 11  8 16  1 45 30.0000000  0  7G10G29G12G04G02G05G25
  -7194355.54347  -5502899.98445  21793771.4694                   21793768.8244
 -10909109.36746  -8493083.39844  23873035.8914                   23873035.3554
 -16556386.44948 -12886509.68746  20633340.2194                   20633337.4344
  10653799.35947   8320852.64844  23663159.5164                   23663158.0354
 -10452800.51248  -8136956.64146  20876340.1484                   20876335.2934
 -20672011.96948 -16093212.80147  20241719.3054                   20241715.9454
 -15948156.35548 -12413646.03146  21899125.9844   21899125.7544
 11  8 16  1 46  0.0000000  0  7G10G29G12G04G02G05G25
  -7071154.98047  -5406899.53945  21817215.4614                   21817212.5004
 -10944666.56347  -8520790.22344  23866270.3984                   23866269.5704
 -16495426.37948 -12839008.32046  20644940.7274                   20644937.3674
  10781783.13347   8420580.25443  23687514.9454                   23687513.0824
 -10377349.84048  -8078163.90246  20890697.8914                   20890692.7774
 -20652077.43048 -16077679.36747  20245512.3364                   20245509.4144
 -15952896.04748 -12417339.25846  21898223.9454   21898223.9104
 11  8 16  1 46 30.0000000  0  7G10G29G12G04G02G05G25
  -6947520.92648  -5310561.30145  21840742.6564                   21840739.5744
 -10980264.23847  -8548528.61344  23859496.3204                   23859494.8284
 -16433880.93048 -12791050.81646  20656652.1804                   20656649.2974
  10909732.05147   8520280.75843  23711861.9534                   23711860.0554
 -10301753.84048  -8019257.91046  20905083.4774                   20905078.2584
 -20631564.76248 -16061695.43747  20249415.8054                   20249412.7934
 -15957118.30148 -12420629.29346  21897420.2814   21897420.1914
 11  8 16  1 47  0.0000000  0  7G10G29G12G04G02G05G25
  -6823452.44947  -5213884.55145  21864351.8834                   21864349.0594
 -11015897.84046  -8576295.02344  23852715.0704                   23852713.8914
 -16371746.76248 -12742634.56646  20668476.1644                   20668472.9654
  11037649.37147   8619956.59443  23736204.1174                   23736203.0744
 -10226009.55548  -7960236.37946  20919496.9774                   20919492.2194
 -20610469.65248 -16045257.66047  20253430.2424                   20253426.9804
 -15960817.60248 -12423511.82046  21896716.6094   21896716.3134
 11  8 16  1 47 30.0000000  0  7G10G29G12G04G02G05G25
  -6698953.00447  -5116871.99245  21888042.7814                   21888040.1604
 -11051566.76247  -8604088.95744  23845927.8674                   23845926.0204
 -16309024.86748 -12693760.35246  20680411.7114                   20680408.4774
  11165533.54747   8719606.62143  23760539.7664                   23760537.6644
 -10150118.62548  -7901100.58246  20933938.6484                   20933933.6294
 -20588792.15648 -16028366.07047  20257555.2894                   20257551.8834
 -15963992.97748 -12425986.10246  21896112.0474   21896111.9924
 11  8 16  1 48  0.0000000  0  7G10G29G12G04G02G05G25
  -6574030.91847  -5019530.09845  21911814.9844                   21911812.0434
 -11087275.96946  -8631914.30144  23839132.2034                   23839130.1484
 -16245721.70348 -12644433.20346  20692457.9224                   20692454.6484
  11293378.61346   8819226.17243  23784867.1024                   23784865.9454
 -10074087.25848  -7841855.34046  20948406.7504                   20948401.6724
 -20566537.24648 -16011024.55147  20261790.1484                   20261787.0984
 -15966648.27348 -12428055.12546  21895606.9064   21895606.8404
 11  8 16  1 48 30.0000000  0  7G10G29G12G04G02G05G25
  -6448685.53147  -4921858.35945  21935667.2194                   21935664.4224
 -11123021.51647  -8659767.94544  23832330.1094                   23832328.6484
 -16181834.36348 -12594650.85946  20704615.1484                   20704611.9224
  11421187.02346   8918817.15643  23809188.9614                   23809187.6334
  -9997913.47348  -7782499.13346  20962902.4304                   20962897.1954
 -20543701.65248 -15993230.54747  20266135.8524                   20266132.6954
 -15968778.69148 -12429715.14845  21895201.2114   21895200.9064
 11  8 16  1 49  0.0000000  0  7G10G29G12G04G02G05G25
  -6322921.87947  -4823860.69945  21959599.1484                   21959597.0904
 -11158804.19147  -8687650.49244  23825520.7504                   23825519.2854
 -16117366.02748 -12544415.78146  20716882.8834                   20716879.7934
  11548955.91846   9018377.34843  23833501.7974                   23833501.0864
  -9921600.19148  -7723034.21946  20977424.3444                   20977419.4574
 -20520286.78548 -15974985.16847  20270591.0864                   20270588.1764
 -15970384.68048 -12430966.53546  21894895.4064   21894895.1254
 11  8 16  1 49 30.0000000  0  7G10G29G12G04G02G05G25
  -6196735.59047  -4725533.71545  21983611.7734                   21983608.8014
 -11194615.85947  -8715555.62144  23818706.6174                   23818704.6524
 -16052310.37148 -12493723.05546  20729262.6174                   20729259.3094
  11676692.30146   9117912.17643  23857810.0084                   23857808.4734
  -9845140.64148  -7663455.33646  20991973.9144                   20991968.5824
 -20496284.93048 -15956282.39147  20275158.4614                   20275155.4494
 -15971457.15648 -12431802.18746  21894691.4144   21894691.7854
 11  8 16  1 50  0.0000000  0  7G10G29G12G04G02G05G25
  -6070137.03147  -4626885.48845  22007703.1954                   22007700.2734
 -11230463.01247  -8743488.44944  23811884.7424                   23811883.1684
 -15986675.38748 -12442578.91046  20741752.6884                   20741749.3484
  11804387.82446   9217415.23443  23882109.2194                   23882107.9024
  -9768543.68848  -7603769.37946  21006549.7344                   21006544.9344
 -20471703.37548 -15937127.90647  20279836.3834                   20279833.0474
 -15972002.21548 -12432226.87546  21894588.0554   21894587.2774
 11  8 16  1 50 30.0000000  0  7G10G29G12G04G02G05G25
  -5943126.93447  -4527916.57445  22031871.9534                   22031869.6954
 -11266342.83247  -8771446.71144  23805056.7344                   23805055.1524
 -15920459.76648 -12390982.30546  20754352.8364                   20754349.3524
  11932044.11746   9316887.69943  23906401.1954                   23906400.0864
  -9691807.65248  -7543975.05146  21021151.9454                   21021147.1334
 -20446539.73848 -15917519.84047  20284624.8754                   20284621.5434
 -15972016.13748 -12432237.69546  21894585.0164   21894584.9774
 11  8 16  1 51  0.0000000  0  7G10G29G12G04G02G05G25
  -5815711.16047  -4428631.55145  22056117.8674                   22056115.6644
 -11302257.39146  -8799432.03544  23798222.6724                   23798221.3444
 -15853667.50848 -12338936.38746  20767063.2894                   20767060.0864
  12059657.10747   9416326.41943  23930686.2504                   23930683.6254
  -9614936.74648  -7484075.62946  21035780.7734                   21035775.4884
 -20420796.91448 -15897460.46947  20289523.4454                   20289520.1094
 -15971500.59848 -12431835.92246  21894683.3674   21894683.0084
 11  8 16  1 51 30.0000000  0  7G10G29G12G04G02G05G25
  -5687895.25847  -4329034.73845  22080441.2814                   22080438.4454
 -11338208.62546  -8827445.94144  23791381.0864                   23791379.8984
 -15786301.85548 -12286443.66846  20779882.3914                   20779879.0864
  12187224.07446   9515729.25843  23954960.4924                   23954958.5394
  -9537934.32048  -7424073.71546  21050433.6644                   21050428.0744
 -20394476.97748 -15876951.39847  20294531.9384                   20294528.9344
 -15970456.66048 -12431022.42246  21894882.1254   21894881.6804
 11  8 16  1 52  0.0000000  0  7G10G29G12G04G02G05G25
  -5559671.66447  -4229120.24645  22104841.0704                   22104838.4494
 -11374184.96946  -8855479.35944  23784534.8674                   23784533.3094
 -15718353.58248 -12233496.95746  20792812.1564                   20792808.9104
  12314754.38346   9615103.52343  23979228.6174                   23979227.1844
  -9460790.95748  -7363961.98046  21065113.2114                   21065108.1724
 -20367569.62948 -15855984.59447  20299651.9534                   20299649.2464
 -15968872.39548 -12429787.89146  21895183.6024   21895183.4064
 11  8 16  1 52 30.0000000  0  7G10G29G12G04G02G05G25
  -5431051.22347  -4128896.52345  22129316.4924                   22129314.2114
 -11410193.25847  -8883537.70344  23777683.1804                   23777681.2584
 -15649831.63348 -12180103.22746  20805851.5554                   20805848.6954
  12442239.84846   9714442.86343  24003488.7344                   24003486.3444
  -9383515.51648  -7303747.33246  21079818.2814                   21079813.0044
 -20340082.27048 -15834565.84847  20304882.8284                   20304879.8674
 -15966754.18448 -12428137.29746  21895586.9534   21895586.0704
 11  8 16  1 53  0.0000000  0  7G10G29G12G04G02G05G25
  -5302029.64147  -4028360.21145  22153869.1724                   22153866.3594
 -11446225.84447  -8911614.96144  23770825.9454                   23770824.3874
 -15580729.69148 -12126257.55146  20819001.3594                   20818998.3054
  12569686.57846   9813751.99643  24027740.9694                   24027738.8594
  -9306101.66048  -7243424.82846  21094549.6644                   21094544.5784
 -20312007.77748 -15812689.59847  20310225.1954                   20310222.1764
 -15964093.69548 -12426064.15246  21896093.0394   21896092.2854
 11  8 16  1 53 30.0000000  0  7G10G29G12G04G02G05G25
  -5172613.41847  -3927516.39545  22178496.0234                   22178493.4924
 -11482285.31647  -8939713.16044  23763964.6644                   23763962.8714
 -15511052.09048 -12071963.31646  20832260.8284                   20832257.1994
  12697090.69946   9913027.93843  24051985.2504                   24051983.5744
  -9228554.03548  -7182998.09446  21109306.4384                   21109301.3324
 -20283349.62548 -15790358.53547  20315678.4694                   20315675.1914
 -15960893.07048 -12423570.12546  21896702.1094   21896701.5704
 11  8 16  1 54  0.0000000  0  7G10G29G12G04G02G05G25
  -5042809.45347  -3826370.44545  22203196.7664                   22203194.1804
 -11518374.36747  -8967834.44944  23757096.0864                   23757094.1724
 -15440803.97348 -12017224.52746  20845628.3284                   20845624.9454
  12824447.46146  10012266.99243  24076219.8364                   24076218.7544
  -9150877.14848  -7122470.62946  21124087.8134                   21124082.4654
 -20254111.69948 -15767575.70747  20321242.4064                   20321239.0234
 -15957154.75048 -12420657.10246  21897413.5394   21897412.7704
 11  8 16  1 54 30.0000000  0  7G10G29G12G04G02G05G25
  -4912613.33247  -3724918.93045  22227971.9454                   22227969.8674
 -11554484.55547  -8995972.19544  23750224.9694                   23750223.2114
 -15369979.07048 -11962036.28146  20859106.2814                   20859102.6414
  12951763.73446  10111474.49643  24100448.0004                   24100446.1484
  -9073064.63748  -7061837.47746  21138895.0704                   21138889.6994
 -20224286.17648 -15744335.00847  20326918.0554                   20326914.9804
 -15952870.06348 -12417318.35246  21898228.3674   21898228.0004
 11  8 16  1 55  0.0000000  0  7G10G29G12G04G02G05G25
  -4782034.13347  -3623168.89545  22252820.4924                   22252818.0704
 -11590621.27047  -9024130.63744  23743347.9144                   23743346.6134
 -15298584.63348 -11906404.24246  20872691.7194                   20872688.4104
  13079032.73046  10210645.16043  24124665.8444                   24124665.0204
  -8995123.53148  -7001104.12546  21153726.6334                   21153721.7304
 -20193879.59848 -15720641.54347  20332704.5084                   20332700.8444
 -15948043.85548 -12413557.63346  21899146.8674   21899145.9964
 11  8 16  1 55 30.0000000  0  7G10G29G12G04G02G05G25
  -4651075.77747  -3521123.42645  22277740.7504                   22277738.6094
 -11626784.78547  -9052309.94144  23736466.3914                   23736465.3954
 -15226622.74648 -11850330.04346  20886385.6334                   20886381.8914
  13206253.27746  10309778.07043  24148875.8054                   24148874.0354
  -8917055.57048  -6940271.93446  21168582.6954                   21168577.3914
 -20162892.77048 -15696495.93747  20338600.9144                   20338597.8054
 -15942675.69148 -12409374.60946  21900168.4614   21900168.0594
 11  8 16  1 56  0.0000000  0  7G10G29G12G04G02G05G25
  -4519735.65247  -3418780.46145  22302734.3444                   22302731.7624
 -11662968.09447  -9080504.64844  23729581.0234                   23729579.7304
 -15154089.09448 -11793810.30546  20900188.6174                   20900184.9614
  13333429.88346  10408876.74243  24173077.0234                   24173074.8984
  -8838856.07848  -6879337.25046  21183463.7424                   21183458.3014
 -20131320.05548 -15671893.78947  20344608.7584                   20344605.7854
 -15936758.84048 -12404764.04346  21901294.4614   21901293.9104
 11  8 16  1 56 30.0000000  0  7G10G29G12G04G02G05G25
  -4388021.38347  -3316145.95745  22327798.4924                   22327795.9964
 -11699175.18447  -9108717.89144  23722691.1724                   23722689.0784
 -15080989.48048 -11736849.57046  20914098.8364                   20914095.1524
  13460557.42247  10507937.13743  24197268.3834                   24197266.5474
  -8760531.24648  -6818304.89146  21198368.0394                   21198362.9924
 -20099166.59448 -15646839.10947  20350727.6804                   20350724.2234
 -15930296.92248 -12399728.75446  21902524.0314   21902523.3244
 11  8 16  1 57  0.0000000  0  7G10G29G12G04G02G05G25
  -4255935.79747  -3213222.13745  22352934.5394                   22352931.2114
 -11735404.77347  -9136948.69944  23715797.0164                   23715795.1724
 -15007324.23448 -11679448.06646  20928116.8754                   20928113.2584
  13587635.57847  10606959.07443  24221450.4774                   24221448.1094
  -8682080.84448  -6757174.68846  21213296.8754                   21213291.4384
 -20066431.93448 -15621331.55947  20356956.7274                   20356953.2464
 -15923288.18048 -12394267.35546  21903857.5944   21903857.1174
 11  8 16  1 57 30.0000000  0  7G10G29G12G04G02G05G25
  -4123475.07447  -3110005.97345  22378140.1174                   22378137.3404
 -11771649.28947  -9165191.13344  23708899.6484                   23708898.6294
 -14933088.93448 -11621602.37546  20942243.8674                   20942240.0784
  13714670.27346  10705947.18443  24245624.4774                   24245622.2034
  -8603499.19548  -6695942.21546  21228250.2344                   21228245.4734
 -20033109.58248 -15595366.05547  20363297.7664                   20363294.6844
 -15915724.94548 -12388373.89846  21905296.8524   21905296.5634
 11  8 16  1 58  0.0000000  0  7G10G29G12G04G02G05G25
  -3990644.90247  -3006501.93044  22403416.5234                   22403414.1174
 -11807910.27747  -9193446.43044  23701999.3364                   23701997.4844
 -14858287.07448 -11563315.19146  20956477.4614                   20956474.2034
  13841658.50446  10804899.05943  24269789.3364                   24269787.4774
  -8524789.84447  -6634610.23446  21243228.0634                   21243223.0664
 -19999202.16848 -15568944.66847  20369750.0634                   20369746.6684
 -15907608.62948 -12382049.45746  21906841.6484   21906841.1914
 11  8 16  1 58 30.0000000  0  7G10G29G12G04G02G05G25
  -3857456.12147  -2902718.45345  22428762.0314                   22428759.5394
 -11844194.46547  -9221719.77344  23695094.3204                   23695093.5704
 -14782927.60548 -11504593.52746  20970818.0314                   20970815.0904
  13968591.72746  10903808.05943  24293944.3364                   24293942.5864
  -8445961.81648  -6573185.77746  21258228.5944                   21258223.4454
 -19964717.87548 -15542073.76247  20376311.9774                   20376308.5554
 -15898945.96148 -12375299.29346  21908489.9534   21908489.4494
 11  8 16  1 59  0.0000000  0  7G10G29G12G04G02G05G25
  -3723903.29747  -2798651.30945  22454176.6174                   22454173.5124
 -11880492.14847  -9250003.62144  23688187.0004                   23688185.3984
 -14707003.52748 -11445431.90246  20985265.8834                   20985262.7704
  14095478.42246  11002680.80943  24318089.4454                   24318088.6094
  -8367006.85948  -6511662.41046  21273253.2504                   21273248.3054
 -19929648.21948 -15514746.73047  20382985.5474                   20382982.0904
 -15889727.09848 -12368115.73846  21910244.0164   21910243.3754
 11  8 16  1 59 30.0000000  0  7G10G29G12G04G02G05G25
  -3589989.91447  -2694303.21544  22479658.6484                   22479656.8014
 -11916803.43447  -9278298.10944  23681277.9304                   23681276.1334
 -14630516.50047 -11385831.61746  20999821.2974                   20999817.7344
  14222316.88346  11101515.99243  24342225.3984                   24342223.7504
  -8287926.72747  -6450041.49646  21288301.5164                   21288296.2464
 -19893994.05948 -15486964.23847  20389770.4614                   20389767.3554
 -15879951.56648 -12360498.40646  21912104.4384   21912104.1374
 11  8 16  2  0  0.0000000  0  7G10G29G12G04G02G05G25
  -3455723.20747  -2589679.80145  22505209.4064                   22505206.4654
 -11953131.01647  -9306605.27744  23674364.2274                   23674363.1374
 -14553472.08648 -11325797.00046  21014481.9304                   21014478.4734
  14349102.67246  11200310.12943  24366352.2194                   24366350.3594
  -8208726.54348  -6388327.03946  21303373.1334                   21303367.8484
 -19857759.83648 -15458729.75047  20396665.4924                   20396662.3094
 -15869622.63748 -12352449.86346  21914069.8284   21914069.1214
 11  8 16  2  0 30.0000000  0  7G10G29G12G04G02G05G25
  -3321103.73047  -2484781.49244  22530826.6644                   22530823.4924
 -11989471.02747  -9334922.14544  23667449.1644                   23667447.1174
 -14475869.18047 -11265327.19546  21029249.4064                   21029245.7544
  14475837.88346  11299064.82843  24390469.5004                   24390466.6844
  -8129404.24647  -6326517.42646  21318467.5004                   21318462.2304
 -19820943.15648 -15430041.39847  20403671.5314                   20403668.1134
 -15858736.55148 -12343967.16046  21916141.3834   21916140.9304
 11  8 16  2  1  0.0000000  0  7G10G29G12G04G02G05G25
  -3186136.82847  -2379612.46544  22556509.4304                   22556507.1994
 -12025825.21146  -9363250.00844  23660531.1414                   23660529.8834
 -14397711.15648 -11204424.83246  21044122.3134                   21044118.9304
  14602519.60546  11397777.89543  24414576.3134                   24414573.6524
  -8049963.15648  -6264615.25846  21333584.3444                   21333579.5004
 -19783546.72348 -15400901.29347  20410787.8594                   20410784.3524
 -15847294.51248 -12335051.25846  21918318.5784   21918318.3874
 11  8 16  2  1 30.0000000  0  7G10G29G12G04G02G05G25
  -3050822.78147  -2274172.94144  22582258.9144                   22582256.5704
 -12062189.85947  -9391586.03544  23653610.8284                   23653609.8484
 -14318997.60247 -11143089.58246  21059100.8364                   21059097.7234
  14729149.96946  11496450.91843  24438673.6174                   24438671.8014
  -7970401.28548  -6202618.96146  21348724.7114                   21348719.1334
 -19745568.33248 -15371307.71547  20418014.9224                   20418011.3244
 -15835293.10548 -12325699.47746  21920602.0944   21920601.8594
 11  8 16  2  2  0.0000000  0  8G10G29G12G04G02G05G25G26
  -2915163.26647  -2168464.23844  22608074.5234                   22608071.7114
 -12098562.34847  -9419928.17244  23646690.7344                   23646688.3404
 -14239728.27748 -11081321.27746  21074185.4614                   21074182.0984
  14855729.53146  11595084.39843  24462759.7734                   24462758.8444
  -7890718.52048  -6140528.47746  21363887.8134                   21363882.4964
 -19707007.02348 -15341259.92247  20425352.7734                   20425349.5474
 -15822729.96148 -12315909.99646  21922993.1094   21922992.0124
  -9532364.03956  -7418545.43052  24951013.9534                   24951014.8284
 11  8 16  2  2 30.0000000  0  8G10G29G12G04G02G05G25G26
  -4354582.27747  -3290089.44144  22334162.2814                   22334159.6374
 -13710368.57447 -10675881.03944  23339972.8674                   23339971.8014
 -15735327.39848 -12246723.18846  20789582.2974                   20789579.0824
  13406836.86746  10466077.15243  24187045.1094                   24187043.1524
  -9386338.28948  -7305946.44946  21079280.6724                   21079275.5664
 -21243287.25848 -16538361.37947  20133008.1884                   20133004.4774
 -17385029.18748 -13533285.98446  21625697.1094   21625696.7504
 -11153778.11346  -8681984.82042  24642469.4694                   24642469.9574
 11  8 16  2  3  0.0000000  0  8G10G29G12G04G02G05G25G26
  -4218253.03147  -3183858.87144  22360104.5944                   22360102.0824
 -13746765.92647 -10704242.55144  23333047.1254                   23333045.0004
 -15654963.05148 -12184101.61346  20804875.1724                   20804872.1374
  13533301.63746  10564621.13343  24211110.2814                   24211108.8204
  -9306427.61348  -7243678.36746  21094487.3914                   21094481.9384
 -21203573.23848 -16507415.35547  20140565.6724                   20140562.3714
 -17371351.89148 -13522628.31646  21628299.8594   21628299.5354
 -11199899.68846  -8717923.59842  24633693.1254                   24633693.8634
 11  8 16  2  3 30.0000000  0  8G10G29G12G04G02G05G25G26
  -4081586.72747  -3077365.64845  22386110.8594                   22386108.4064
 -13783167.26246 -10732607.16444  23326120.1094                   23326118.1724
 -15574046.73848 -12121049.94146  20820273.1024                   20820269.7114
  13659714.97746  10663125.04743  24235166.3444                   24235164.9414
  -9226397.56648  -7181317.27046  21109716.7274                   21109711.0864
 -21163276.52348 -16476015.29747  20148233.7114                   20148230.3484
 -17357109.30948 -13511530.18046  21631010.2034   21631009.2584
 -11246140.24646  -8753955.11743  24624893.8754                   24624893.4494
 11  8 16  2  4  0.0000000  0  8G10G29G12G04G02G05G25G26
  -3944595.39847  -2970619.16445  22412180.0784                   22412177.2544
 -13819580.41447 -10760980.95745  23319190.9774                   23319188.6804
 -15492588.88747 -12057576.29746  20835774.0084                   20835770.5474
  13786067.55146  10761581.59842  24259210.7584                   24259209.1954
  -9146257.66847  -7118870.58646  21124966.3674                   21124961.3714
 -21122406.76648 -16444168.70747  20156010.9064                   20156007.5354
 -17342309.52748 -13499997.85946  21633826.6484   21633826.2234
 -11292505.86346  -8790084.08243  24616070.2894                   24616070.3794
 11  8 16  2  4 30.0000000  0  8G10G29G12G04G02G05G25G26
  -3807270.01647  -2863612.35944  22438311.9304                   22438309.4264
 -13855992.07847 -10789353.60244  23312261.4304                   23312260.0314
 -15410579.11348 -11993672.58646  20851380.1024                   20851376.9384
  13912370.92246  10859999.85243  24283245.2974                   24283243.0704
  -9065996.57848  -7056329.46146  21140239.6484                   21140234.4454
 -21080952.48448 -16411866.64847  20163899.7274                   20163896.3484
 -17326939.59448 -13488021.26646  21636751.4224   21636750.4184
 -11338981.98846  -8826299.16843  24607226.8914                   24607225.6764
 11  8 16  2  5  0.0000000  0  8G10G29G12G04G02G05G25G26
  -3669616.63747  -2756350.00044  22464506.7894                   22464503.5784
 -13892404.21547 -10817726.59844  23305332.5164                   23305331.2154
 -15328022.00847 -11929342.37546  20867090.0864                   20867086.7194
  14038621.70346  10958377.11743  24307269.6254                   24307268.0234
  -8985618.31347  -6993697.03146  21155534.8834                   21155529.5784
 -21038917.02748 -16379111.72347  20171898.6254                   20171895.3984
 -17311001.72348 -13475602.12546  21639783.6644   21639783.5554
 -11385568.75846  -8862600.41443  24598361.1174                   24598360.3634
 11  8 16  2  5 30.0000000  0  8G10G29G12G04G02G05G25G26
  -3531644.21947  -2648839.02344  22490761.9384                   22490759.1994
 -13928821.75847 -10846103.82044  23298402.7274                   23298400.6804
 -15244924.73448 -11864591.25846  20882903.0474                   20882899.5314
  14164813.45746  11056708.36743  24331283.7344                   24331281.5314
  -8905129.57448  -6930978.51246  21170851.5864                   21170846.0124
 -20996306.88348 -16345908.98047  20180007.2274                   20180003.8244
 -17294500.97748 -13462744.37146  21642924.3134   21642923.4654
 -11432269.09846  -8898990.19543  24589474.3054                   24589473.2274
 11  8 16  2  6  0.0000000  0  8G10G29G12G04G02G05G25G26
  -3393347.35247  -2541075.22744  22517079.0474                   22517076.1254
 -13965234.85247 -10874477.59044  23291473.4454                   23291471.5784
 -15161281.27348 -11799414.53946  20898819.6884                   20898816.7704
  14290954.14846  11154999.83643  24355286.7734                   24355285.1644
  -8824522.50847  -6868167.79746  21186190.6804                   21186185.4264
 -20953114.04748 -16312252.20347  20188226.2584                   20188222.6844
 -17277428.16448 -13449440.87146  21646172.9454   21646172.4344
 -11479072.30146  -8935460.16043  24580568.0474                   24580567.4804
 11  8 16  2  6 30.0000000  0  8G10G29G12G04G02G05G25G26
  -3254736.68847  -2433066.91844  22543455.8364                   22543452.5984
 -14001650.35247 -10902853.20345  23284544.0864                   23284541.7544
 -15077100.32048 -11733819.00046  20914838.8914                   20914835.9304
  14417035.76247  11253245.23443  24379279.0554                   24379278.3594
  -8743805.30547  -6805271.26246  21201550.7974                   21201545.2154
 -20909346.65248 -16278147.71147  20196555.0164                   20196551.6214
 -17259790.06648 -13435696.88746  21649529.3594   21649528.6334
 -11525982.85546  -8972013.73043  24571640.7584                   24571640.6134
 11  8 16  2  7  0.0000000  0  8G10G29G12G04G02G05G25G26
  -3115808.36347  -2324811.07444  22569892.7584                   22569889.8594
 -14038059.62547 -10931223.97344  23277615.2274                   23277613.5044
 -14992376.68848 -11667800.59446  20930961.6724                   20930958.1844
  14543064.84847  11351449.73443  24403263.1564                   24403260.2934
  -8662972.10948  -6742284.34046  21216932.4534                   21216927.3054
 -20864998.25848 -16243590.49247  20204994.3284                   20204990.8164
 -17241579.03548 -13421506.44546  21652994.7194   21652994.2814
 -11572991.12946  -9008643.43843  24562695.0084                   24562695.1804
 11  8 16  2  7 30.0000000  0  8G10G29G12G04G02G05G25G26
  -2976565.36347  -2216310.02744  22596389.4064                   22596386.8204
 -14074461.48847 -10959588.94945  23270688.2584                   23270686.2664
 -14907112.39548 -11601360.88746  20947186.6804                   20947182.9574
  14669041.00047  11449612.95343  24427234.5394                   24427232.9344
  -8582023.48048  -6679207.47746  21232336.4694                   21232331.5634
 -20820069.96148 -16208581.41447  20213543.9144                   20213540.7344
 -17222794.30948 -13406868.97346  21656569.2344   21656568.6054
 -11620094.09846  -9045346.93843  24553731.8054                   24553731.5314
 11  8 16  2  8  0.0000000  0  8G10G29G12G04G02G05G25G26
  -2837017.40647  -2107571.37144  22622944.8054                   22622942.2424
 -14110861.66847 -10987952.64844  23263761.3524                   23263759.9184
 -14821315.59448 -11534506.25046  20963512.9924                   20963509.3634
  14794957.09047  11547729.40643  24451195.6724                   24451193.8524
  -8500966.61748  -6616046.27346  21247760.9924                   21247755.7114
 -20774568.81248 -16173125.95347  20222202.3674                   20222199.0124
 -17203441.93448 -13391789.18046  21660252.3204   21660251.3164
 -11667296.07446  -9082127.55543  24544749.5634                   24544748.9804
 11  8 16  2  8 30.0000000  0  8G10G29G12G04G02G05G25G26
  -2697163.12147  -1998594.02344  22649558.3914                   22649555.7034
 -14147254.43047 -11016310.57044  23256835.9064                   23256834.1174
 -14734983.26648 -11467234.30946  20979941.7664                   20979938.0744
  14920817.19947  11645802.22743  24475146.5944                   24475144.2384
  -8419797.84048  -6552797.86746  21263207.4844                   21263202.0664
 -20728491.01248 -16137221.15247  20230970.5864                   20230967.1954
 -17183516.65248 -13376262.97746  21664043.8444   21664043.0274
 -11714589.29746  -9118979.28943  24535749.5634                   24535748.9304
 11  8 16  2  9  0.0000000  0  8G10G29G12G04G02G05G25G26
  -2557007.48447  -1889381.84044  22676228.8834                   22676226.7114
 -14183640.22747 -11044663.07444  23249911.4064                   23249910.4264
 -14648119.48448 -11399548.25846  20996471.1804                   20996467.9144
  15046619.22346  11743829.78943  24499084.6334                   24499083.6054
  -8338519.77748  -6489464.29746  21278674.0864                   21278668.6914
 -20681838.94948 -16100868.87547  20239848.1334                   20239844.8754
 -17163019.67248 -13360291.28146  21667944.1024   21667943.3164
 -11761972.80546  -9155901.40643  24526733.7344                   24526732.6684
 11  8 16  2  9 30.0000000  0  8G10G29G12G04G02G05G25G26
  -2416556.30547  -1779939.35544  22702955.4224                   22702953.7034
 -14220021.16447 -11073011.77044  23242988.7194                   23242986.4304
 -14560728.94148 -11331451.73046  21013101.2664                   21013097.5314
  15172359.62146  11841809.30943  24523013.3914                   24523011.4024
  -8257136.12948  -6426048.44546  21294160.7424                   21294155.2424
 -20634616.49648 -16064072.13347  20248834.3204                   20248830.8014
 -17141953.39548 -13343875.98046  21671953.1094   21671952.8094
 -11809447.05946  -9192894.18843  24517698.7344                   24517697.8714
 11  8 16  2 10  0.0000000  0  8G10G29G12G04G02G05G25G26
  -2275804.62147  -1670262.71944  22729740.0004                   22729737.2464
 -14256387.64147 -11101349.21144  23236068.2194                   23236065.9224
 -14472805.02748 -11262939.59846  21029832.1094                   21029828.9844
  15298046.14147  11939746.91443  24546930.6484                   24546928.8244
  -8175639.25048  -6362544.37546  21309668.8914                   21309664.0514
 -20586816.17248 -16026825.10947  20257930.3204                   20257927.1844
 -17120309.00848 -13327010.20346  21676071.7734   21676071.5634
 -11857000.70346  -9229948.82443  24508649.2344                   24508649.3204
 11  8 16  2 10 30.0000000  0  8G10G29G12G04G02G05G25G26
  -2134763.05947  -1560360.21544  22756579.4614                   22756576.7504
 -14292746.03547 -11129680.34444  23229149.8284                   23229147.1914
 -14384357.54348 -11194019.48446  21046663.5314                   21046660.2814
  15423670.87546  12037636.29743  24570834.7584                   24570834.3484
  -8094037.59448  -6298958.64846  21325197.3364                   21325191.6914
 -20538446.69548 -15989134.58647  20267134.8364                   20267131.3444
 -17098093.79348 -13309699.62546  21680299.3054   21680298.7774
 -11904638.85546  -9267069.41042  24499584.3594                   24499583.7274
 11  8 16  2 11  0.0000000  0  8G10G29G12G04G02G05G25G26
  -1993427.47347  -1450228.58644  22783474.6804                   22783472.3284
 -14329087.90247 -11157998.60544  23222233.6564                   23222231.5704
 -14295381.27348 -11124687.33646  21063595.3054                   21063592.0944
  15549240.57646  12135482.83743  24594730.1884                   24594729.7584
  -8012324.83648  -6235286.36746  21340746.7504                   21340741.0944
 -20489501.43748 -15950995.40647  20276448.8134                   20276445.1884
 -17075299.87048 -13291938.11046  21684636.9844   21684636.1174
 -11952351.24646  -9304247.80143  24490504.7424                   24490504.4384
 11  8 16  2 11 30.0000000  0  8G10G29G12G04G02G05G25G26
  -1851802.59047  -1339871.55544  22810424.7894                   22810422.4104
 -14365413.68047 -11186304.31645  23215320.4614                   23215318.8484
 -14205879.73048 -11054945.87146  21080626.8984                   21080623.0824
  15674753.25846  12233284.88343  24618614.8594                   24618613.5664
  -7930503.30547  -6171529.31646  21356316.8594                   21356311.6024
 -20439983.03148 -15912409.61347  20285871.3594                   20285867.9654
 -17051928.50848 -13273726.62146  21689084.4774   21689083.6254
 -12000136.85546  -9341483.18443  24481411.6414                   24481411.0864
 11  8 16  2 12  0.0000000  0  8G10G29G12G04G02G05G25G26
  -1709893.10247  -1229292.75044  22837429.6954                   22837427.0164
 -14401723.91447 -11214597.92244  23208411.5944                   23208409.4024
 -14115856.21548 -10984797.68446  21097757.5704                   21097754.2814
  15800206.87546  12331040.97743  24642487.7894                   24642486.3054
  -7848575.09047  -6107689.13746  21371907.1414                   21371902.1094
 -20389893.61748 -15873378.88347  20295403.4144                   20295400.2774
 -17027980.70348 -13255065.98046  21693641.3134   21693640.5084
 -12047994.37147  -9378774.67243  24472304.6564                   24472303.5704
 11  8 16  2 12 30.0000000  0  8G10G29G12G04G02G05G25G26
  -1567705.06347  -1118496.87544  22864487.3284                   22864484.0044
 -14438020.16847 -11242880.66044  23201504.2114                   23201502.3284
 -14025316.07848 -10914246.93046  21114986.4454                   21114983.2894
  15925597.89546  12428748.26243  24666348.6094                   24666347.9304
  -7766543.86347  -6043768.69546  21387516.9774                   21387512.1954
 -20339237.30548 -15833906.41447  20305042.9064                   20305039.6174
 -17003459.18048 -13235958.28546  21698307.6804   21698306.5744
 -12095923.84847  -9416122.23043  24463183.4064                   24463183.1094
 11  8 16  2 13  0.0000000  0  8G10G29G12G04G02G05G25G26
  -1425240.33647  -1007485.38344  22891597.3674                   22891594.2344
 -14474299.77747 -11271150.41044  23194600.9694                   23194597.9804
 -13934259.67648 -10843293.89546  21132314.2974                   21132310.8874
  16050927.78946  12526407.89142  24690197.6724                   24690197.5354
  -7684409.02048  -5979767.50046  21403147.0634                   21403141.8484
 -20288013.89548 -15793992.04747  20314790.7034                   20314787.2934
 -16978361.99248 -13216402.00046  21703083.3364   21703082.8364
 -12143920.93847  -9453522.43043  24454049.7584                   24454049.5004
 11  8 16  2 13 30.0000000  0  8G10G29G12G04G02G05G25G26
  -1282502.93447   -896261.42244  22918759.3444                   22918756.5944
 -14510562.74247 -11299407.20745  23187699.9304                   23187698.0474
 -13842689.84848 -10771940.78546  21149739.6174                   21149735.8754
  16176194.71146  12624018.48442  24714035.9614                   24714034.7304
  -7602172.44548  -5915687.03946  21418795.9694                   21418790.8524
 -20236225.33248 -15753637.30547  20324645.3594                   20324642.2734
 -16952689.88348 -13196397.74246  21707968.4304   21707968.0594
 -12191984.11346  -9490974.14843  24444904.0394                   24444902.8874
 11  8 16  2 14  0.0000000  0  8G10G29G12G04G02G05G25G26
  -1139488.78147   -784821.83244  22945974.5084                   22945971.4064
 -14546800.39847 -11327644.25445  23180804.1954                   23180802.3954
 -13750601.93048 -10700183.97346  21167263.2034                   21167259.9144
  16301405.66446  12721585.52342  24737862.7424                   24737861.4344
  -7519827.39148  -5851522.05146  21434465.6564                   21434460.1054
 -20183864.97748 -15712837.00847  20334609.1954                   20334606.3134
 -16926435.30948 -13175939.60246  21712964.2034   21712963.8164
 -12240102.92647  -9528469.25043  24435747.5314                   24435745.7624
 11  8 16  2 14 30.0000000  0  7G10G29G12G02G05G25G26
   -996207.46547   -673174.05544  22973239.2504                   22973236.6884
 -14583017.91047 -11355865.62545  23173912.1024                   23173910.0904
 -13658004.14148 -10628029.85546  21184883.9454                   21184880.5394
  -7437381.01248  -5787278.10546  21450154.7504                   21450149.3244
 -20130940.66848 -15671597.26647  20344680.4454                   20344677.3524
 -16899604.37948 -13155032.35546  21718070.1414   21718069.8954
 -12288281.11747  -9566010.62943  24426579.0784                   24426577.7074
 11  8 16  2 15  0.0000000  0  7G10G29G12G02G05G25G26
   -852656.85547   -561316.42644  23000556.2734                   23000553.9454
 -14619209.00047 -11384066.39545  23167025.1174                   23167022.7234
 -13564893.56348 -10555476.16046  21202602.5164                   21202598.9924
  -7354829.05148  -5722951.88746  21465863.8284                   21465858.5784
 -20077448.24248 -15629914.83647  20354859.9304                   20354856.6914
 -16872191.73848 -13133671.84046  21723286.6804   21723286.0204
 -12336510.52047  -9603591.94143  24417401.4224                   24417400.1214
 11  8 16  2 15 30.0000000  0  7G10G29G12G02G05G25G26
   -708840.81647   -449251.98044  23027924.3524                   23027920.7154
 -14655373.19147 -11412246.21945  23160143.2034                   23160140.8674
 -13471272.89848 -10482525.00046  21220417.7664                   21220414.4384
  -7272172.86348  -5658544.46546  21481592.8674                   21481587.6804
 -20023389.74248 -15587791.30947  20365146.5634                   20365143.4614
 -16844197.94548 -13111858.46946  21728613.5234   21728613.3594
 -12384789.27347  -9641211.66843  24408214.5704                   24408213.1644
 11  8 16  2 16  0.0000000  0  7G10G29G12G02G05G25G26
   -564756.80947   -336978.71944  23055341.9144                   23055339.0664
 -14691503.18047 -11440399.38345  23153267.8284                   23153266.0394
 -13377138.92248 -10409173.84846  21238330.8364                   21238327.2934
  -7189407.19148  -5594051.72346  21497342.2894                   21497337.5164
 -19968760.05548 -15545222.70747  20375542.1884                   20375539.1804
 -16815616.87548 -13089587.47746  21734052.3674   21734051.8134
 -12433108.44547  -9678862.88343  24399019.5394                   24399018.6994
 11  8 16  2 16 30.0000000  0  7G10G29G12G02G05G25G26
   -420411.88346   -224502.14844  23082809.7974                   23082807.7704
 -14727602.05947 -11468528.28545  23146398.4064                   23146396.2464
 -13282497.64148 -10335427.40246  21256340.7584                   21256336.9574
  -7106537.03948  -5529477.56346  21513112.4144                   21513107.2074
 -19913564.59848 -15502213.23047  20386045.7424                   20386042.3014
 -16786452.63348 -13066862.06646  21739602.1804   21739602.0314
 -12481469.43447  -9716546.74243  24389816.6334                   24389814.8634
 11  8 16  2 17  0.0000000  0  7G10G29G12G02G05G25G26
   -275804.97746   -111821.44544  23110327.1254                   23110324.9414
 -14763663.92247 -11496628.39545  23139535.8754                   23139534.3984
 -13187347.12948 -10261284.14646  21274447.1094                   21274443.6414
  -7023558.62148  -5464819.04746  21528902.4844                   21528897.3404
 -19857800.43048 -15458760.62147  20396657.1644                   20396653.8444
 -16756700.49248 -13043678.55946  21745263.5944   21745263.3014
 -12529864.65246  -9754257.21943  24380607.4694                   24380605.8754
 11  8 16  2 17 30.0000000  0  7G10G29G12G02G05G25G26
   -130944.94946      1056.48444  23137893.8674                   23137890.7504
 -14799693.57847 -11524703.38745  23132679.8984                   23132677.5824
 -13091695.29748 -10186750.25446  21292649.0944                   21292645.7464
  -6940478.55947  -5400081.32846  21544711.6644                   21544706.8554
 -19801474.54348 -15414870.30147  20407375.6724                   20407372.3324
 -16726366.37148 -13020041.55546  21751035.9614   21751035.5824
 -12578297.34446  -9791996.87943  24371389.9384                   24371389.2344
 11  8 16  2 18  0.0000000  0  7G10G29G12G02G05G25G26
     14163.11346    114127.70744  23165506.3674                   23165504.1524
 -14835691.34047 -11552753.50845  23125829.0004                   23125827.5314
 -12995546.39848 -10111829.03546  21310945.7424                   21310942.3204
  -6857299.22348  -5335266.23846  21560540.2974                   21560535.2234
 -19744590.05548 -15370544.70747  20418200.5234                   20418196.8094
 -16695452.02048 -12995952.43446  21756918.6954   21756918.1024
 -12626766.39146  -9829764.83643  24362166.4774                   24362166.4184
 11  8 16  2 18 30.0000000  0  7G10G29G12G02G05G25G26
    159519.66846    227392.55544  23193166.6174                   23193164.0434
 -14871652.71547 -11580775.30145  23118986.2114                   23118984.3094
 -12898899.23048 -10036519.56646  21329337.0474                   21329333.4144
  -6774018.03948  -5270371.79346  21576388.8284                   21576383.3444
 -19687144.58648 -15325781.99247  20429131.8834                   20429128.7424
 -16663953.94948 -12971408.46146  21762913.0554   21762912.1174
 -12675265.32446  -9867556.11743  24352938.6024                   24352937.3284
 11  8 16  2 19  0.0000000  0  7G10G29G12G02G05G25G26
    305118.94146    340846.53544  23220872.8594                   23220870.9614
 -14907578.94247 -11608769.70145  23112149.8834                   23112147.4734
 -12801758.38348  -9960825.40646  21347822.5164                   21347818.9454
  -6690638.17248  -5205400.44546  21592255.0004                   21592249.6254
 -19629142.10248 -15280585.23047  20440169.3284                   20440165.6724
 -16631874.61348 -12946411.56646  21769017.5234   21769016.2704
 -12723793.84746  -9905370.47843  24343703.5164                   24343702.2304
 11  8 16  2 19 30.0000000  0  7G10G29G12G02G05G25G26
  -1124462.38346   -773112.93444  22948832.9384                   22948830.5204
 -16518894.59847 -12864340.27345  22805526.4304                   22805524.0394
 -14279547.81648 -11112349.64546  21066608.4304                   21066604.6254
  -8182582.17648  -6367954.19146  21308347.6484                   21308342.3554
 -21146006.73048 -16462557.64547  20151519.4224                   20151516.0664
 -18174637.90248 -14148564.75446  21475439.2974   21475438.5394
 -14347775.57446 -11170810.72743  24034670.2814                   24034668.6764
 11  8 16  2 20  0.0000000  0  7G10G29G12G02G05G25G26
   -978386.46946   -659287.54344  22976630.3834                   22976627.7584
 -16554745.37947 -12892275.88344  22798704.0784                   22798701.6844
 -14181426.18748 -11035891.23846  21085280.0784                   21085276.8524
  -8099005.78148  -6302829.71546  21324251.6024                   21324246.5314
 -21086893.04748 -16416495.02047  20162768.8754                   20162765.3524
 -18141395.20748 -14122661.33646  21481765.3444   21481764.1134
 -14396353.53946 -11208663.61743  24025425.7424                   24025424.0044
 11  8 16  2 20 30.0000000  0  7G10G29G12G02G05G25G26
   -832074.92247   -545278.53944  23004473.0314                   23004470.4614
 -16590554.94147 -12920179.35945  22791889.7814                   22791887.5634
 -14082816.10948 -10959052.21946  21104044.7274                   21104041.6414
  -8015330.58648  -6237628.24646  21340174.3524                   21340169.1174
 -21027224.16848 -16369999.77047  20174123.2894                   20174119.9964
 -18107569.33648 -14096303.48846  21488202.4774   21488201.0164
 -14444950.17246 -11246531.06643  24016178.7274                   24016176.5704
 11  8 16  2 21  0.0000000  0  7G10G29G12G02G05G25G26
   -685528.96946   -431086.88344  23032359.9534                   23032357.2974
 -16626320.09847 -12948048.23445  22785083.3364                   22785081.6914
 -13983717.97348 -10881832.89846  21122902.5394                   21122899.4774
  -7931555.25848  -6172348.75046  21356116.1094                   21356111.1804
 -20966999.59448 -16323071.51247  20185583.4144                   20185579.7624
 -18073158.41448 -14069489.77346  21494750.2344   21494748.5394
 -14493560.65247 -11284409.34843  24006928.3364                   24006926.0234
 11  8 16  2 21 30.0000000  0  7G10G29G12G02G05G25G26
   -538754.46946   -316717.13744  23060289.8754                   23060287.5864
 -16662041.81247 -12975883.27345  22778285.8524                   22778283.8244
 -13884136.74248 -10804237.14146  21141852.6024                   21141849.0394
  -7847683.18748  -6106993.87146  21372076.4144                   21372071.3364
 -20906223.24248 -16275713.29747  20197148.7814                   20197145.2734
 -18038165.13748 -14042222.27746  21501409.0704   21501407.9734
 -14542184.38347 -11322297.93043  23997675.2114                   23997673.8014
 11  8 16  2 22  0.0000000  0  7G10G29G12G02G05G25G26
   -391753.69146   -202171.06644  23088263.2274                   23088260.7194
 -16697717.94147 -13003682.79345  22771497.2344                   22771495.1954
 -13784073.61348 -10726265.87946  21160893.9224                   21160890.4774
  -7763713.82048  -6041563.17646  21388055.2814                   21388050.2114
 -20844895.69548 -16227925.58647  20208819.1884                   20208815.9534
 -18002588.65248 -14014500.33246  21508179.2034   21508178.1524
 -14590817.52347 -11360193.86343  23988420.1024                   23988419.0394
 11  8 16  2 22 30.0000000  0  7G10G29G12G02G05G25G26
   -244530.22746    -87451.46543  23116278.1254                   23116275.6484
 -16733347.68747 -13031446.17645  22764716.8674                   22764714.3914
 -13683532.00048 -10647921.77046  21180026.3364                   21180022.7894
  -7679648.14548  -5976057.43446  21404052.8984                   21404047.7154
 -20783018.78948 -16179709.78547  20220593.5634                   20220590.6254
 -17966429.69548 -13986324.49246  21515059.8134   21515058.6334
 -14639457.67247 -11398095.21143  23979164.2584                   23979162.5824
 11  8 16  2 23  0.0000000  0  7G10G29G12G02G05G25G26
    -97083.74647     27441.88744  23144336.8444                   23144334.2934
 -16768926.13347 -13059169.57045  22757947.2814                   22757944.5004
 -13582510.76648 -10569203.93446  21199250.2344                   21199246.4184
  -7595483.89548  -5910474.88346  21420068.5474                   21420063.3984
 -20720590.75048 -16131064.54347  20232473.4614                   20232469.8324
 -17929685.18448 -13957692.40646  21522052.0084   21522051.1644
 -14688098.43447 -11435997.05943  23969908.9144                   23969906.8364
 11  8 16  2 23 30.0000000  0  7G10G29G12G02G05G25G26
     50577.20747    142502.38344  23172436.0634                   23172433.2854
 -16804457.51247 -13086856.29745  22751185.7114                   22751183.1954
 -13481018.25048 -10490118.85946  21218563.4384                   21218560.1484
  -7511226.88748  -5844820.06646  21436102.0704                   21436096.7664
 -20657618.41048 -16081995.17647  20244456.5314                   20244453.3244
 -17892360.73048 -13928608.39846  21529154.7584   21529153.9104
 -14736742.21946 -11473901.25844  23960651.8364                   23960650.3714
 11  8 16  2 24  0.0000000  0  7G10G29G12G02G05G25G26
    198452.82847    257730.12143  23200575.6174                   23200572.6484
 -16839936.84447 -13114502.46145  22744433.6334                   22744431.5354
 -13379053.14848 -10410665.53946  21237966.7584                   21237963.5514
  -7426874.27048  -5779090.74246  21452153.7894                   21452148.5554
 -20594099.71948 -16032500.07047  20256544.0084                   20256540.5824
 -17854453.03548 -13899069.93046  21536368.4844   21536367.7114
 -14785382.53146 -11511802.74643  23951395.5474                   23951394.3594
 11  8 16  2 24 30.0000000  0  7G10G29G12G02G05G25G26
    346540.50047    373123.13343  23228756.0944                   23228753.0394
 -16875362.54747 -13142106.82845  22737692.7814                   22737690.4884
 -13276617.78548 -10330845.77746  21257459.6484                   21257456.0274
  -7342426.07448  -5713286.93746  21468223.6644                   21468218.5864
 -20530036.23048 -15982580.44547  20268734.8984                   20268731.2624
 -17815962.12548 -13869076.99646  21543692.7974   21543692.5234
 -14834015.85946 -11549698.80543  23942141.0784                   23942139.3204
 11  8 16  2 25  0.0000000  0  7G10G29G12G02G05G25G26
    494835.44947    488677.65644  23256975.3444                   23256972.6054
 -16910734.55947 -13169669.35545  22730961.5004                   22730959.0634
 -13173716.16448 -10250662.71146  21277041.1334                   21277037.8954
  -7257884.71948  -5647410.55146  21484311.5004                   21484305.8834
 -20465431.09048 -15932238.75847  20281028.5634                   20281025.0944
 -17776889.87948 -13838631.07846  21551128.0394   21551127.5784
 -14882640.91846 -11587588.38743  23932887.7194                   23932886.6134
 11  8 16  2 25 30.0000000  0  7G10G29G12G02G05G25G26
    643337.34447    604393.41044  23285234.4454                   23285231.5744
 -16946048.98447 -13197187.02745  22724240.9844                   22724238.5004
 -13070348.15248 -10170116.21546  21296711.4064                   21296707.6644
  -7173248.39148  -5581460.15646  21500417.1024                   21500411.7974
 -20400282.78148 -15881473.82847  20293426.0554                   20293422.7074
 -17737233.86348 -13807730.27746  21558674.2734   21558673.6524
 -14931252.10246 -11625467.15243  23923637.6334                   23923635.5744
 11  8 16  2 26  0.0000000  0  7G10G29G12G02G05G25G26
    792038.33647    720264.32044  23313531.1884                   23313528.6524
 -16981309.00847 -13224662.30145  22717531.3204                   22717529.0594
 -12966520.90248 -10089211.86746  21316468.8914                   21316465.3444
  -7088522.16848  -5515439.70746  21516540.2194                   21516534.2464
 -20334597.71148 -15830290.63347  20305925.3674                   20305921.9144
 -17696999.28548 -13776378.65646  21566330.6174   21566330.1134
 -14979850.99646 -11663336.35244  23914389.5784                   23914387.7584
 11  8 16  2 26 30.0000000  0  7G10G29G12G02G05G25G26
    940943.26647    836294.13344  23341867.5944                   23341864.4224
 -17016505.40247 -13252087.99645  22710833.3984                   22710830.9264
 -12862229.52748 -10007945.86346  21336315.1804                   21336311.9304
  -7003698.63748  -5449343.43046  21532681.6254                   21532675.7344
 -20268369.70348 -15778684.37947  20318528.1644                   20318524.8674
 -17656178.72348 -13744570.41846  21574098.7814   21574098.0354
 -15028426.73446 -11701187.50043  23905145.2974                   23905144.3794
 11  8 16  2 27  0.0000000  0  7G10G29G12G02G05G25G26
   1090047.89547    952479.53944  23370240.7114                   23370237.6524
 -17051637.77747 -13279463.79745  22704148.6334                   22704145.3834
 -12757477.38748  -9926320.82846  21356248.9694                   21356245.4344
  -6918779.41448  -5383172.59446  21548841.3444                   21548835.7194
 -20201601.59448 -15726657.26247  20331233.5004                   20331230.1724
 -17614773.48848 -13712306.58646  21581977.8054   21581977.1334
 -15076977.05946 -11739018.85944  23895906.5554                   23895905.7624
 11  8 16  2 27 30.0000000  0  7G10G29G12G02G05G25G26
   1239349.12147   1068818.17244  23398652.1174                   23398648.9024
 -17086705.18447 -13306788.98045  22697475.3594                   22697472.0784
 -12652267.52347  -9844339.12546  21376269.2734                   21376266.1374
  -6833765.59048  -5316928.04346  21565018.5864                   21565013.4454
 -20134295.25048 -15674210.73847  20344041.4304                   20344038.0634
 -17572784.37948 -13679587.79746  21589967.9064   21589967.6764
 -15125499.42646 -11776828.44943  23886673.4774                   23886672.1214
 11  8 16  2 28  0.0000000  0  7G10G29G12G02G05G25G26
   1388839.10947   1185303.87943  23427098.5944                   23427095.7624
 -17121709.93047 -13334065.33645  22690813.1024                   22690811.1094
 -12546607.03948  -9762006.28546  21396376.1484                   21396372.5664
  -6748661.71148  -5250613.31646  21581213.4064                   21581208.0904
 -20066456.58248 -15621349.41847  20356951.0164                   20356947.5784
 -17530216.23448 -13646417.78946  21598068.6414   21598067.9574
 -15173994.99246 -11814617.14543  23877444.7274                   23877443.4224
 11  8 16  2 28 30.0000000  0  7G10G29G12G02G05G25G26
   1538521.82847   1301939.76643  23455582.2114                   23455579.7114
 -17156644.42647 -13361286.94945  22684166.0704                   22684163.5634
 -12440491.76648  -9679319.06246  21416569.1254                   21416565.8634
  -6663462.09048  -5184223.99246  21597426.3524                   21597421.5124
 -19998080.81648 -15568069.58247  20369962.2114                   20369958.9924
 -17487062.91048 -13612791.82446  21606280.1484   21606279.6884
 -15222454.18046 -11852377.48843  23868223.4534                   23868221.9144
 11  8 16  2 29  0.0000000  0  7G10G29G12G02G05G25G26
   1688387.93047   1418718.55944  23484100.1804                   23484098.3754
 -17191513.46547 -13388457.57045  22677530.4144                   22677528.2464
 -12333930.64147  -9596284.42646  21436847.0784                   21436843.7974
  -6578173.09848  -5117765.03146  21613656.3134                   21613651.2194
 -19929175.81248 -15514377.35247  20383074.5474                   20383070.8204
 -17443331.13348 -13578715.10546  21614602.1564   21614601.5314
 -15270879.91046 -11890111.75443  23859007.8364                   23859006.5744
 11  8 16  2 29 30.0000000  0  7G10G29G12G02G05G25G26
   1838437.06347   1535639.94543  23512654.8054                   23512651.4924
 -17226312.77047 -13415573.83645  22670908.6564                   22670905.5704
 -12226923.09848  -9512901.92646  21457209.7894                   21457206.4614
  -6492792.61348  -5051234.76646  21629903.8674                   21629898.3524
 -19859740.50448 -15460271.89847  20396287.6724                   20396284.0044
 -17399018.54748 -13544185.80546  21623034.3284   21623033.8404
 -15319266.32446 -11927815.36743  23849800.3524                   23849798.4224
 11  8 16  2 30  0.0000000  0  7G10G29G12G02G05G25G26
   1988670.38347   1652704.86344  23541242.7194                   23541239.7584
 -17261036.14147 -13442630.94945  22664300.5634                   22664298.2194
 -12119468.44148  -9429171.03546  21477657.6174                   21477654.7894
  -6407316.90648  -4984630.30146  21646169.1644                   21646163.8594
 -19789772.39148 -15405751.27347  20409601.9614                   20409598.8954
 -17354121.62948 -13509201.18746  21631578.1094   21631577.0784
 -15367606.11746 -11965482.71543  23840601.5784                   23840599.3134
 11  8 16  2 30 30.0000000  0  7G10G29G12G02G05G25G26
   2139080.25447   1769907.35243  23569864.4694                   23569861.7774
 -17295686.55947 -13469631.22745  22657706.7194                   22657704.2114
 -12011573.57848  -9345097.12146  21498189.4304                   21498186.1764
  -6321751.16448  -4917955.68446  21662451.7114                   21662446.3524
 -19719277.82848 -15350820.42647  20423016.5474                   20423013.3094
 -17308645.46548 -13473765.21146  21640232.1254   21640230.9104
 -15415900.57846 -12003114.72743  23831410.9064                   23831408.9694
 11  8 16  2 31  0.0000000  0  7G10G29G12G02G05G25G26
   2289667.81647   1887248.30943  23598521.0474                   23598517.9104
 -17330258.75447 -13496570.53145  22651128.0394                   22651125.4964
 -11903237.19147  -9260679.16446  21518805.4454                   21518802.1954
  -6236091.88748  -4851208.18746  21678752.3674                   21678746.6724
 -19648254.74648 -15295477.75447  20436531.6804                   20436528.5044
 -17262586.78148 -13437875.31646  21648996.8524   21648995.9964
 -15464142.65647 -12040705.91443  23822231.2894                   23822229.2234
 11  8 16  2 31 30.0000000  0  7G10G29G12G02G05G25G26
   2440428.25447   2004723.96543  23627209.8914                   23627206.8794
 -17364752.91447 -13523449.04745  22644564.0704                   22644561.2894
 -11794463.60247  -9175920.53146  21539504.1724                   21539501.0004
  -6150341.11348  -4784389.37945  21695069.7504                   21695064.6134
 -19576706.34048 -15239725.72747  20450147.1724                   20450143.9884
 -17215947.75448 -13401533.21546  21657871.8524   21657870.7504
 -15512330.93047 -12078255.17643  23813061.4224                   23813059.5904
 11  8 16  2 32  0.0000000  0  7G10G29G12G02G05G25G26
   2591356.89547   2122330.71143  23655930.6024                   23655927.6564
 -17399168.85547 -13550266.59845  22638014.4454                   22638011.9264
 -11685257.18447  -9090824.62146  21560285.3204                   21560281.8404
  -6064501.19148  -4717501.11746  21711404.6804                   21711399.5394
 -19504636.26648 -15183567.21947  20463861.7734                   20463858.1054
 -17168730.78148 -13364740.76646  21666856.7664   21666856.0514
 -15560463.90247 -12115761.33644  23803901.6564                   23803900.7384
 11  8 16  2 32 30.0000000  0  8G10G29G12G15G02G05G25G26
   2742450.89847   2240066.28943  23684682.5164                   23684679.9844
 -17433505.52347 -13577022.38745  22631480.5704                   22631478.0984
 -11575621.06248  -9005393.89146  21581148.6564                   21581145.1564
 -12665553.34455  -9859411.41053  24710165.5864                   24710166.5824
  -5978572.18448  -4650543.43046  21727756.4694                   21727751.3634
 -19432046.23048 -15127003.53947  20477675.0084                   20477671.6564
 -17120936.45348 -13327498.41846  21675952.1254   21675950.9144
 -15608538.28947 -12153221.84444  23794753.5394                   23794752.0944
 11  8 16  2 33  0.0000000  0  8G10G29G12G15G02G05G25G26
   2893703.88347   2357925.77744  23713464.3054                   23713462.4384
 -17467764.57047 -13603717.69145  22624961.1174                   22624958.3984
 -11465560.76647  -8919632.62946  21602092.6484                   21602088.8404
 -12712059.38346  -9895649.73443  24701316.4144                   24701316.1884
  -5892558.18448  -4583519.51246  21744124.2034                   21744119.0824
 -19358941.36348 -15070038.69547  20491586.5084                   20491582.8284
 -17072568.89148 -13289809.40246  21685155.8444   21685154.8524
 -15656554.17247 -12190636.77044  23785616.5234                   23785614.9384
 11  8 16  2 33 30.0000000  0  8G10G29G12G15G02G05G25G26
   3045117.16047   2475910.15643  23742278.3524                   23742275.0944
 -17501939.89547 -13630347.75445  22618457.8674                   22618454.9454
 -11355075.18048  -8833539.96546  21623116.9224                   21623113.8364
 -12758692.75846  -9931987.24243  24692443.4384                   24692442.4104
  -5806455.18048  -4516426.25046  21760509.1334                   21760504.4454
 -19285319.47748 -15012670.97347  20505596.2664                   20505592.5904
 -17023624.54748 -13251670.94946  21694469.5634   21694468.4844
 -15704504.20346 -12228000.35944  23776491.8984                   23776490.1804
 11  8 16  2 34  0.0000000  0  8G10G29G12G15G02G05G25G26
   3196681.93447   2594012.57443  23771120.1174                   23771117.1524
 -17536035.73447 -13656915.89545  22611969.6094                   22611967.2384
 -11244173.08248  -8747122.75046  21644220.8984                   21644217.6564
 -12805457.09446  -9968426.77343  24683543.6644                   24683543.5634
  -5720269.62948  -4449268.66446  21776909.4844                   21776904.4384
 -19211188.25448 -14954906.36747  20519703.1094                   20519699.1884
 -16974109.98848 -13213088.16446  21703891.9454   21703890.9494
 -15752390.91846 -12265314.60544  23767379.2194                   23767377.6454
 11  8 16  2 34 30.0000000  0  8G10G29G12G15G02G05G25G26
   3348399.60947   2712234.13743  23799991.0234                   23799988.2974
 -17570046.07847 -13683417.39145  22605497.5554                   22605495.1024
 -11132852.52348  -8660379.46546  21665404.8674                   21665401.1454
 -12852345.67246 -10004963.18043  24674620.7274                   24674620.3634
  -5633997.32848  -4382043.48846  21793326.7114                   21793321.2424
 -19136544.93448 -14896742.72747  20533907.1564                   20533903.5864
 -16924021.54348 -13174058.19546  21713423.0234   21713422.3674
 -15800206.75846 -12302573.60243  23758279.4924                   23758278.4104
 11  8 16  2 35  0.0000000  0  8G10G29G12G15G02G05G25G26
   3500268.31347   2830573.37944  23828889.9694                   23828888.2274
 -17603968.32447 -13709850.26245  22599041.9774                   22599040.0044
 -11021115.37548  -8573311.56246  21686667.2344                   21686664.1524
 -12899355.32846 -10041593.91844  24665675.5554                   24665674.6844
  -5547637.85248  -4314750.36745  21809760.5164                   21809754.7344
 -19061390.37948 -14838180.72347  20548208.6174                   20548204.7704
 -16873358.95348 -13134580.84846  21723064.1724   21723063.1954
 -15847947.18446 -12339773.82044  23749195.1174                   23749193.8634
 11  8 16  2 35 30.0000000  0  8G10G29G12G15G02G05G25G26
   3652287.21147   2949029.64843  23857818.5164                   23857816.3594
 -17637798.34847 -13736211.26245  22592604.5944                   22592601.9184
 -10908962.32448  -8485919.58246  21708009.3984                   21708006.7464
 -12946481.47346 -10078315.43744  24656707.2974                   24656706.4264
  -5461189.14848  -4247387.72345  21826211.1484                   21826206.0944
 -18985724.22748 -14779220.06647  20562607.2894                   20562603.5944
 -16822120.84848 -13094655.04746  21732814.2504   21732813.3714
 -15895607.07046 -12376911.29744  23740125.9694                   23740124.8524
 11  8 16  2 36  0.0000000  0  8G10G29G12G15G02G05G25G26
   2229038.92246   1840005.01243  23586983.9614                   23586980.6254
 -19246955.48847 -14990099.89145  22286392.1024                   22286389.7624
 -12371811.44548  -9625802.02746  21429638.6564                   21429635.2384
 -14569142.86746 -11342726.77744  24347925.1724                   24347924.1094
  -6950068.56648  -5407553.49645  21542886.1484                   21542881.1914
 -20484965.77048 -15947460.20747  20277310.9454                   20277307.3324
 -18345725.89548 -14281879.75446  21442881.8364   21442881.2424
 -17518604.07046 -13641584.17644  23431279.2274                   23431277.9494
 11  8 16  2 36 30.0000000  0  8G10G29G12G15G02G05G25G26
   2381350.18047   1958689.10943  23615967.6334                   23615964.6054
 -19280596.00447 -15016313.21945  22279990.4304                   22279987.6564
 -12258833.98048  -9537767.65246  21451137.4384                   21451134.5124
 -14616494.40647 -11379623.94144  24338914.4384                   24338913.4884
  -6863442.28548  -5340052.48446  21559371.3524                   21559365.9264
 -20408281.91448 -15887706.54347  20291903.7504                   20291899.8204
 -18293338.69548 -14241058.55946  21452851.3914   21452850.2304
 -17566092.14847 -13678587.77044  23422242.2894                   23422241.1724
 11  8 16  2 37  0.0000000  0  8G10G29G12G15G02G05G25G26
   2533798.76646   2077480.21143  23644977.0474                   23644974.6604
 -19314144.03147 -15042454.48045  22273606.7894                   22273603.6844
 -12145453.69548  -9449419.38346  21472713.0554                   21472709.7194
 -14663960.06647 -11416610.00044  24329881.3054                   24329880.7624
  -6776732.43847  -5272486.35545  21575871.1254                   21575865.9844
 -20331097.05948 -15827562.48047  20306591.1254                   20306587.4654
 -18240383.09848 -14199794.44946  21462928.2584   21462927.3834
 -17613494.13347 -13715524.30544  23413222.6724                   23413221.1804
 11  8 16  2 37 30.0000000  0  8G10G29G12G15G02G05G25G26
   2686385.96547   2196379.34443  23674013.5944                   23674011.5514
 -19347593.54747 -15068518.98845  22267241.2194                   22267238.9144
 -12031668.83648  -9360755.86346  21494365.2424                   21494362.3244
 -14711533.23047 -11453679.89543  24320828.4844                   24320827.6294
  -6689935.09447  -5204852.05145  21592388.2504                   21592382.9734
 -20253408.71148 -15767026.08647  20321374.7114                   20321371.2034
 -18186855.65248 -14158084.74646  21473113.9774   21473113.3134
 -17660802.48847 -13752387.89144  23404220.2034                   23404217.9614
 11  8 16  2 38  0.0000000  0  8G10G29G12G15G02G05G25G26
   2839113.88747   2315388.09043  23703077.2344                   23703074.2624
 -19380937.43047 -15094501.17645  22260896.0704                   22260893.4694
 -11917477.02048  -9271775.24646  21516095.8524                   21516092.2894
 -14759206.19547 -11490827.53943  24311756.5084                   24311754.8754
  -6603045.48447  -5137145.85245  21608923.0634                   21608918.0394
 -20175213.71548 -15706094.90247  20336254.8754                   20336251.3754
 -18132752.07848 -14115926.10546  21483409.6564   21483408.7034
 -17708008.58647 -13789171.78943  23395237.2274                   23395234.5784
 11  8 16  2 38 30.0000000  0  8G10G29G12G15G02G05G25G26
   2991970.52747   2434497.19143  23732164.9614                   23732161.6094
 -19414183.35547 -15120407.03945  22254569.5944                   22254566.5824
 -11802890.53148  -9182487.08246  21537900.7894                   21537897.7304
 -14806985.89847 -11528058.34043  24302664.5394                   24302663.1374
  -6516073.27047  -5069375.28546  21625473.5784                   21625468.2774
 -20096523.15648 -15644777.56347  20351229.3204                   20351225.6564
 -18078082.65648 -14073326.55146  21493812.7424   21493811.9104
 -17755118.62947 -13825880.88743  23386272.8444                   23386269.5274
 11  8 16  2 39  0.0000000  0  8G10G29G12G15G02G05G25G26
   3144964.71147   2553713.43043  23761279.0474                   23761275.4964
 -19447317.80147 -15146226.03545  22248264.4534                   22248261.6954
 -11687900.51647  -9092884.48846  21559782.8444                   21559779.4144
 -14854858.32446 -11565361.43843  24293554.3444                   24293552.3594
  -6429006.91847  -5001531.35946  21642041.5084                   21642036.3164
 -20017327.34848 -15583066.52747  20366299.6564                   20366296.2774
 -18022836.53148 -14030277.62146  21504325.8914   21504324.9534
 -17802117.37547 -13862503.24643  23377328.1644                   23377326.6214
 11  8 16  2 39 30.0000000  0  8G10G29G12G15G02G05G25G26
   3298077.66447   2673022.24243  23790415.3444                   23790411.5744
 -19480354.99647 -15171969.25045  22241977.9694                   22241974.7774
 -11572525.75848  -9002982.08646  21581737.9224                   21581734.1954
 -14902837.09446 -11602747.39843  24284423.9614                   24284422.6454
  -6341862.66847  -4933626.74245  21658624.5784                   21658618.8984
 -19937644.27748 -15520975.80547  20381463.0634                   20381459.2344
 -17967030.76648 -13986792.59846  21514945.3364   21514944.1484
 -17849017.58247 -13899048.79344  23368403.8914                   23368401.8054
 11  8 16  2 40  0.0000000  0  8G10G29G12G15G02G05G25G26
   3451316.11747   2792428.84843  23819574.5474                   23819572.1524
 -19513283.83247 -15197628.01645  22235711.0234                   22235708.6914
 -11456759.92648  -8912774.94946  21603767.1724                   21603763.9964
 -14950910.32046 -11640206.93843  24275275.7584                   24275274.6724
  -6254631.53148  -4865654.41045  21675223.9384                   21675218.6454
 -19857466.47748 -15458499.59046  20396720.2194                   20396716.5664
 -17910657.00048 -13942864.98046  21525673.0554   21525672.3134
 -17895806.64547 -13935507.72343  23359499.8134                   23359498.0204
 11  8 16  2 40 30.0000000  0  8G10G29G12G15G02G05G25G26
   3604679.24246   2911932.56243  23848759.1254                   23848756.4304
 -19546100.69948 -15223199.55545  22229466.5314                   22229463.5664
 -11340603.44148  -8822263.41446  21625871.1564                   21625867.6484
 -14999073.48846 -11677736.53143  24266111.1644                   24266110.0164
  -6167311.68448  -4797612.96145  21691840.2974                   21691834.8984
 -19776794.17648 -15395638.03946  20412071.6174                   20412067.8594
 -17853714.13748 -13898493.89846  21536508.7114   21536507.4384
 -17942478.75846 -13971875.52743  23350618.9064                   23350616.3554
 11  8 16  2 41  0.0000000  0  8G10G29G12G15G02G05G25G26
   3758167.09046   3031533.48843  23877966.7504                   23877964.0514
 -19578800.82448 -15248680.11745  22223244.0004                   22223240.7034
 -11224056.58648  -8731447.69146  21648049.2194                   21648045.5354
 -15047321.55546 -11715332.31343  24256929.3204                   24256928.3794
  -6079900.48448  -4729500.33245  21708474.2814                   21708468.6804
 -19695626.44948 -15332390.44147  20427517.1024                   20427513.3364
 -17796200.48848 -13853678.06646  21547453.0234   21547452.5744
 -17989027.96546 -14008147.56644  23341760.3914                   23341758.6054
 11  8 16  2 41 30.0000000  0  8G10G29G12G15G02G05G25G26
   3911773.27046   3151226.58243  23907197.8594                   23907194.9064
 -19611386.26247 -15274071.32445  22217042.7974                   22217040.1644
 -11107126.14548  -8640333.07046  21670299.9844                   21670296.9224
 -15095655.80947 -11752995.19944  24247732.6094                   24247730.7194
  -5992402.25048  -4661319.86745  21725124.3984                   21725118.7774
 -19613969.10248 -15268761.33647  20443056.2344                   20443052.4614
 -17738120.85548 -13808421.19546  21558505.3984   21558504.6024
 -18035454.57446 -14044324.07444  23332925.8754                   23332923.9414
 11  8 16  2 42  0.0000000  0  8G10G29G12G15G02G05G25G26
   4065496.50046   3271010.90643  23936449.5164                   23936447.1134
 -19643852.78947 -15299369.86345  22210864.1954                   22210861.5314
 -10989813.05548  -8548920.28146  21692624.1724                   21692621.1484
 -15144071.36747 -11790721.48044  24238518.1724                   24238517.5744
  -5904814.83648  -4593069.93045  21741791.6884                   21741786.3444
 -19531822.18048 -15204750.72746  20458688.5164                   20458684.7584
 -17679474.21148 -13762722.50046  21569665.2584   21569664.5864
 -18081753.05947 -14080400.74644  23324115.7344                   23324113.7664
 11  8 16  2 42 30.0000000  0  8G10G29G12G15G02G05G25G26
   4219329.43746   3390880.74643  23965723.3594                   23965720.3444
 -19676203.78147 -15324578.39545  22204708.0944                   22204705.1484
 -10872124.85548  -8457215.19946  21715019.6644                   21715016.1724
 -15192570.75047 -11828513.04744  24229288.6724                   24229288.2704
  -5817143.61748  -4524754.69145  21758475.0944                   21758469.5124
 -19449192.60248 -15140364.03146  20474412.1884                   20474408.3754
 -17620266.62548 -13716586.69946  21580932.1884   21580931.2814
 -18127925.02347 -14116378.84844  23315328.6644                   23315327.3674
 11  8 16  2 43  0.0000000  0  8G10G29G12G15G02G05G25G26
   4373269.68046   3510834.16843  23995017.0944                   23995014.2854
 -19708437.04747 -15349695.17245  22198574.8984                   22198571.9024
 -10754064.27348  -8365219.93846  21737485.8524                   21737482.1884
 -15241151.47747 -11866368.02344  24220045.0634                   24220043.5164
  -5729388.49247  -4456374.06345  21775174.4454                   21775168.6914
 -19366082.13348 -15075602.61346  20490227.2974                   20490223.6054
 -17560498.90248 -13670014.44146  21592305.3754   21592304.5164
 -18173966.73846 -14152255.47344  23306567.5164                   23306565.2974
 11  8 16  2 43 30.0000000  0  8G10G29G12G15G02G05G25G26
   4527324.36346   3630876.78943  24024332.6954                   24024329.6414
 -19740540.89547 -15374711.12146  22192465.5704                   22192462.6334
 -10635624.50848  -8272929.22346  21760023.9924                   21760020.6994
 -15289801.12147 -11904276.70744  24210787.0234                   24210785.0474
  -5641539.83247  -4387920.55145  21791891.1484                   21791885.8674
 -19282483.27748 -15010460.64546  20506135.6484                   20506132.3014
 -17500162.52048 -13622999.07046  21603787.3914   21603786.1054
 -18219865.06646 -14188020.32444  23297833.5234                   23297831.3984
 11  8 16  2 44  0.0000000  0  8G10G29G12G15G02G05G25G26
   4681478.80546   3750997.14543  24053667.1484                   24053664.5744
 -19772525.68447 -15399634.28946  22186378.8984                   22186376.3794
 -10516820.81647  -8180354.93046  21782631.9534                   21782628.7234
 -15338529.11747 -11942246.43044  24201514.0004                   24201513.0984
  -5553609.73447  -4319403.58645  21808624.0944                   21808618.6644
 -19198410.09448 -14944949.05546  20522134.3524                   20522130.6644
 -17439270.66448 -13575550.85546  21615374.5234   21615373.9264
 -18265628.50446 -14223680.07444  23289124.5634                   23289123.0434
 11  8 16  2 44 30.0000000  0  8G10G29G12G15G02G05G25G26
   4835738.61346   3871199.60543  24083021.2734                   24083019.2074
 -19804380.39147 -15424456.09846  22180317.1724                   22180314.9884
 -10397646.87947  -8087492.12546  21805309.9614                   21805306.4654
 -15387324.19947 -11980268.42644  24192228.6094                   24192227.2344
  -5465589.83247  -4250816.63345  21825373.5944                   21825368.4184
 -19113855.81648 -14879062.59446  20538224.5554                   20538220.7544
 -17377815.70748 -13527663.86346  21627069.2114   21627068.0434
 -18311244.70747 -14259225.10244  23280443.8834                   23280442.1254
 11  8 16  2 45  0.0000000  0  8G10G29G12G15G02G05G25G26
   4990103.24646   3991483.71543  24112396.1254                   24112393.5044
 -19836101.34847 -15449173.66845  22174281.1804                   22174278.1804
 -10278104.08247  -7994341.88746  21828058.5164                   21828054.5554
 -15436182.17247 -12018339.41844  24182931.3834                   24182929.9964
  -5377478.56647  -4182158.49245  21842140.5234                   21842135.0864
 -19028820.83648 -14812801.56646  20554405.9384                   20554402.3634
 -17315797.14548 -13479337.69946  21638870.9924   21638869.4774
 -18356708.68847 -14294651.52044  23271792.9534                   23271790.8714
 11  8 16  2 45 30.0000000  0  8G10G29G12G15G02G05G25G26
   5144555.19146   4111835.89143  24141787.9224                   24141785.0394
 -19867701.49247 -15473797.10945  22168267.5864                   22168264.4534
 -10158209.90247  -7900917.85546  21850873.1954                   21850869.9264
 -15485114.80946 -12056468.60544  24173618.9924                   24173617.8954
  -5289290.36348  -4113440.41445  21858921.9844                   21858916.8754
 -18943321.84848 -14746178.96146  20570676.3834                   20570672.3014
 -17253230.80548 -13430584.69946  21650776.9224   21650775.6684
 -18402031.44547 -14329967.88744  23263168.1174                   23263166.3834
 11  8 16  2 46  0.0000000  0  8G10G29G12G15G02G05G25G26
   5299112.22346   4232269.93443  24171198.6254                   24171196.0434
 -19899158.72747 -15498309.20745  22162281.5394                   22162278.6994
 -10037946.61747  -7807206.21146  21873758.5394                   21873755.1094
 -15534099.33646 -12094638.21144  24164297.5704                   24164296.8164
  -5201005.18447  -4044646.75845  21875722.2274                   21875716.9884
 -18857340.41048 -14679180.42246  20587037.5234                   20587033.9844
 -17190097.50848 -13381389.90646  21662790.6724   21662790.0744
 -18447189.15247 -14365155.63744  23254574.9454                   23254573.0944
 11  8 16  2 46 30.0000000  0  8G10G29G12G15G02G05G25G26
   5453757.45346   4352772.71543  24200626.8834                   24200624.9304
 -19930485.24647 -15522719.43445  22156320.1414                   22156316.9264
  -9917331.64548  -7713220.52346  21896710.6254                   21896707.2974
 -15583147.55546 -12132857.46143  24154964.2274                   24154962.5784
  -5112637.54748  -3975788.85245  21892537.9534                   21892532.2934
 -18770893.12948 -14611818.89846  20603488.3594                   20603484.4734
 -17126412.91848 -13331765.55146  21674909.1484   21674908.7304
 -18492192.59047 -14400223.19945  23246011.4694                   23246009.2074
 11  8 16  2 47  0.0000000  0  8G10G29G12G15G02G05G25G26
   5608491.92246   4473345.02743  24230072.9064                   24230069.0554
 -19961675.07447 -15547023.14545  22150384.7584                   22150381.5274
  -9796364.63747  -7618960.52346  21919729.8284                   21919726.6054
 -15632253.08246 -12171121.37143  24145619.6484                   24145618.6214
  -5024183.80947  -3906863.85945  21909370.2584                   21909365.3554
 -18683978.37148 -14544093.09846  20620027.4694                   20620023.5824
 -17062174.52748 -13281709.65646  21687133.5864   21687132.5904
 -18537034.44147 -14435164.83244  23237477.2114                   23237476.1684
 11  8 16  2 47 30.0000000  0  8G10G29G12G15G02G05G25G26
   5763319.64846   4593990.01643  24259535.2584                   24259532.1684
 -19992719.95347 -15571213.92245  22144476.5004                   22144474.1524
  -9675041.85947  -7524423.30546  21942816.9304                   21942813.3524
 -15681406.87146 -12209422.87543  24136265.3984                   24136264.4024
  -4935637.52348  -3837866.74245  21926219.9774                   21926214.4924
 -18596591.88348 -14475999.71146  20636656.4064                   20636652.5664
 -16997377.11748 -13231218.15646  21699464.3524   21699463.3284
 -18581704.82847 -14469972.85544  23228977.2114                   23228975.4924
 11  8 16  2 48  0.0000000  0  8G10G29G12G15G02G05G25G26
   5918234.62546   4714703.00443  24289013.9224                   24289011.0784
 -20023621.23047 -15595292.78945  22138596.6334                   22138594.0124
  -9553369.29747  -7429613.52346  21965970.5164                   21965967.5944
 -15730609.31346 -12247762.33643  24126902.5704                   24126900.9574
  -4847002.18848  -3768800.23445  21943086.8054                   21943081.5664
 -18508738.97748 -14407542.89146  20653374.4384                   20653370.7504
 -16932025.33248 -13180294.68046  21711900.0634   21711899.3594
 -18626203.66447 -14504647.21544  23220509.7734                   23220506.9654
 11  8 16  2 48 30.0000000  0  8G10G29G12G15G02G05G25G26
   6073231.68746   4835479.92643  24318508.8984                   24318505.7854
 -20054379.57447 -15619260.28145  22132744.0554                   22132740.6294
  -9431352.79747  -7334535.73045  21989189.8834                   21989186.4534
 -15779860.86746 -12286140.05543  24117530.6804                   24117528.4064
  -4758280.44948  -3699666.39545  21959970.0314                   21959964.1954
 -18420424.59448 -14338726.48046  20670179.6884                   20670176.2704
 -16866123.26648 -13128942.43046  21724441.0234   21724440.1414
 -18670529.80547 -14539187.00844  23212074.2344                   23212072.0984
 11  8 16  2 49  0.0000000  0  8G10G29G12G15G02G05G25G26
   6228310.91446   4956320.89843  24348020.0004                   24348016.6524
 -20084990.16447 -15643112.64546  22126918.6884                   22126915.5004
  -9308992.50847  -7239190.05946  22012474.0164                   22012470.4144
 -15829155.64146 -12324551.43443  24108149.4774                   24108147.6764
  -4669469.68848  -3630463.19945  21976869.6804                   21976864.7734
 -18331648.33648 -14269550.16446  20687073.7814                   20687069.7734
 -16799669.46948 -13077160.24646  21737086.5164   21737085.8164
 -18714677.12947 -14573587.46144  23203672.6564                   23203671.0204
 11  8 16  2 49 30.0000000  0  8G10G29G12G15G02G05G25G26
   6383462.24646   5077218.02343  24377544.2974                   24377541.0394
 -20115458.71547 -15666854.31646  22121120.8204                   22121117.5434
  -9186299.07447  -7143584.77746  22035821.6414                   22035818.3714
 -15878498.98446 -12363000.69543  24098759.7584                   24098757.7234
  -4580577.58247  -3561196.61345  21993785.6884                   21993780.5044
 -18242419.79748 -14200021.41447  20704053.3444                   20704049.9774
 -16732673.08648 -13024955.27746  21749835.5784   21749834.9344
 -18758649.80547 -14607851.82844  23195305.5314                   23195303.0354
 11  8 16  2 50  0.0000000  0  8G10G29G12G15G02G05G25G26
   6538692.52746   5198176.69143  24407083.6174                   24407079.5664
 -20145773.77347 -15690476.39146  22115352.1564                   22115348.8484
  -9063265.97747  -7047714.83646  22059233.9064                   22059230.9264
 -15927878.60246 -12401478.22743  24089362.9924                   24089361.2814
  -4491594.82048  -3491859.39845  22010718.6954                   22010713.3324
 -18152731.61748 -14130134.51246  20721120.1484                   20721116.7424
 -16665125.85948 -12972321.07046  21762689.5164   21762688.7074
 -18802434.46547 -14641969.68844  23186973.6094                   23186971.1334
 11  8 16  2 50 30.0000000  0  8G10G29G12G15G02G05G25G26
   6693992.80946   5319189.90643  24436636.8754                   24436633.3754
 -20175939.64147 -15713982.21546  22109611.3984                   22109608.2814
  -8939902.67647  -6951587.60246  22082709.1884                   22082705.9224
 -15977298.23846 -12439986.92244  24079959.0234                   24079957.2624
  -4402527.77347  -3422456.49645  22027667.4614                   22027662.0514
 -18062592.44148 -14059896.18446  20738273.1484                   20738269.3484
 -16597035.74648 -12919263.84446  21775646.7034   21775645.7774
 -18846034.30947 -14675943.54344  23178677.1724                   23178674.2424
 11  8 16  2 51  0.0000000  0  8G10G29G12G15G02G05G25G26
   6849361.72346   5440256.66842  24466201.3914                   24466197.9804
 -20205952.99247 -15737369.20346  22103899.6564                   22103897.0634
  -8816211.04347  -6855204.51646  22106246.8834                   22106244.1134
 -16026753.73046 -12478523.53144  24070547.2194                   24070546.1884
  -4313375.37548  -3352987.09045  22044632.5634                   22044627.0354
 -17972003.59448 -13989307.45746  20755511.8754                   20755508.0044
 -16528403.12948 -12865783.87546  21788707.1174   21788706.3554
 -18889444.52747 -14709769.62944  23170415.8914                   23170413.6454
 11  8 16  2 51 30.0000000  0  8G10G29G12G15G02G05G25G26
   7004798.44546   5561376.21543  24495780.4064                   24495777.3834
 -20235810.13747 -15760634.44946  22098218.1804                   22098215.1724
  -8692192.17647  -6758566.44546  22129846.9774                   22129843.7274
 -16076241.07446 -12517085.01644  24061130.1254                   24061128.7854
  -4224136.03548  -3283449.92645  22061614.4614                   22061608.9184
 -17880965.33248 -13918368.53946  20772835.8134                   20772831.7384
 -16459227.65648 -12811880.91446  21801870.6804   21801869.3954
 -18932659.80147 -14743443.83244  23162192.9384                   23162190.0664
 11  8 16  2 52  0.0000000  0  8G10G29G12G15G02G05G25G26
   7160301.84046   5682547.66042  24525371.8674                   24525368.6604
 -20265507.65647 -15783775.32446  22092566.9774                   22092563.8484
  -8567847.60247  -6661674.56346  22153509.2814                   22153505.9614
 -16125756.25846 -12555668.14844  24051707.8204                   24051706.8874
  -4134808.05948  -3213843.71145  22078612.9384                   22078607.1254
 -17789478.47748 -13847080.06646  20790245.2274                   20790241.4304
 -16389509.47348 -12757555.05546  21815137.4844   21815136.3794
 -18975675.18047 -14776962.24244  23154006.7504                   23154004.8284
 11  8 16  2 52 30.0000000  0  8G10G29G12G15G02G05G25G26
   7315872.30146   5803771.41043  24554976.0314                   24554972.8014
 -20295040.11747 -15806787.59046  22086947.1024                   22086943.8524
  -8443177.56647  -6564529.09046  22177233.0784                   22177230.0274
 -16175293.35547 -12594268.37544  24042281.1954                   24042279.7344
  -4045388.76648  -3144166.33645  22095628.7814                   22095623.3674
 -17697542.51248 -13775441.64546  20807739.9304                   20807736.2154
 -16319247.25048 -12702805.27346  21828508.1414   21828507.1764
 -19018484.15647 -14810319.82444  23145860.8914                   23145858.2424
 11  8 16  2 53  0.0000000  0  8G10G29G12G15G02G05G25G26
   5896085.34446   4697443.89143  24284799.8834                   24284796.4224
 -21899834.49647 -17057276.68845  21781564.6884                   21781561.6684
  -9893608.19548  -7694734.77346  21901225.2194                   21901222.1214
 -17800278.64147 -13860490.55144  23733056.9614                   23733055.2034
  -5531302.26648  -4302021.01245  21812868.6094                   21812863.2934
 -19180583.72348 -14931058.16446  20525526.3524                   20525522.3364
 -17823867.19948 -13875236.40246  21542188.2034   21542187.6764
 -20636511.76247 -16071120.49644  22837959.6174                   22837957.1484
 11  8 16  2 53 30.0000000  0  8G10G29G12G15G02G05G25G26
   6051763.21146   4818751.31243  24314422.9224                   24314421.1844
 -21929051.65247 -17080043.24645  21776004.9454                   21776002.2114
  -9768316.03147  -7597104.51245  21925067.4454                   21925063.8594
 -17849871.30147 -13899134.04744  23723619.4694                   23723618.0664
  -5441719.80547  -4232216.49245  21829915.8364                   21829910.4224
 -19087775.41048 -14858739.98446  20543187.2814                   20543183.6914
 -17752540.84048 -13819657.42646  21555761.3054   21555760.5314
 -20678916.69947 -16104163.24644  22829890.5784                   22829888.0164
 11  8 16  2 54  0.0000000  0  9G10G29G12G15G02G05G25G26G21
   6207503.05946   4940107.05943  24344059.8984                   24344057.3324
 -21958095.80147 -17102675.00046  21770477.9224                   21770474.9454
  -9642705.05947  -7499225.84045  21948970.6564                   21948967.3954
 -17899475.09046 -13937786.23044  23714179.7584                   23714178.0784
  -5352043.91448  -4162339.17645  21846980.5004                   21846975.0824
 -18994522.34048 -14786075.24246  20560932.8594                   20560929.1054
 -17680672.73048 -13763656.29746  21569437.1174   21569436.1954
 -20721102.05947 -16137034.92244  22821862.8754                   22821860.2704
 -15771239.60956 -12287175.31353  25036374.0864                   25036372.4064
 11  8 16  2 54 30.0000000  0  9G10G29G12G15G02G05G25G26G21
   6363299.09446   5061506.57843  24373707.4694                   24373704.3954
 -21986967.60547 -17125172.46546  21764983.8594                   21764981.1764
  -9516781.49648  -7401103.58246  21972932.5554                   21972929.9264
 -17949090.94146 -13976447.81644  23704738.3524                   23704736.5204
  -5262277.37947  -4092391.21145  21864062.1884                   21864057.2464
 -18900830.14548 -14713068.32446  20578761.6484                   20578757.9264
 -17608267.77348 -13707236.84846  21583215.5394   21583214.4884
 -20763067.53947 -16169735.24244  22813877.2664                   22813874.6914
 -15781098.32446 -12294857.35543  25034498.0944                   25034496.2304
 11  8 16  2 55  0.0000000  0  9G10G29G12G15G02G05G25G26G21
   6519137.66446   5182939.25843  24403361.9694                   24403359.4224
 -22015676.63347 -17147543.09446  21759520.6484                   21759517.6994
  -9390560.05547  -7302749.20745  21996952.2344                   21996948.9144
 -17998727.26246 -14015125.34044  23695292.8834                   23695291.0864
  -5172431.92648  -4022381.76245  21881159.7424                   21881153.8794
 -18806712.56648 -14639729.94546  20596671.6564                   20596668.1414
 -17535338.93848 -13650409.18046  21597093.4304   21597092.4844
 -20804821.14547 -16202270.45345  22805931.4614                   22805929.2664
 -15790953.68446 -12302536.70743  25032621.3204                   25032620.7854
 11  8 16  2 55 30.0000000  0  9G10G29G12G15G02G05G25G26G21
   6675020.12146   5304406.08643  24433025.4924                   24433023.4264
 -22044217.02347 -17169782.32846  21754089.6174                   21754086.4844
  -9264039.73447  -7204161.96145  22021028.1884                   22021024.3714
 -18048377.33647 -14053813.58244  23685844.8754                   23685842.7814
  -5082503.55947  -3952307.69945  21898272.0704                   21898267.1954
 -18712167.69148 -14566058.60946  20614662.9924                   20614659.2894
 -17461883.94148 -13593171.52746  21611071.4384   21611070.2384
 -20846355.10247 -16234634.50844  22798028.0864                   22798025.8204
 -15800802.57446 -12310211.05943  25030747.8984                   25030745.6564
 11  8 16  2 56  0.0000000  0  9G10G29G12G15G02G05G25G26G21
   6830947.38346   5425907.84443  24462697.3754                   24462695.3874
 -22072583.59448 -17191886.10946  21748691.5704                   21748688.5984
  -9137220.25447  -7105341.57845  22045160.9144                   22045157.5434
 -18098035.33647 -14092507.99244  23676394.9064                   23676392.7034
  -4992488.72348  -3882166.27045  21915401.5394                   21915396.1334
 -18617194.46948 -14492053.48846  20632735.6174                   20632732.1414
 -17387901.32048 -13535522.72746  21625149.9064   21625148.6214
 -20887662.62947 -16266822.13744  22790167.7114                   22790165.2704
 -15810642.47746 -12317878.40643  25028875.7424                   25028873.5084
 11  8 16  2 56 30.0000000  0  9G10G29G12G15G02G05G25G26G21
   6986914.66846   5547440.78943  24492377.5864                   24492374.7154
 -22100776.15648 -17213854.30146  21743326.5084                   21743323.5004
  -9010107.37147  -7006292.58245  22069350.1094                   22069346.7814
 -18147700.88747 -14131208.31344  23666944.1884                   23666942.4574
  -4902390.08247  -3811959.53545  21932546.5394                   21932541.0634
 -18521797.90248 -14417718.50046  20650889.1564                   20650885.3834
 -17313395.25048 -13477466.04346  21639327.7664   21639326.7034
 -20928742.89147 -16298832.67244  22782350.2664                   22782347.1294
 -15820476.23846 -12325540.97343  25027004.1174                   25027002.2504
 11  8 16  2 57  0.0000000  0  9G10G29G12G15G02G05G25G26G21
   7142925.53146   5669007.65643  24522065.3834                   24522061.8874
 -22128786.73848 -17235680.69146  21737996.5164                   21737993.0784
  -8882697.46947  -6907012.14845  22093595.1954                   22093591.9264
 -18197365.03547 -14169907.54344  23657493.1644                   23657491.4774
  -4812201.43848  -3741682.66045  21949709.3444                   21949703.5474
 -18425974.37148 -14343050.80946  20669123.8444                   20669120.2114
 -17238361.26248 -13418998.00046  21653606.4614   21653605.0354
 -20969585.72747 -16330658.20344  22774577.3984                   22774575.7074
 -15830298.76646 -12333194.74643  25025135.5634                   25025132.5164
 11  8 16  2 57 30.0000000  0  8G29G12G15G02G05G25G26G21
 -22156620.12548 -17257369.01246  21732700.2274                   21732696.7344
  -8755001.10247  -6807508.50445  22117895.3444                   22117891.7544
 -18247031.93047 -14208608.90644  23648042.3754                   23648039.7544
  -4721929.94947  -3671341.24645  21966886.9304                   21966881.7114
 -18329732.83648 -14268057.39846  20687438.1254                   20687434.7154
 -17162808.14848 -13360125.43446  21667983.5084   21667982.5234
 -21010194.71547 -16362301.51644  22766850.1334                   22766847.3754
 -15840117.34046 -12340845.44543  25023266.0394                   25023264.2734
 11  8 16  2 58  0.0000000  0  8G29G12G15G02G05G25G26G21
 -22184268.20748 -17278912.94946  21727438.8204                   21727435.3484
  -8627015.27347  -6707779.28946  22142249.9454                   22142246.8404
 -18296692.84047 -14247305.61344  23638591.3984                   23638589.1414
  -4631569.32847  -3600930.36345  21984082.3444                   21984076.3914
 -18233069.82848 -14192735.55946  20705832.4304                   20705828.8244
 -17086731.53548 -13300844.95346  21682460.4224   21682459.3364
 -21050560.26647 -16393755.13744  22759168.9614                   22759166.1914
 -15849926.67246 -12348488.94943  25021399.3754                   25021397.8284
 11  8 16  2 58 30.0000000  0  8G29G12G15G02G05G25G26G21
 -22211726.96948 -17300309.35246  21722213.4064                   21722210.4414
  -8498741.07847  -6607825.37146  22166659.5704                   22166656.5124
 -18346343.08247 -14285994.00444  23629143.4614                   23629140.9964
  -4541117.63747  -3530448.52345  22001294.5554                   22001288.8054
 -18135985.82848 -14117085.68846  20724307.0004                   20724303.3324
 -17010131.50048 -13241156.60946  21697037.0784   21697036.0984
 -21090677.04347 -16425014.87944  22751535.0084                   22751532.0664
 -15859725.61746 -12356124.37943  25019534.6334                   25019532.4454
 11  8 16  2 59  0.0000000  0  8G29G12G15G02G05G25G26G21
 -22239000.13348 -17321561.13746  21717023.6724                   21717020.5434
  -8370187.61747  -6507653.84845  22191122.5314                   22191119.9804
 -18395985.59047 -14324676.37544  23619696.1724                   23619694.6564
  -4450580.97348  -3459900.47345  22018523.2814                   22018517.8524
 -18038489.04748 -14041114.16846  20742859.7974                   20742856.0784
 -16933015.63748 -13181066.32046  21711712.0634   21711711.0084
 -21130546.93447 -16456082.27744  22743947.8984                   22743944.8164
 -15869520.46546 -12363756.62143  25017670.6334                   25017669.8014
 11  8 16  2 59 30.0000000  0  8G29G12G15G02G05G25G26G21
 -22266072.44148 -17342656.41846  21711871.7584                   21711868.8324
  -8241344.85947  -6407256.89845  22215640.1954                   22215637.3444
 -18445604.59047 -14363340.44544  23610254.3524                   23610252.2424
  -4359945.93047  -3389275.75845  22035770.3444                   22035765.3874
 -17940568.89548 -13964812.74646  20761493.4924                   20761489.6454
 -16855372.90248 -13120565.48446  21726486.6564   21726485.6564
 -21170153.80947 -16486944.73844  22736410.5864                   22736407.9304
 -15879299.38746 -12371376.41442  25015809.5474                   25015808.2424
 11  8 16  3  0  0.0000000  0  8G29G12G15G02G05G25G26G21
 -22292945.26248 -17363596.24646  21706758.1094                   21706755.2704
  -8112219.25847  -6306639.54745  22240212.7814                   22240209.2304
 -18495200.53147 -14401986.51644  23600816.0784                   23600813.8364
  -4269215.59847  -3318576.79745  22053035.6564                   22053030.2464
 -17842230.81647 -13888185.66446  20780206.5944                   20780202.5704
 -16777208.32448 -13059658.01246  21741360.9224   21741359.9494
 -21209497.21547 -16517601.87544  22728924.0634                   22728921.0354
 -15889065.79745 -12378986.50842  25013950.0474                   25013950.0314
 11  8 16  3  0 30.0000000  0  8G29G12G15G02G05G25G26G21
 -22319620.36348 -17384382.01646  21701682.1094                   21701678.6374
  -7982817.71248  -6205807.19145  22264836.7974                   22264832.9184
 -18544774.75047 -14440615.65644  23591382.1414                   23591380.2194
  -4178394.53148  -3247807.13745  22070318.5704                   22070313.0634
 -17743481.37148 -13811238.04746  20798997.7664                   20798994.2154
 -16698527.81348 -12998348.52046  21756333.3284   21756332.3834
 -21248577.19847 -16548053.73544  22721487.0004                   22721484.9694
 -15898824.70746 -12386590.73442  25012094.0084                   25012093.1684
 11  8 16  3  1  0.0000000  0  8G29G12G15G02G05G25G26G21
 -22346097.08648 -17405013.19946  21696643.7504                   21696640.5274
  -7853144.99247  -6104763.52045  22289512.3444                   22289508.9184
 -18594325.90246 -14479226.82844  23581952.8444                   23581951.3094
  -4087483.66047  -3176967.50045  22087618.3594                   22087612.5904
 -17644324.67248 -13733973.07046  20817866.8754                   20817863.0514
 -16619334.89548 -12936639.75446  21771403.0784   21771402.6724
 -21287392.27047 -16578299.19944  22714100.7504                   22714098.4064
 -15908578.00045 -12394190.62142  25010236.5474                   25010237.7854
 11  8 16  3  1 30.0000000  0  8G29G12G15G02G05G25G26G21
 -22372369.75048 -17425485.37946  21691644.0704                   21691640.4884
  -7723200.88347  -6003508.36745  22314240.1804                   22314236.5784
 -18643847.50047 -14517814.96144  23572528.9614                   23572527.2154
  -3996479.57847  -3106055.22745  22104935.9144                   22104930.4574
 -17544759.48848 -13656389.80946  20836813.3984                   20836810.0434
 -16539627.94548 -12874530.43846  21786570.9454   21786570.1294
 -21325934.91447 -16608332.37144  22706766.3984                   22706763.8444
 -15918322.92246 -12401783.87142  25008383.1804                   25008382.2504
 11  8 16  3  2  0.0000000  0  8G29G12G15G02G05G25G26G21
 -22398443.78948 -17445802.78546  21686682.1484                   21686678.7624
  -7592996.09847  -5902050.09845  22339017.0704                   22339013.7734
 -18693344.52047 -14556383.96144  23563109.8834                   23563108.1564
  -3905389.78548  -3035076.16045  22122269.5554                   22122263.8714
 -17444795.66847 -13578495.91446  20855835.7344                   20855831.8954
 -16459416.64548 -12812028.11746  21801834.5164   21801833.4024
 -21364209.44547 -16638156.63744  22699483.1254                   22699479.7974
 -15928067.97346 -12409377.26242  25006528.7974                   25006527.4024
 11  8 16  3  2 30.0000000  0  8G29G12G15G02G05G25G26G21
 -22424307.11748 -17465956.00046  21681760.1564                   21681757.1764
  -7462523.69547  -5800383.30145  22363844.9384                   22363841.9734
 -18742804.01247 -14594923.72744  23553698.0864                   23553696.1214
  -3814204.26248  -2964022.51245  22139621.9304                   22139616.3674
 -17344426.04348 -13500285.81346  20874935.6484                   20874931.4454
 -16378692.86748 -12749126.46946  21817195.7664   21817194.7194
 -21402202.18047 -16667761.31344  22692253.2114                   22692250.6764
 -15937803.68446 -12416963.42642  25004676.5084                   25004674.5514
 11  8 16  3  3  0.0000000  0  8G29G12G15G02G05G25G26G21
 -22449971.43048 -17485954.13746  21676877.1024                   21676873.9304
  -7331800.68047  -5698521.21545  22388720.8364                   22388717.8524
 -18792237.02746 -14633442.84444  23544290.9694                   23544289.4224
  -3722936.71947  -2892904.94945  22156989.5864                   22156983.4924
 -17243666.71947 -13421772.05146  20894109.2424                   20894105.1414
 -16297472.59848 -12685837.93446  21832651.6804   21832650.6804
 -21439923.59447 -16697154.57044  22685074.7114                   22685072.2154
 -15947544.57846 -12424553.57843  25002822.5474                   25002819.6294
 11  8 16  3  3 30.0000000  0  8G29G12G15G02G05G25G26G21
 -22475428.43448 -17505790.72746  21672032.3594                   21672029.0434
  -7200823.85247  -5596461.36745  22413645.2734                   22413641.7384
 -18841634.43047 -14671934.22344  23534891.0314                   23534889.3444
  -3631581.01647  -2821718.68845  22174373.7664                   22174368.5514
 -17142513.67647 -13342951.48446  20913358.3284                   20913354.5664
 -16215751.57848 -12622159.21146  21848202.5004   21848201.4264
 -21477363.53947 -16726328.49245  22677950.1414                   22677947.8054
 -15957285.21146 -12432143.59043  25000969.1804                   25000965.2624
 11  8 16  3  4  0.0000000  0  8G29G12G15G02G05G25G26G21
 -22500665.48848 -17525455.92646  21667230.2034                   21667226.8244
  -7069586.21547  -5494198.26645  22438619.0704                   22438614.9344
 -18890983.10947 -14710387.66444  23525500.5554                   23525498.6334
  -3540126.73848  -2750455.61745  22191776.8594                   22191771.2624
 -17040959.29348 -13263818.19946  20932683.1174                   20932679.4224
 -16133521.54748 -12558083.85946  21863850.6484   21863849.5124
 -21514508.49647 -16755272.56645  22670881.9454                   22670879.2504
 -15967015.94946 -12439725.87143  24999117.4384                   24999114.5864
 11  8 16  3  4 30.0000000  0  8G29G12G15G02G05G25G26G21
 -22525687.82048 -17544953.82446  21662468.3444                   21662464.8984
  -6938098.14847  -5391740.05145  22463640.3364                   22463637.3094
 -18940287.63747 -14748806.71544  23516118.5394                   23516115.8244
  -3448581.15247  -2679121.40245  22209197.5084                   22209192.0274
 -16939013.49248 -13184379.91046  20952082.9224                   20952079.2584
 -16050792.11348 -12493619.36346  21879593.3364   21879592.4774
 -21551362.08247 -16783989.59445  22663869.1564                   22663866.6804
 -15976744.68446 -12447306.57843  24997265.3594                   24997263.8914
 11  8 16  3  5  0.0000000  0  8G29G12G15G02G05G25G26G21
 -22550493.91448 -17564283.21946  21657748.2584                   21657744.8484
  -6806363.57847  -5289089.75045  22488708.5704                   22488704.8634
 -18989545.39547 -14787189.32044  23506745.1024                   23506742.2114
  -3356944.54347  -2607716.25045  22226635.1724                   22226629.8794
 -16836679.39848 -13104639.05146  20971556.6174                   20971553.1994
 -15967565.62948 -12428767.54746  21895430.8524   21895429.7344
 -21587921.24647 -16812477.20744  22656911.4454                   22656908.7734
 -15986472.73846 -12454886.76243  24995414.5864                   24995412.0314
 11  8 16  3  5 30.0000000  0  8G29G12G15G02G05G25G26G21
 -22575087.52348 -17583447.03946  21653067.8914                   21653064.7894
  -6674391.64847  -5186254.48045  22513821.7974                   22513818.3984
 -19038759.92646 -14825538.20744  23497379.6884                   23497377.2344
  -3265223.08647  -2536244.97745  22244089.3914                   22244083.7154
 -16733965.55948 -13024602.29346  20991102.4534                   20991098.5004
 -15883850.56348 -12363535.02846  21911361.3054   21911360.2504
 -21624188.65547 -16840737.47645  22650010.1564                   22650007.9064
 -15996206.94146 -12462471.77043  24993562.0864                   24993559.5664
 11  8 16  3  6  0.0000000  0  8G29G12G15G02G05G25G26G21
 -22599462.91448 -17602440.82446  21648428.8914                   21648426.0864
  -6542182.14547  -5083234.09045  22538980.7504                   22538977.2584
 -19087924.58246 -14863848.25844  23488023.7814                   23488020.9224
  -3173413.04348  -2464704.68845  22261560.1804                   22261554.7154
 -16630870.46948 -12944268.44546  21010720.7504                   21010716.7624
 -15799645.30548 -12297920.53546  21927384.9454   21927383.9454
 -21660157.01647 -16868764.72344  22643165.8364                   22643162.9964
 -16005944.21546 -12470059.15243  24991709.3284                   24991706.6914
 11  8 16  3  6 30.0000000  0  8G29G12G15G02G05G25G26G21
 -22623615.59848 -17621261.07046  21643833.4534                   21643830.3094
  -6409735.41047  -4980028.84845  22564184.2424                   22564180.6804
 -19137034.32447 -14902115.52044  23478678.2034                   23478675.7504
  -3081511.45748  -2393093.05945  22279047.7664                   22279042.6174
 -16527394.58647 -12863637.88746  21030411.2504                   21030407.9064
 -15714949.69548 -12231923.94946  21943501.8284   21943501.0394
 -21695820.68047 -16896554.55145  22636379.4144                   22636375.9924
 -16015682.77746 -12477647.52044  24989855.7504                   24989852.8094
 11  8 16  3  7  0.0000000  0  8G29G12G15G02G05G25G26G21
 -22647539.19548 -17639902.80546  21639280.6024                   21639277.5984
  -6277050.19147  -4876637.78945  22589433.5704                   22589430.3634
 -19186081.91046 -14940334.32844  23469344.8524                   23469342.5394
  -2989514.73047  -2321407.30945  22296554.4534                   22296549.6764
 -16423536.17648 -12782709.24646  21050175.1884                   21050171.6994
 -15629761.70348 -12165543.68846  21959712.8364   21959712.0314
 -21731171.49247 -16924100.59044  22629651.9844                   22629649.4534
 -16025419.35946 -12485234.35243  24988002.3134                   24988000.1334
 11  8 16  3  7 30.0000000  0  8G29G12G15G02G05G25G26G21
 -22671235.97748 -17658367.80146  21634771.1804                   21634768.0664
  -6144134.96547  -4773067.49645  22614726.7974                   22614723.3364
 -19235069.33246 -14978506.23044  23460022.8444                   23460020.6484
  -2897427.28947  -2249650.86345  22314078.5474                   22314072.7074
 -16319302.35548 -12701488.07846  21070010.2274                   21070006.2424
 -15544088.28548 -12098785.17646  21976015.7584   21976015.0314
 -21766210.98447 -16951404.04344  22622984.2034                   22622981.5864
 -16035159.10546 -12492823.67643  24986148.7344                   24986146.3874
 11  8 16  3  8  0.0000000  0  8G29G12G15G02G05G25G26G21
 -22694704.69948 -17676655.08246  21630305.4224                   21630302.0704
  -6010993.70747  -4669321.07045  22640062.4304                   22640058.8014
 -19283994.05146 -15016629.34844  23450712.6334                   23450710.0004
  -2805249.36748  -2177823.91045  22331619.6094                   22331614.1374
 -16214696.45748 -12619976.98846  21089916.1954                   21089912.2424
 -15457932.22748 -12031650.57846  21992410.7114   21992409.6914
 -21800935.98847 -16978462.43444  22616376.1334                   22616373.2274
 -16044903.38746 -12500416.49243  24984293.9694                   24984292.4534
 11  8 16  3  8 30.0000000  0  8G29G12G15G02G05G25G26G21
 -22717939.10248 -17694759.78946  21625883.8984                   21625880.6094
  -5877625.32847  -4565397.66845  22665441.9064                   22665438.9694
 -19332849.49247 -15054698.39544  23441415.4924                   23441413.6524
  -2712977.00848  -2105923.37145  22349178.3204                   22349173.0124
 -16109716.67248 -12538174.54346  21109893.0084                   21109889.6604
 -15371291.84048 -11964138.59446  22008897.5004   22008897.0434
 -21835339.02747 -17005269.96145  22609829.5864                   22609826.7114
 -16054648.96945 -12508010.37943  24982439.9694                   24982437.7704
 11  8 16  3  9  0.0000000  0  8G29G12G15G02G05G25G26G21
 -22740943.10548 -17712684.96146  21621506.3284                   21621503.0864
  -5744038.90247  -4461304.38345  22690861.9534                   22690858.7074
 -19381638.53147 -15092715.73844  23432131.4614                   23432128.6214
  -2620616.12548  -2033953.85245  22366753.9454                   22366748.7774
 -16004372.18447 -12456087.92646  21129939.2894                   21129935.4494
 -15284175.45348 -11896255.68446  22025475.3594   22025474.8484
 -21869422.90247 -17031828.78144  22603343.8834                   22603340.7894
 -16064402.32446 -12515610.25043  24980583.5164                   24980581.3754
 11  8 16  3  9 30.0000000  0  8G29G12G15G02G05G25G26G21
 -22763709.68448 -17730425.12946  21617174.1484                   21617170.9494
  -5610233.57847  -4357040.49645  22716324.3204                   22716321.3284
 -19430354.21146 -15130675.91444  23422861.1484                   23422858.0594
  -2528162.06348  -1961911.71945  22384346.8204                   22384341.6804
 -15898660.41048 -12373715.11346  21150055.3594                   21150051.3554
 -15196580.83648 -11828000.14546  22042144.2894   22042143.4184
 -21903179.42647 -17058132.52745  22596920.0084                   22596917.2894
 -16074160.02746 -12523213.59043  24978726.8594                   24978724.8554
 11  8 16  3 10  0.0000000  0  8G29G12G15G02G05G25G26G21
 -24361659.13748 -18975580.51246  21313094.1954                   21313091.3014
  -7051629.24247  -5480205.98445  22442036.1644                   22442033.0824
 -21054416.25847 -16396178.71144  23113811.9694                   23113809.1764
  -4011033.29348  -3117395.80145  22102166.6334                   22102161.0084
 -17368002.09447 -13518656.67646  20870449.0864                   20870445.3524
 -16683928.77348 -12986972.56346  21759111.2274   21759110.3634
 -23512027.58647 -18311780.40245  22290766.2734                   22290762.9574
 -17659344.19546 -13758421.92243  24677076.5084                   24677074.0944
 11  8 16  3 10 30.0000000  0  8G29G12G15G02G05G25G26G21
 -24383947.65648 -18992948.16446  21308852.7344                   21308849.8364
  -6917398.05547  -5375610.27345  22467579.7734                   22467576.3754
 -21102978.48447 -16434019.31344  23104570.9694                   23104568.5664
  -3918395.59048  -3045210.55545  22119794.5394                   22119789.2584
 -17261566.70748 -13435720.00846  20890703.0004                   20890699.2274
 -16595387.43848 -12917979.30946  21775960.2274   21775959.1604
 -23545121.50447 -18337567.84045  22284468.8134                   22284465.8554
 -17669114.69946 -13766035.21143  24675217.5474                   24675214.6644
 11  8 16  3 11  0.0000000  0  8G29G12G15G02G05G25G26G21
 -24405993.85548 -19010126.99646  21304657.4534                   21304654.4144
  -6782958.74647  -5270852.39145  22493162.1094                   22493159.0394
 -21151459.96547 -16471797.00844  23095345.5314                   23095343.0394
  -3825666.09047  -2972953.80945  22137440.2344                   22137434.6724
 -17154773.64148 -13352504.62946  20911024.9224                   20911021.4804
 -16506376.48848 -12848620.13346  21792898.3524   21792897.8834
 -23577879.15647 -18363093.25445  22278235.3444                   22278232.1804
 -17678893.01246 -13773654.55543  24673356.0864                   24673353.4414
 11  8 16  3 11 30.0000000  0  8G29G12G15G02G05G25G26G21
 -24427788.22348 -19027109.59446  21300510.4064                   21300507.1134
  -6648307.12147  -5165929.05945  22518785.6564                   22518782.6294
 -21199850.29747 -16509503.67244  23086137.7734                   23086134.1414
  -3732836.74647  -2900619.24645  22155105.5394                   22155099.9964
 -17047617.84848 -13269006.59846  20931415.9844                   20931412.4264
 -16416890.68448 -12778890.92246  21809927.1644   21809926.3054
 -23610289.68447 -18388348.16045  22272067.6174                   22272064.1994
 -17688672.04346 -13781274.50042  24671495.0314                   24671493.1024
 11  8 16  3 12  0.0000000  0  8G29G12G15G02G05G25G26G21
 -24449338.18848 -19043901.74246  21296409.1954                   21296405.9304
  -6513455.86347  -5060850.17245  22544446.6414                   22544442.9884
 -21248155.94947 -16547144.34044  23076944.3054                   23076941.7704
  -3639917.33648  -2828214.50445  22172787.1334                   22172781.9384
 -16940111.18048 -13185235.17646  20951873.8754                   20951870.3444
 -16326941.89148 -12708800.94546  21827043.8134   21827042.6914
 -23642358.76247 -18413337.02345  22265965.1484                   22265961.8134
 -17698462.05946 -13788902.93843  24669632.1334                   24669629.9534
 11  8 16  3 12 30.0000000  0  8G29G12G15G02G05G25G26G21
 -24470639.03548 -19060499.77746  21292355.9064                   21292352.7974
  -6378406.07447  -4955616.58245  22570146.5394                   22570143.0554
 -21296371.91447 -16584715.13344  23067769.7194                   23067766.1564
  -3546905.46948  -2755737.72345  22190486.9924                   22190481.6954
 -16832254.33648 -13101190.87946  20972398.4064                   20972394.8914
 -16236530.49648 -12638350.51246  21844248.2194   21844247.6764
 -23674080.98047 -18438055.60244  22259928.4064                   22259925.4224
 -17708261.62146 -13796538.89843  24667767.2664                   24667765.0004
 11  8 16  3 13  0.0000000  0  8G29G12G15G02G05G25G26G21
 -24491686.57848 -19076900.44146  21288351.0944                   21288347.2734
  -6243158.97347  -4850229.23845  22595882.5164                   22595879.6454
 -21344493.34847 -16622212.27044  23058612.0474                   23058609.0044
  -3453799.03147  -2683187.23445  22208204.5474                   22208199.1094
 -16724047.76648 -13016874.06646  20992989.7114                   20992985.6884
 -16145656.80947 -12567539.83646  21861541.0944   21861540.6054
 -23705450.68847 -18462499.47745  22253958.6484                   22253955.9414
 -17718069.11746 -13804181.00843  24665902.0784                   24665897.9494
 11  8 16  3 13 30.0000000  0  8G29G12G15G02G05G25G26G21
 -24512481.05148 -19093103.89846  21284394.1334                   21284390.4804
  -6107720.18047  -4744692.54345  22621656.4304                   22621652.6134
 -21392519.91847 -16659635.50044  23049472.9224                   23049470.0554
  -3360599.99247  -2610564.60945  22225939.4924                   22225934.7584
 -16615496.52348 -12932288.68046  21013646.1414                   21013642.5044
 -16054325.62148 -12496372.68446  21878920.7504   21878920.3634
 -23736466.92247 -18486667.93045  22248056.4614                   22248053.5084
 -17727887.80146 -13811831.79743  24664032.4924                   24664029.5084
 11  8 16  3 14  0.0000000  0  8G29G12G15G02G05G25G26G21
 -24533018.02048 -19109106.69946  21280486.0164                   21280482.2114
  -5972090.55147  -4639007.14145  22647465.7814                   22647462.6254
 -21440445.94947 -16696980.37544  23040352.7424                   23040350.3284
  -3267305.73847  -2537867.77345  22243693.0394                   22243687.4264
 -16506600.76647 -12847434.84446  21034368.2504                   21034364.4654
 -15962537.12948 -12424849.18846  21896387.6884   21896386.8554
 -23767123.91047 -18510556.45344  22242222.5634                   22242219.6994
 -17737716.01646 -13819490.01243  24662163.0944                   24662159.7344
 11  8 16  3 14 30.0000000  0  8G29G12G15G02G05G25G26G21
 -24553293.38748 -19124905.65646  21276627.4144                   21276624.0004
  -5836271.37547  -4533174.02745  22673310.9224                   22673308.2624
 -21488266.70347 -16734243.22344  23031252.9144                   23031250.0744
  -3173915.01648  -2465095.79345  22261464.2504                   22261458.8834
 -16397361.32848 -12762313.20346  21055155.8754                   21055151.8754
 -15870292.03148 -12352969.88346  21913941.1094   21913940.7034
 -23797416.21947 -18534160.81345  22236458.4064                   22236455.7034
 -17747552.52746 -13827154.75843  24660290.3524                   24660288.0944
 11  8 16  3 15  0.0000000  0  8G29G12G15G02G05G25G26G21
 -24573304.66448 -19140498.82846  21272819.2274                   21272816.0744
  -5700265.87147  -4427195.74245  22699191.9774                   22699189.2034
 -21535979.09047 -16771421.64844  23022173.4224                   23022170.4344
  -3080427.05147  -2392248.03145  22279254.4614                   22279249.5234
 -16287780.44948 -12676925.49246  21076008.5164                   21076004.9304
 -15777592.54748 -12280736.52346  21931581.2344   21931581.3284
 -23827340.39547 -18557478.31345  22230763.5234                   22230761.2344
 -17757397.74646 -13834826.27043  24658416.5784                   24658414.3754
 11  8 16  3 15 30.0000000  0  8G29G12G15G02G05G25G26G21
 -24593058.07448 -19155891.08246  21269060.7424                   21269056.9694
  -5564085.40647  -4321081.10545  22725105.9694                   22725103.5434
 -21583588.64147 -16808519.93144  23013113.6884                   23013110.4734
  -2986849.71147  -2319330.62545  22297062.1414                   22297056.5784
 -16177869.12148 -12591280.29746  21096923.5704                   21096919.7344
 -15684449.46548 -12208157.50046  21949305.8834   21949305.2074
 -23856901.13347 -18580512.60545  22225138.4694                   22225136.0124
 -17767260.78146 -13842511.61743  24656540.6254                   24656537.8204
 11  8 16  3 16  0.0000000  0  8G29G12G15G02G05G25G26G21
 -24612543.27348 -19171074.32846  21265352.4614                   21265348.8874
  -5427725.10547  -4214826.34445  22751054.4694                   22751051.6254
 -21631084.48447 -16845529.60944  23004074.9774                   23004072.2274
  -2893174.96147  -2246337.30945  22314887.6024                   22314881.8634
 -16067622.01648 -12505373.46146  21117903.0704                   21117899.7584
 -15590857.32048 -12135228.53946  21967116.1254   21967114.7894
 -23886087.07047 -18603254.85245  22219584.6644                   22219582.0204
 -17777134.02746 -13850204.97343  24654661.5784                   24654658.4414
 11  8 16  3 16 30.0000000  0  8G29G12G15G02G05G25G26G21
 -24631755.83248 -19186045.12946  21261696.3594                   21261692.9924
  -5291185.99647  -4108432.25445  22777038.0634                   22777034.4654
 -21678461.21947 -16882446.48044  22995059.7584                   22995056.4654
  -2799400.43847  -2173266.25845  22332732.5164                   22332726.9454
 -15957039.33248 -12419205.14146  21138946.2584                   21138942.3524
 -15496816.38348 -12061949.89846  21985011.4454   21985010.3834
 -23914892.50447 -18625700.61345  22214103.3914                   22214100.2464
 -17787016.13346 -13857905.22743  24652780.2974                   24652777.6994
 11  8 16  3 17  0.0000000  0  8G29G12G15G02G05G25G26G21
 -24650697.71548 -19200805.00846  21258092.1484                   21258088.7504
  -5154475.52047  -4001904.64545  22803052.8674                   22803049.8284
 -21725720.06647 -16919271.48044  22986066.7194                   22986063.5204
  -2705530.30947  -2100120.71145  22350595.0634                   22350589.7814
 -15846127.87948 -12332780.62546  21160051.8204                   21160048.0084
 -15402333.43848 -11988326.82446  22002990.9064   22002989.9414
 -23943318.14547 -18647850.42645  22208693.8204                   22208691.8134
 -17796911.77346 -13865616.02343  24650897.2034                   24650894.1374
 11  8 16  3 17 30.0000000  0  8G29G12G15G02G05G25G26G21
 -24669367.15248 -19215352.59446  21254539.3364                   21254536.2894
  -5017597.55547  -3895246.51645  22829100.0864                   22829097.1914
 -21772858.53947 -16956002.69544  22977096.8134                   22977093.8324
  -2611564.72747  -2026900.77345  22368476.5004                   22368470.8244
 -15734890.81347 -12246102.39546  21181219.6644                   21181215.9614
 -15307411.52048 -11914361.69146  22021053.9064   22021052.6374
 -23971361.06647 -18669702.02745  22203357.2194                   22203355.2234
 -17806822.11346 -13873338.23843  24649010.9534                   24649007.8634
 11  8 16  3 18  0.0000000  0  9G18G29G12G15G02G05G25G26G21
 -17382233.74656 -13533718.16453  24676268.7974                   24676265.5664
 -24687757.37148 -19229682.60546  21251039.5084                   21251036.1684
  -4880550.53947  -3788456.65645  22855179.0164                   22855175.9344
 -21819869.17247 -16992634.31644  22968150.7734                   22968147.4494
  -2517499.00847  -1953602.82045  22386376.2584                   22386371.1094
 -15623325.65648 -12159168.51246  21202450.0864                   21202446.0904
 -15212048.56348 -11840052.90646  22039200.8594   22039199.5634
 -23999013.20747 -18691249.10945  22198095.7584                   22198092.7464
 -17816743.03546 -13881068.74643  24647122.7274                   24647120.1524
 11  8 16  3 18 30.0000000  0  9G18G29G12G15G02G05G25G26G21
 -17425024.57046 -13567061.57443  24668126.6644                   24668122.9924
 -24705873.04748 -19243798.68846  21247592.3134                   21247589.0824
  -4743344.46947  -3681542.85945  22881288.2034                   22881285.2814
 -21866756.16847 -17029169.57845  22959228.7344                   22959225.3714
  -2423339.65647  -1880231.91845  22404294.0634                   22404289.0824
 -15511442.59848 -12071986.90646  21223740.2664                   21223736.7504
 -15116254.37148 -11765408.07846  22057429.9064   22057428.8524
 -24026278.41047 -18712494.69945  22192907.3914                   22192904.3754
 -17826682.31346 -13888813.53543  24645231.6024                   24645228.3754
 11  8 16  3 19  0.0000000  0  9G18G29G12G15G02G05G25G26G21
 -17467660.71946 -13600284.40242  24660012.1484                   24660009.8284
 -24723716.53548 -19257702.68046  21244196.7504                   21244193.4844
  -4605987.18047  -3574511.23045  22907426.5704                   22907423.2274
 -21913520.84047 -17065609.52744  22950329.1024                   22950326.0554
  -2329090.90247  -1806791.32845  22422228.6414                   22422223.9844
 -15399248.53148 -11984562.95346  21245090.2894                   21245086.9694
 -15020035.72348 -11690432.52746  22075739.9144   22075738.9304
 -24053157.54747 -18733439.44945  22187792.2344                   22187789.3444
 -17836644.90646 -13896576.52043  24643335.4144                   24643332.6214
 11  8 16  3 19 30.0000000  0  9G18G29G12G15G02G05G25G26G21
 -17510129.58246 -13633376.92642  24651930.4614                   24651928.1294
 -24741273.91848 -19271383.74246  21240855.8204                   21240851.9844
  -4468470.54747  -3467355.43445  22933595.2734                   22933592.1764
 -21960148.35947 -17101942.59445  22941456.2194                   22941453.1604
  -2234741.25447  -1733272.14145  22440183.4384                   22440178.2344
 -15286734.60248 -11896889.76646  21266500.8364                   21266497.3094
 -14923383.83648 -11615119.36746  22094131.8984   22094130.7774
 -24079635.51647 -18754071.60245  22182753.8594                   22182750.3014
 -17846619.99246 -13904349.19143  24641436.6024                   24641434.5864
 11  8 16  3 20  0.0000000  0  9G18G29G12G15G02G05G25G26G21
 -17552437.43846 -13666343.90642  24643879.0164                   24643878.5824
 -24758550.00848 -19284845.61346  21237568.3674                   21237565.0824
  -4330804.66047  -3360083.33245  22959792.5474                   22959788.9654
 -22006643.12147 -17138172.21545  22932608.5084                   22932605.1054
  -2140297.81647  -1659679.84045  22458154.9534                   22458149.5274
 -15173910.39148 -11808974.79746  21287970.9064                   21287967.3674
 -14826308.50048 -11539476.26646  22112604.9844   22112604.0234
 -24105716.32847 -18774394.29745  22177790.4614                   22177787.4884
 -17856615.46146 -13912137.77043  24639534.8134                   24639532.2074
 11  8 16  3 20 30.0000000  0  9G18G29G12G15G02G05G25G26G21
 -17594580.46546 -13699182.46542  24635858.7344                   24635859.6254
 -24775540.36348 -19298084.82446  21234335.1804                   21234331.9494
  -4192990.43847  -3252695.65645  22986017.5784                   22986014.4304
 -22052999.87947 -17174294.30545  22923787.0784                   22923783.9184
  -2045757.92647  -1586012.42245  22476146.1414                   22476140.1604
 -15060775.98448 -11720818.11346  21309499.6414                   21309495.8524
 -14728809.94148 -11463503.36746  22131158.2114   22131156.5594
 -24131394.17247 -18794402.98845  22172903.5944                   22172901.3404
 -17866629.25846 -13919940.66443  24637629.9924                   24637627.0514
 11  8 16  3 21  0.0000000  0  9G18G29G12G15G02G05G25G26G21
 -17636551.64146 -13731887.13742  24627872.9844                   24627872.4494
 -24792237.04348 -19311095.20746  21231157.7424                   21231154.4534
  -4055025.04747  -3145190.17245  23012271.7274                   23012267.8634
 -22099209.68047 -17210301.88344  22914993.3914                   22914990.8634
  -1951115.00047  -1512264.69945  22494155.9774                   22494150.3634
 -14947328.13748 -11632417.19146  21331087.9774                   21331084.2664
 -14630884.91048 -11387198.16045  22149792.5864   22149791.3014
 -24156659.69947 -18814090.37545  22168096.2344                   22168093.2154
 -17876656.22346 -13927753.78543  24635721.5704                   24635718.8324
 11  8 16  3 21 30.0000000  0  9G18G29G12G15G02G05G25G26G21
 -17678358.37146 -13764463.68442  24619917.8914                   24619916.2424
 -24808645.98448 -19323881.37546  21228034.6804                   21228031.7114
  -3916920.10947  -3037575.94945  23038552.0554                   23038548.2854
 -22145278.24647 -17246199.40245  22906227.2664                   22906224.3164
  -1856377.43847  -1438443.22745  22512183.5864                   22512178.0434
 -14833577.82048 -11543780.57846  21352734.1644                   21352730.2934
 -14532544.43848 -11310569.21546  22168506.4694   22168505.1484
 -24181518.00447 -18833460.44145  22163365.7274                   22163362.9884
 -17886705.35246 -13935584.20343  24633809.9924                   24633806.2274
 11  8 16  3 22  0.0000000  0  9G18G29G12G15G02G05G25G26G21
 -17719993.35546 -13796906.36343  24611994.0554                   24611992.5044
 -24824758.68848 -19336436.70746  21224968.7664                   21224965.8404
  -3778672.77347  -2929850.76245  23064859.3914                   23064855.9414
 -22191196.42647 -17281979.76645  22897488.6414                   22897486.4384
  -1761539.09447  -1364543.22345  22530231.1644                   22530225.4924
 -14719521.78548 -11454905.75046  21374438.1724                   21374434.3444
 -14433785.35248 -11233614.07846  22187299.6884   22187298.4884
 -24205959.61747 -18852505.84045  22158714.8054                   22158711.7464
 -17896770.93446 -13943427.39543  24631893.8054                   24631890.5394
 11  8 16  3 22 30.0000000  0  9G18G29G12G15G02G05G25G26G21
 -17761456.48846 -13829215.12143  24604104.0004                   24604102.2504
 -24840574.03148 -19348760.33246  21221959.4924                   21221956.0044
  -3640287.06647  -2822017.77345  23091192.9304                   23091190.2154
 -22236961.65647 -17317640.94145  22888779.7974                   22888776.7774
  -1666600.47348  -1290565.08645  22548297.2274                   22548291.7704
 -14605163.35548 -11365795.28946  21396199.7194                   21396196.2934
 -14334610.98848 -11156335.37546  22206171.9064   22206170.6374
 -24229982.12947 -18871224.65645  22154143.2584                   22154140.7504
 -17906854.48846 -13951284.64843  24629975.4844                   24629971.4224
 11  8 16  3 23  0.0000000  0  9G18G29G12G15G02G05G25G26G21
 -17802750.39846 -13861392.08643  24596246.0394                   24596243.0704
 -24856094.10948 -19360853.89146  21219006.0784                   21219002.5124
  -3501770.36347  -2714082.71545  23117552.3834                   23117549.2814
 -22282575.22347 -17353183.94144  22880100.0864                   22880097.0824
  -1571565.53947  -1216511.90645  22566381.9144                   22566375.8794
 -14490509.25048 -11276454.43046  21418018.0084                   21418014.0234
 -14235028.36348 -11078738.53146  22225121.5704   22225120.8714
 -24253586.28147 -18889617.47345  22149651.6024                   22149648.5354
 -17916961.10246 -13959159.84043  24628051.0864                   24628048.3634
 11  8 16  3 23 30.0000000  0  9G18G29G12G15G02G05G25G26G21
 -17843869.68446 -13893432.93843  24588420.5864                   24588418.4264
 -24871311.77048 -19372711.79346  21216110.4224                   21216106.4964
  -3363121.37947  -2606044.57845  23143936.1564                   23143933.0784
 -22328029.91047 -17388603.12545  22871450.6094                   22871447.5594
  -1476429.28547  -1142379.77345  22584485.5634                   22584479.5784
 -14375557.55948 -11186881.68046  21439892.6024                   21439888.5274
 -14135035.63348 -11000822.11346  22244149.9144   22244148.8484
 -24276764.34047 -18907678.25845  22145240.9924                   22145237.5164
 -17927086.67646 -13967049.82443  24626125.0314                   24626121.6564
 11  8 16  3 24  0.0000000  0  9G18G29G12G15G02G05G25G26G21
 -17884803.99246 -13925329.66843  24580631.4614                   24580628.7464
 -24886215.87948 -19384325.37146  21213273.8674                   21213270.8404
  -3224334.34047  -2497898.85244  23170346.2034                   23170343.3054
 -22373313.47747 -17423888.99245  22862832.8984                   22862830.1884
  -1381182.65647  -1068161.64145  22602610.0784                   22602604.9964
 -14260301.85248 -11097072.03946  21461824.9844                   21461821.3324
 -14034626.45748 -10922581.19546  22263256.7664   22263256.1174
 -24299503.85947 -18925397.34445  22140913.4454                   22140910.6254
 -17937222.46146 -13974947.77343  24624196.1334                   24624192.9844
 11  8 16  3 24 30.0000000  0  9G18G29G12G15G02G05G25G26G21
 -17925563.98046 -13957090.54343  24572874.3594                   24572871.8794
 -24900815.71948 -19395701.85546  21210496.1174                   21210492.1644
  -3085423.73847  -2389656.86345  23196780.2584                   23196776.8794
 -22418434.38347 -17459048.09845  22854247.0084                   22854243.3014
  -1285837.12147   -993866.43445  22620753.7734                   22620748.0824
 -14144756.20348 -11007036.47346  21483812.7424                   21483808.8164
 -13933815.17648 -10844026.96145  22282441.0634   22282439.2234
 -24321813.01647 -18942781.08245  22136668.6884                   22136665.8164
 -17947380.70747 -13982863.19143  24622263.4694                   24622260.2424
 11  8 16  3 25  0.0000000  0  9G18G29G12G15G02G05G25G26G21
 -17966154.46546 -13988719.36343  24565150.6254                   24565147.8324
 -24915115.06648 -19406844.19146  21207774.8914                   21207771.3244
  -2946399.05547  -2281325.96545  23223236.1484                   23223232.7664
 -22463396.07847 -17494083.14845  22845691.1804                   22845687.4224
  -1190398.49647   -919498.68445  22638915.6254                   22638909.9184
 -14028929.58248 -10916781.96146  21505853.4144                   21505849.9104
 -13832610.78948 -10765166.40246  22301699.5234   22301698.0234
 -24343694.81647 -18959831.80545  22132504.4224                   22132501.6844
 -17957568.35546 -13990801.54743  24620324.4454                   24620321.3984
 11  8 16  3 25 30.0000000  0  9G18G29G12G15G02G05G25G26G21
 -18006562.53546 -14020206.03543  24557460.9924                   24557459.4494
 -24929099.70748 -19417741.29746  21205113.4924                   21205109.8284
  -2807251.19547  -2172899.10245  23249714.5704                   23249712.3444
 -22508183.37147 -17528982.29745  22837168.1804                   22837165.2274
  -1094854.12947   -845048.53945  22657097.0944                   22657091.7464
 -13912812.35948 -10826301.00446  21527949.9384                   21527946.0784
 -13731003.99248 -10685992.28145  22321034.6254   22321033.3444
 -24365133.86347 -18976537.52745  22128424.7114                   22128421.8164
 -17967773.77347 -13998753.73043  24618382.6254                   24618378.7074
 11  8 16  3 26  0.0000000  0  9G18G29G12G15G02G05G25G26G21
 -18046793.59846 -14051554.80543  24549806.1414                   24549803.5204
 -24942773.94148 -19428396.52746  21202511.4454                   21202507.9574
  -2667990.11747  -2064384.00845  23276215.6024                   23276212.5234
 -22552799.62947 -17563748.18045  22828678.0164                   22828675.3094
   -999210.67647   -770521.17245  22675297.2734                   22675291.7734
 -13796413.26648 -10735600.41446  21550099.8754                   21550096.3794
 -13629004.08248 -10606511.83246  22340444.0084   22340443.9384
 -24386133.48047 -18992900.83245  22124428.1954                   22124425.7304
 -17978003.76247 -14006725.04343  24616435.8204                   24616432.2664
 11  8 16  3 26 30.0000000  0  9G18G29G12G15G02G05G25G26G21
 -19662261.08646 -15310360.49643  24242390.9844                   24242390.2464
 -26531549.60248 -20666403.52046  20900177.4774                   20900173.8754
  -4104027.64547  -3183374.32444  23002946.5634                   23002942.8404
 -24172656.91047 -18825974.59445  22520429.1884                   22520426.4024
  -2478877.83247  -1923508.58245  22393726.2274                   22393720.9804
 -15255144.82848 -11872274.35946  21272512.4384                   21272508.5124
 -15102023.89148 -11754319.48446  22060138.0944   22060137.4064
 -25982104.46547 -20236514.55145  21820724.9384                   21820722.1994
 -19563672.98046 -15242311.35543  24314692.4304                   24314689.4844
 11  8 16  3 27  0.0000000  0  9G18G29G12G15G02G05G25G26G21
 -19702123.14546 -15341421.70342  24234806.4694                   24234803.6764
 -26544584.90648 -20676560.88746  20897696.7194                   20897693.1414
  -3964537.84047  -3074681.00044  23029490.0784                   23029487.9924
 -24216910.82047 -18860458.12945  22512008.2504                   22512004.6844
  -2383023.22347  -1848816.69145  22411966.6174                   22411961.3554
 -15138179.01248 -11781132.16046  21294770.5554                   21294766.6134
 -14999234.66048 -11674223.98846  22079698.2504   22079697.7194
 -26002203.84047 -20252176.37145  21816900.2734                   21816897.7274
 -19573943.03946 -15250313.90643  24312737.8914                   24312735.1844
 11  8 16  3 27 30.0000000  0  9G18G29G12G15G02G05G25G26G21
 -19741796.74246 -15372336.08642  24227257.2034                   24227253.8324
 -26557294.98848 -20686464.82846  20895278.3754                   20895274.8634
  -3824936.08647  -2965900.46544  23056055.8364                   23056052.8014
 -24260976.65247 -18894795.10945  22503622.8364                   22503619.8954
  -2287060.64847  -1774040.67245  22430227.3284                   22430222.4574
 -15020931.32448 -11689770.31646  21317082.0864                   21317077.9614
 -14896052.57047 -11593822.35946  22099333.1174   22099332.2234
 -26021845.85947 -20267481.80145  21813162.8594                   21813160.0394
 -19584231.21147 -15258330.57043  24310780.0864                   24310777.2504
 11  8 16  3 28  0.0000000  0  9G18G29G12G15G02G05G25G26G21
 -19781288.23046 -15403108.55143  24219741.9144                   24219739.2584
 -26569685.22348 -20696119.53546  20892920.8204                   20892916.8364
  -3685232.91847  -2857040.87544  23082640.7584                   23082637.2814
 -24304858.81647 -18928988.95345  22495271.7974                   22495269.3324
  -2190997.02047  -1699185.91045  22448507.9304                   22448502.3754
 -14903412.03948 -11598196.84846  21339444.8754                   21339441.1844
 -14792488.05147 -11513122.73446  22119040.5944   22119040.1374
 -26041034.58647 -20282434.04345  21809511.2194                   21809508.4184
 -19594545.71946 -15266367.74643  24308817.0554                   24308814.0984
 11  8 16  3 28 30.0000000  0  9G18G29G12G15G02G05G25G26G21
 -19820594.65246 -15433736.78543  24212260.6174                   24212259.9454
 -26581751.03148 -20705521.45346  20890624.2424                   20890620.8954
  -3545429.60247  -2748103.25444  23109244.1414                   23109240.9264
 -24348552.05547 -18963035.59845  22486957.4454                   22486954.7384
  -2094830.00847  -1624250.58245  22466808.1884                   22466802.6294
 -14785620.87948 -11506411.52046  21361859.7894                   21361856.3794
 -14688541.78547 -11432125.64846  22138820.7814   22138820.1684
 -26059765.00047 -20297029.14845  21805946.6954                   21805944.2894
 -19604884.87146 -15274424.14143  24306850.2814                   24306846.0354
 11  8 16  3 29  0.0000000  0  9G18G29G12G15G02G05G25G26G21
 -19859708.69946 -15464215.13743  24204818.6334                   24204816.3204
 -26593484.34848 -20714664.27346  20888391.4844                   20888387.9844
  -3405523.12147  -2639085.26644  23135867.2584                   23135864.5434
 -24392047.62547 -18996928.19945  22478679.8204                   22478677.1484
  -1998553.24647  -1549229.73845  22485128.5634                   22485123.3014
 -14667554.91848 -11414412.07446  21384326.9384                   21384323.4654
 -14584210.65647 -11350828.66045  22158674.1484   22158673.5784
 -26078027.85247 -20311259.89545  21802471.6334                   21802468.9964
 -19615243.56346 -15282495.77043  24304879.0084                   24304875.7464
 11  8 16  3 29 30.0000000  0  9G18G29G12G15G02G05G25G26G21
 -19898632.48446 -15494545.21543  24197411.3134                   24197408.5784
 -26604886.07848 -20723548.73446  20886221.9454                   20886218.7074
  -3265519.80147  -2529991.80944  23162509.5234                   23162506.4104
 -24435345.55547 -19030666.80545  22470441.3674                   22470437.9184
  -1902169.73447  -1474125.72345  22503469.6804                   22503464.7074
 -14549220.14848 -11322203.16046  21406845.6254                   21406841.7584
 -14479500.73447 -11269236.53546  22178600.4304   22178599.5044
 -26095823.07047 -20325126.27345  21799085.2034                   21799082.2734
 -19625625.25446 -15290585.33243  24302903.1724                   24302899.5314
 11  8 16  3 30  0.0000000  0  9G18G29G12G15G02G05G25G26G21
 -19937374.98846 -15524734.09043  24190039.4844                   24190036.6844
 -26615963.77348 -20732180.68446  20884113.9774                   20884110.1684
  -3125432.30147  -2420832.74244  23189167.0554                   23189163.9454
 -24478452.73047 -19064256.77345  22462237.8524                   22462234.5434
  -1805688.94547  -1398945.89845  22521828.8984                   22521824.0004
 -14430628.60248 -11229794.16446  21429412.6024                   21429408.9184
 -14374424.62147 -11187359.05146  22198595.7274   22198594.7664
 -26113157.15647 -20338633.34445  21795786.7664                   21795783.8204
 -19636040.12946 -15298700.76243  24300921.2664                   24300917.5514
 11  8 16  3 30 30.0000000  0  9G18G29G12G15G02G05G25G26G21
 -19975927.20746 -15554774.69943  24182703.1174                   24182700.7194
 -26626707.14148 -20740552.12546  20882069.6094                   20882066.1954
  -2985256.28947  -2311604.69144  23215841.4304                   23215838.7624
 -24521357.96947 -19097689.38345  22454073.7664                   22454070.6374
  -1709102.76247  -1323683.93845  22540209.4844                   22540204.3094
 -14311774.76648 -11137180.78946  21452029.9694                   21452026.0824
 -14268977.27747 -11105192.29346  22218661.3364   22218661.1844
 -26130019.00447 -20351772.41445  21792578.0554                   21792574.6454
 -19646480.91046 -15306836.37543  24298933.9064                   24298930.1174
 11  8 16  3 31  0.0000000  0  9G18G29G12G15G02G05G25G26G21
 -20014282.72746 -15584662.02743  24175403.9384                   24175401.3164
 -26637109.08648 -20748657.52046  20880090.0864                   20880086.6564
  -2844989.67647  -2202306.08244  23242533.5784                   23242530.4064
 -24564053.40247 -19130958.49245  22445949.1334                   22445945.8634
  -1612405.72347  -1248335.62545  22558610.3054                   22558605.0474
 -14192656.40648 -11044361.28946  21474697.3134                   21474693.6604
 -14163156.57847 -11022734.61745  22238798.4144   22238797.5864
 -26146400.61347 -20364537.29345  21789460.4844                   21789457.3204
 -19656942.91846 -15314988.52843  24296942.9144                   24296938.9264
 11  8 16  3 31 30.0000000  0  9G18G29G12G15G02G05G25G26G21
 -20052441.20746 -15614395.82043  24168142.3364                   24168140.2894
 -26647167.54748 -20756495.26646  20878176.1094                   20878172.3954
  -2704636.05547  -2092939.64544  23269242.2584                   23269239.5594
 -24606536.45347 -19164062.12545  22437864.5084                   22437861.2664
  -1515597.75447  -1172900.85945  22577031.9454                   22577027.2894
 -14073276.59048 -10951338.05146  21497414.3364                   21497410.9064
 -14056965.75847 -10939988.52745  22259005.7814   22259004.7704
 -26162298.83647 -20376925.50445  21786435.5634                   21786432.3674
 -19667427.19746 -15323158.04443  24294947.9224                   24294944.1564
 11  8 16  3 32  0.0000000  0  9G18G29G12G15G02G05G25G26G21
 -20090408.17647 -15643980.41843  24160917.8134                   24160915.2704
 -26656886.94948 -20764068.81346  20876326.4144                   20876322.7704
  -2564204.71947  -1983512.66045  23295965.7584                   23295963.0274
 -24648810.44947 -19197002.85945  22429819.8834                   22429816.7584
  -1418685.19948  -1097384.61345  22595474.3444                   22595468.7464
 -13953643.87148 -10858117.75446  21520180.1884                   21520176.3794
 -13950414.38747 -10856961.49645  22279281.8984   22279281.5354
 -26177717.56647 -20388940.08645  21783501.2974                   21783498.0354
 -19677940.75446 -15331350.33243  24292948.0394                   24292943.9344
 11  8 16  3 32 30.0000000  0  9G18G29G12G15G02G05G25G26G21
 -20128176.63346 -15673410.29743  24153729.7664                   24153727.7854
 -26666259.28948 -20771371.91446  20874542.7344                   20874539.3094
  -2423693.13747  -1874023.12945  23322704.4304                   23322700.7774
 -24690866.47747 -19229773.73845  22421817.1334                   22421814.0044
  -1321662.11747  -1021782.22345  22613937.0704                   22613931.6294
 -13833755.27048 -10764698.05546  21542993.9694                   21542989.9614
 -13843499.46147 -10773651.18045  22299627.0474   22299626.1844
 -26192647.73847 -20400573.95745  21780659.8914                   21780657.1844
 -19688478.35946 -15339561.34443  24290941.7734                   24290938.7544
 11  8 16  3 33  0.0000000  0  9G18G29G12G15G02G05G25G26G21
 -20165749.87546 -15702688.06643  24146580.2194                   24146577.7584
 -26675286.29748 -20778405.92246  20872825.2344                   20872821.3284
  -2283108.23847  -1764476.46545  23349455.8754                   23349453.7154
 -24732705.93047 -19262375.86345  22413855.2734                   22413852.1374
  -1224531.85247   -946096.31645  22632420.3364                   22632414.8204
 -13713617.36748 -10671084.09846  21565855.5394                   21565851.7424
 -13736228.03147 -10690063.05145  22320040.3204   22320039.2114
 -26207090.18847 -20411827.78145  21777911.5394                   21777908.3984
 -19699044.45746 -15347794.56643  24288929.9614                   24288927.8714
 11  8 16  3 33 30.0000000  0  9G18G29G12G15G02G05G25G26G21
 -20203120.90246 -15731808.23443  24139468.2664                   24139465.7544
 -26683959.93048 -20785164.59046  20871174.4534                   20871170.8914
  -2142447.73847  -1654870.91445  23376223.3134                   23376220.1334
 -24774319.58247 -19294802.03545  22405936.5704                   22405933.2814
  -1127288.47747   -870322.27345  22650925.3134                   22650919.2154
 -13593226.77348 -10577273.25446  21588765.4534                   21588761.3834
 -13628597.14848 -10606194.84045  22340522.1884   22340521.0944
 -26221036.04347 -20422694.65645  21775258.1484                   21775255.3404
 -19709633.43446 -15356045.66043  24286915.6484                   24286912.9844
 11  8 16  3 34  0.0000000  0  9G18G29G12G15G02G05G25G26G21
 -20240295.12146 -15760775.03143  24132394.1254                   24132391.4144
 -26692284.42648 -20791651.18846  20869590.4774                   20869586.8914
  -2001720.90247  -1545213.64844  23403002.7344                   23402999.7154
 -24815710.96947 -19327055.02745  22398059.5314                   22398056.2854
  -1029937.78147   -794464.59045  22669450.6884                   22669444.7274
 -13472592.65248 -10483272.64146  21611720.9144                   21611717.0004
 -13520616.17647 -10522053.82445  22361069.9774   22361069.7814
 -26234488.71947 -20433177.23045  21772697.8834                   21772694.7814
 -19720252.26246 -15364320.00443  24284895.8284                   24284892.4064
 11  8 16  3 34 30.0000000  0  9G18G29G12G15G02G05G25G26G21
 -20277267.95746 -15789584.92643  24125358.8914                   24125355.3714
 -26700253.42648 -20797860.78546  20868073.8284                   20868070.6294
  -1860927.39847  -1435504.45344  23429794.3284                   23429792.2664
 -24856873.58647 -19359129.75845  22390226.7194                   22390223.3794
   -932476.41847   -718520.69544  22687996.2664                   22687991.2194
 -13351713.64848 -10389081.20746  21634723.4844                   21634719.6954
 -13412284.40247 -10437639.47345  22381684.6884   22381684.5084
 -26247441.32847 -20443270.16045  21770233.1804                   21770229.8244
 -19730897.46946 -15372614.89843  24282870.2814                   24282865.9064
 11  8 16  3 35  0.0000000  0  9G18G29G12G15G02G05G25G26G21
 -20314040.32046 -15818238.60543  24118361.9304                   24118358.0234
 -26707867.39848 -20803793.73046  20866625.0554                   20866621.5514
  -1720071.83647  -1325746.92244  23456598.5314                   23456595.9184
 -24897806.24647 -19391025.30545  22382437.3054                   22382434.2584
   -834905.44547   -642491.37144  22706563.4774                   22706558.1684
 -13230594.34448 -10294702.52746  21657771.7894                   21657767.8594
 -13303606.78947 -10352955.62545  22402365.1804   22402364.4774
 -26259892.90647 -20452972.67245  21767863.2894                   21767860.6604
 -19741572.01646 -15380932.68443  24280839.1414                   24280834.9454
 11  8 16  3 35 30.0000000  0  9G18G29G12G15G02G05G25G26G21
 -20350611.71547 -15846735.71543  24111401.7114                   24111398.7774
 -26715124.24648 -20809448.39846  20865244.0944                   20865240.4844
  -1579158.04746  -1215943.98844  23483413.8134                   23483410.4804
 -24938505.89547 -19422739.28545  22374692.2734                   22374689.1174
   -737225.26647   -566376.94544  22725151.5784                   22725146.0944
 -13109237.65648 -10200138.88346  21680864.8834                   21680860.7624
 -13194586.63747 -10268004.85545  22423110.7664   22423110.0744
 -26271840.74247 -20462282.65645  21765590.0004                   21765587.2034
 -19752276.56346 -15389273.83243  24278801.8134                   24278798.2424
 11  8 16  3 36  0.0000000  0  9G18G29G12G15G02G05G25G26G21
 -20386980.84046 -15875075.21943  24104480.9774                   24104477.8244
 -26722021.68048 -20814823.00846  20863931.1644                   20863928.1454
  -1438188.55946  -1106097.65644  23510238.6954                   23510236.1334
 -24978969.48047 -19454269.30945  22366992.4924                   22366989.4264
   -639435.16447   -490176.89145  22743760.8134                   22743754.9734
 -12987645.66448 -10105391.88346  21704003.3054                   21703999.5514
 -13085226.80547 -10182789.39845  22443921.3674   22443920.6604
 -26283281.74647 -20471197.70345  21763413.1024                   21763409.5234
 -19763011.36746 -15397638.56643  24276759.0704                   24276755.0474
 11  8 16  3 36 30.0000000  0  9G18G29G12G15G02G05G25G26G21
 -20423144.71146 -15903254.79343  24097599.3204                   24097595.5434
 -26728555.25448 -20819914.08646  20862688.2034                   20862684.8954
  -1297164.59446   -996208.88344  23537075.1954                   23537072.2934
 -25019192.14147 -19485611.60245  22359337.9614                   22359335.3984
   -541532.70747   -413889.25044  22762389.9924                   22762384.7584
 -12865819.12548 -10010462.10246  21727186.1644                   21727182.1844
 -12975528.16847 -10097309.92245  22464796.7814   22464795.6174
 -26294210.84847 -20479713.86745  21761332.9304                   21761330.1724
 -19773774.63346 -15406025.46144  24274710.3134                   24274707.3524
 11  8 16  3 37  0.0000000  0  9G18G29G12G15G02G05G25G26G21
 -20459107.29346 -15931277.59042  24090755.6334                   24090751.7504
 -26734727.40248 -20824723.54346  20861514.0234                   20861510.4734
  -1156094.07046   -886283.84444  23563920.0234                   23563917.1604
 -25059175.45747 -19516767.39545  22351729.7814                   22351726.7234
   -443522.22747   -337517.46144  22781041.5164                   22781036.1214
 -12743765.05148  -9915355.03946  21750412.4304                   21750408.3634
 -12865498.37547 -10011572.41045  22485734.1724   22485734.0824
 -26304629.53547 -20487832.30545  21759351.0164                   21759347.7894
 -19784571.58246 -15414438.59844  24272655.5864                   24272652.1804
 11  8 16  3 37 30.0000000  0  9G18G29G12G15G02G05G25G26G21
 -20494858.40246 -15959135.54742  24083952.3594                   24083947.3284
 -26740526.78148 -20829242.52046  20860410.1644                   20860406.8834
  -1014970.51246   -776317.44544  23590774.7114                   23590772.3834
 -25098907.21947 -19547727.15645  22344168.9224                   22344166.0594
   -345394.05147   -261053.96144  22799714.0944                   22799709.4144
 -12621476.85548  -9820065.53146  21773683.0864                   21773678.9884
 -12755131.28547  -9925572.10245  22506736.5474   22506736.3134
 -26314525.95347 -20495543.77345  21757467.1954                   21757464.2934
 -19795393.33646 -15422871.05544  24270596.0164                   24270592.7544
 11  8 16  3 38  0.0000000  0  9G18G29G12G15G02G05G25G26G21
 -20530402.51246 -15986832.20743  24077188.3594                   24077184.4224
 -26745956.84848 -20833473.72746  20859377.0084                   20859373.6524
   -873802.55147   -666316.45344  23617638.1644                   23617635.4844
 -25138390.23047 -19578493.09845  22336655.2344                   22336652.0984
   -247154.14147   -184503.36745  22818409.7894                   22818403.5354
 -12498962.40248  -9724599.71546  21796996.7344                   21796992.8364
 -12644435.43048  -9839315.60245  22527801.6484   22527801.0824
 -26323902.44548 -20502850.09045  21755683.1334                   21755680.0944
 -19806245.66046 -15431327.33644  24268530.6644                   24268527.7154
 11  8 16  3 38 30.0000000  0  9G18G29G12G15G02G05G25G26G21
 -20565738.63346 -16014366.72743  24070463.9774                   24070460.6724
 -26751014.98348 -20837415.11346  20858414.6724                   20858410.6914
   -732593.10547   -556283.14544  23644509.9774                   23644507.2664
 -25177620.86347 -19609062.38245  22329189.9774                   22329186.7464
   -148800.92547   -107864.52445  22837125.2194                   22837119.7074
 -12376224.07548  -9628959.45946  21820352.5634                   21820348.9454
 -12533413.59447  -9752805.08545  22548928.1644   22548927.1524
 -26332756.10248 -20509749.02045  21753998.3674                   21753995.3714
 -19817129.43246 -15439808.14944  24266460.2814                   24266457.3364
 11  8 16  3 39  0.0000000  0  9G18G29G12G15G02G05G25G26G21
 -20600864.78146 -16041737.67643  24063779.7974                   24063776.5904
 -26755698.19148 -20841064.35946  20857523.3984                   20857519.6374
   -591344.16047   -446219.05144  23671388.7974                   23671385.6604
 -25216595.11747 -19639431.89545  22321773.3444                   22321770.2384
    -50333.39147    -31136.55545  22855862.3914                   22855857.4654
 -12253263.39148  -9533145.93446  21843751.3754                   21843747.7154
 -12422067.91848  -9666042.21945  22570116.4844   22570115.3674
 -26341082.78548 -20516237.32445  21752413.7424                   21752410.8794
 -19828043.40246 -15448312.47744  24264383.8054                   24264380.2854
 11  8 16  3 39 30.0000000  0  9G18G29G12G15G02G05G25G26G21
 -20635778.48446 -16068943.06643  24057135.6024                   24057132.5474
 -26760002.75848 -20844418.55946  20856704.1024                   20856700.9414
   -450057.47747   -336125.53144  23698275.0474                   23698271.1954
 -25255308.71947 -19669598.28545  22314406.7114                   22314403.4734
     48249.92647     45681.58245  22874622.8834                   22874617.5474
 -12130081.30948  -9437159.89846  21867192.6804                   21867188.3674
 -12310399.96148  -9579028.22345  22591366.6414   22591365.0984
 -26348878.39847 -20522311.80945  21750930.2664                   21750927.0864
 -19838987.14546 -15456840.02044  24262300.5474                   24262297.0984
 11  8 16  3 40  0.0000000  0  9G18G29G12G15G02G05G25G26G21
 -20670481.73846 -16095984.48443  24050532.3674                   24050528.7974
 -26763928.98448 -20847477.94146  20855956.9144                   20855953.5164
   -308738.54747   -226006.89844  23725166.8674                   23725163.8554
 -25293760.86347 -19699560.96545  22307089.6644                   22307086.5314
    146946.95347    122588.34845  22893403.8984                   22893398.6484
 -12006683.01648  -9341005.37946  21890673.9454                   21890670.5164
 -12198415.25447  -9491767.41045  22612676.3284   22612675.4734
 -26356142.47347 -20527972.10945  21749548.0864                   21749544.7584
 -19849963.36346 -15465392.84043  24260212.4774                   24260208.3484
 11  8 16  3 40 30.0000000  0  9G18G29G12G15G02G05G25G26G21
 -20704971.56346 -16122859.62943  24043968.6724                   24043964.8674
 -26767473.11748 -20850239.58646  20855282.6884                   20855278.7234
   -167388.55547   -115864.07444  23752064.9694                   23752062.1134
 -25331947.27347 -19729316.57045  22299822.7424                   22299819.4884
    245760.23047    199585.69145  22912207.3054                   22912202.5124
 -11883068.92647  -9244682.69946  21914196.8984                   21914193.6484
 -12086115.07047  -9404260.77745  22634046.3284   22634045.6024
 -26362870.37547 -20533214.60945  21748267.3984                   21748264.3054
 -19860970.38346 -15473969.67643  24258117.0634                   24258113.1134
 11  8 16  3 41  0.0000000  0  9G18G29G12G15G02G05G25G26G21
 -20739247.88346 -16149568.36343  24037446.0084                   24037442.9264
 -26770633.49648 -20852702.21946  20854681.1414                   20854677.4304
    -26010.86747     -5699.68844  23778968.1724                   23778965.1684
 -25369865.18447 -19758862.96145  22292607.2114                   22292604.2304
    344689.25447    276673.22345  22931033.0394                   22931027.6414
 -11759242.19548  -9148194.34046  21937760.6024                   21937756.6994
 -11973502.94947  -9316511.08245  22655476.0864   22655475.0784
 -26369059.85547 -20538037.55145  21747089.8914                   21747086.8244
 -19872009.27746 -15482571.36343  24256016.1954                   24256011.4384
 11  8 16  3 41 30.0000000  0  9G18G29G12G15G02G05G25G26G21
 -20773312.00846 -16176111.78543  24030963.1724                   24030960.6214
 -26773410.18048 -20854865.84446  20854152.7894                   20854149.2274
    115389.12547    104482.09444  23805875.0004                   23805872.5744
 -25407513.71147 -19788199.44945  22285442.6094                   22285439.6604
    443732.00047    353849.38745  22949880.7344                   22949874.5784
 -11635207.57048  -9051543.97346  21961363.7504                   21961359.5164
 -11860584.34447  -9228522.56345  22676963.4144   22676962.7194
 -26374710.37147 -20542440.52345  21746014.1724                   21746011.2704
 -19883082.60246 -15491199.84043  24253908.8524                   24253904.8404
 11  8 16  3 42  0.0000000  0  9G18G29G12G15G02G05G25G26G21
 -20807162.19546 -16202488.48043  24024522.1724                   24024518.5204
 -26775800.23048 -20856728.21946  20853697.8984                   20853694.1914
    256809.09447    214679.46944  23832786.9384                   23832783.4384
 -25444889.32447 -19817323.28545  22278330.4224                   22278327.1414
    542889.75047    431115.14145  22968749.3754                   22968743.9454
 -11510966.40248  -8954732.68046  21985005.9454                   21985001.9414
 -11747361.46947  -9140296.96145  22698509.2114   22698508.4264
 -26379818.34047 -20546420.74245  21745042.3204                   21745039.2704
 -19894189.99246 -15499854.91543  24251795.6414                   24251791.0784
